GEFSSGP_500_meanwind_006.txt.gz
Wind_Speed
10 12 12 12 11 7 2 3 4 5 8 9 11 11 10 6 6 8 7 6 6 6 6 6 5 5 6 6 6 6 6 7 7 8 8 9 10 10 10 10 9 8 7 9 13 17 17 14 11
9 9 8 8 5 3 1 2 2 7 7 6 9 11 10 8 8 8 8 7 7 7 8 7 7 7 8 8 8 7 6 5 4 5 6 7 9 9 9 9 8 8 7 9 15 17 15 13 11
9 8 4 2 3 5 6 5 7 10 7 6 8 9 9 7 7 8 8 9 8 8 9 9 9 9 9 10 9 8 7 5 4 4 5 6 7 8 8 9 8 8 8 10 16 16 13 12 12
9 8 5 6 8 9 10 9 10 13 9 6 4 5 5 6 7 7 8 9 9 8 10 10 10 10 10 10 10 10 9 8 8 9 10 10 10 10 10 10 9 9 10 13 16 15 13 12 12
12 10 7 8 16 15 13 16 18 15 11 4 3 6 5 6 7 8 8 9 8 8 9 10 11 11 11 12 12 12 13 13 14 16 17 17 16 15 15 13 11 11 12 14 15 14 14 14 14
16 13 10 9 14 12 12 15 17 17 14 7 8 8 7 7 9 10 10 10 10 10 10 11 12 13 13 14 15 16 17 19 20 22 23 23 22 20 19 18 15 15 17 17 17 17 16 17 18
18 15 8 5 9 11 10 11 13 16 13 9 11 13 13 11 12 14 14 15 15 14 15 16 17 18 18 19 20 20 22 23 25 27 27 26 25 24 22 21 20 20 21 21 20 21 21 22 23
19 14 9 7 10 7 10 11 13 11 10 9 11 16 14 10 12 16 17 19 20 21 21 21 22 23 24 24 24 24 24 26 27 28 28 27 26 25 24 23 23 24 24 24 24 24 25 26 26
20 15 12 13 18 11 10 12 15 12 9 10 14 16 13 13 16 19 21 22 25 25 27 28 28 28 28 27 27 26 26 26 27 27 27 26 26 25 24 24 25 26 26 27 28 29 29 30 30
19 15 16 19 20 17 9 11 17 16 13 12 15 18 20 23 25 25 25 26 29 30 31 33 31 29 28 28 28 27 28 27 27 26 27 27 27 25 24 23 24 26 27 28 30 31 32 32 32
18 16 20 24 23 22 17 14 18 20 20 18 17 21 26 28 27 26 28 30 32 33 34 35 34 31 29 29 28 27 28 27 25 25 25 26 27 25 24 23 24 26 26 26 27 27 29 29 30
19 16 20 28 29 27 26 23 20 24 27 28 28 29 31 31 32 33 33 32 33 34 35 35 36 34 31 30 29 28 26 25 23 23 23 24 25 24 23 22 23 23 22 20 19 19 21 22 23
21 20 20 24 30 31 31 30 26 27 29 30 30 31 32 35 36 37 37 36 35 34 34 33 33 33 32 30 29 28 26 25 24 24 24 23 24 24 24 24 23 22 20 18 18 18 20 22 23
20 20 19 19 23 31 34 32 29 27 28 28 27 28 31 36 40 41 40 40 43 40 37 33 31 32 33 32 31 29 27 25 25 25 24 24 24 24 23 22 21 21 21 20 19 20 21 22 23
20 20 19 20 21 22 27 28 25 25 26 26 27 29 33 38 42 43 41 41 48 43 38 35 34 36 37 35 32 29 27 27 25 23 22 24 25 25 24 23 23 22 21 20 20 20 21 21 22
19 19 18 17 19 19 22 20 20 22 22 25 29 32 34 37 40 41 40 44 51 51 34 31 34 35 35 34 32 30 28 25 22 22 22 23 24 24 23 22 22 22 21 21 21 20 20 20 20
17 15 14 13 14 13 12 12 17 19 22 25 30 34 37 40 42 43 44 48 52 51 45 41 33 28 27 25 24 24 23 22 23 24 23 21 20 19 18 18 19 21 22 22 21 20 19 18 17
12 10 8 6 7 9 11 16 19 21 23 25 30 35 40 42 43 46 48 51 52 51 48 44 40 30 20 16 16 19 23 23 24 25 24 22 20 18 16 15 16 18 19 19 19 18 18 17 16
9 11 11 9 9 11 15 19 22 24 26 29 33 36 40 43 44 45 47 48 46 46 47 46 38 32 26 20 19 21 22 23 23 23 24 25 24 21 18 16 15 16 17 17 17 17 17 17 18
11 15 18 18 18 17 21 24 27 29 32 34 36 36 36 38 39 40 40 40 43 45 42 37 31 28 26 21 20 21 20 20 21 21 22 23 24 22 20 19 18 17 17 17 17 17 18 19 19
15 19 22 23 21 22 25 29 32 34 34 34 34 34 33 33 35 36 37 40 42 41 38 33 28 25 24 22 20 19 19 18 19 18 18 18 20 21 20 19 19 19 19 20 21 20 20 20 20
14 19 22 24 24 24 28 32 32 34 34 31 30 30 30 32 34 36 38 39 39 38 36 33 30 27 25 24 21 21 21 17 17 19 20 18 18 19 20 20 20 20 21 21 22 22 22 22 22
11 13 20 22 21 22 24 25 22 22 22 22 24 26 26 29 33 36 37 38 39 39 38 35 33 31 30 29 28 27 25 24 24 24 25 24 21 20 20 21 22 23 23 23 23 24 24 23 24
15 9 9 13 14 16 16 17 17 16 15 19 22 23 25 28 32 37 40 41 41 42 41 41 40 39 39 38 37 34 32 32 32 30 30 29 27 25 23 22 23 24 26 27 27 27 27 26 25
11 9 6 7 11 13 15 16 17 17 19 23 23 24 28 34 38 42 44 44 44 45 47 48 48 47 46 45 44 42 40 39 38 38 36 35 33 31 30 28 26 26 27 30 30 30 30 30 28
14 16 17 16 17 17 19 20 22 25 26 26 27 30 34 39 43 45 47 48 49 50 50 50 50 49 49 48 47 46 45 44 44 44 44 43 42 39 37 36 33 32 31 32 33 33 34 33 31
16 16 15 16 16 18 21 24 26 29 31 33 34 36 39 43 47 51 53 55 56 57 58 56 55 53 53 53 52 51 50 49 49 49 49 50 50 49 47 45 42 40 38 37 37 36 36 34 33
14 14 13 14 15 18 22 27 30 33 35 38 41 44 47 50 52 54 56 59 60 62 63 63 62 60 59 58 58 57 55 54 53 53 53 54 54 54 54 54 52 49 46 45 44 42 40 38 36
15 16 16 17 19 22 27 32 36 38 40 43 46 48 50 51 53 55 57 59 61 63 65 67 68 68 67 67 66 65 63 61 59 58 57 57 57 57 57 57 56 55 53 53 52 49 47 45 42
18 18 17 19 22 26 31 35 39 40 41 43 45 47 50 52 55 58 59 61 62 64 67 70 72 74 75 74 73 71 69 67 65 64 63 62 61 61 60 61 61 60 58 56 56 55 53 51 49

GEFSSGP_500_meanwind_012.txt.gz
Wind_Speed
7 7 5 5 5 5 5 7 10 11 12 12 12 11 8 6 6 8 9 10 11 11 13 15 17 17 15 13 11 10 9 7 4 1 1 2 1 1 1 1 1 1 2 4 8 11 9 8 6
10 10 9 8 7 7 7 8 9 9 10 10 10 11 11 10 9 9 10 11 12 13 15 16 17 17 16 15 14 12 11 9 6 4 2 2 3 3 3 3 3 4 5 5 6 8 7 6 6
12 12 12 10 9 9 10 11 10 9 9 8 8 9 10 10 10 10 11 12 14 15 17 17 17 17 16 15 14 13 12 10 8 7 6 7 7 8 8 8 7 7 7 8 7 7 6 4 4
13 14 14 13 11 12 13 14 14 13 10 8 6 6 8 8 8 9 10 13 14 15 16 16 16 15 14 14 14 14 13 12 11 11 12 13 14 14 13 13 12 12 12 12 11 9 8 7 6
15 16 16 16 15 16 17 17 16 14 10 6 4 3 5 6 6 7 9 11 12 14 14 15 15 15 14 14 14 15 15 16 16 16 18 19 20 20 19 19 18 17 16 16 16 14 13 12 12
19 18 18 18 18 20 21 19 17 15 11 6 4 4 5 6 5 6 8 10 12 14 16 16 16 16 16 16 16 17 18 20 20 21 21 22 22 22 23 22 22 22 21 20 20 20 19 18 18
21 21 21 20 21 22 23 20 18 16 11 6 4 4 6 8 6 7 9 12 15 17 19 19 18 18 19 20 21 21 22 23 23 23 22 22 22 22 23 23 24 25 24 23 23 23 23 23 23
22 21 20 22 25 26 26 23 21 18 14 9 5 4 5 7 8 9 12 16 19 21 22 23 23 23 23 24 25 26 27 26 26 25 24 23 22 22 22 23 24 25 26 26 26 26 26 26 26
21 20 19 22 27 28 28 27 24 23 19 14 10 8 8 10 12 14 16 19 23 25 26 27 28 29 30 30 30 31 32 31 29 27 25 24 22 22 22 22 23 25 26 27 27 28 29 29 29
19 17 18 23 27 29 29 29 28 25 23 19 14 13 13 15 16 18 21 24 27 30 31 32 34 34 35 35 35 36 37 36 33 29 27 25 23 22 22 22 24 25 25 26 27 29 30 31 32
16 14 16 21 26 28 29 30 30 29 25 22 19 18 19 19 20 22 24 27 31 34 36 37 37 35 36 36 37 38 40 39 36 33 30 27 25 23 23 23 25 25 25 26 28 30 30 30 29
17 16 17 17 23 27 29 31 33 33 30 27 24 23 23 24 25 25 26 28 32 37 39 39 37 34 34 34 35 37 39 40 39 36 33 30 27 26 24 24 25 25 25 26 27 27 27 28 29
20 19 19 18 21 25 29 33 35 35 33 31 28 27 27 26 26 26 26 29 34 39 40 38 34 30 28 29 32 33 36 40 41 39 37 34 31 28 26 26 27 27 26 26 26 26 26 27 27
21 20 21 21 22 26 30 33 35 36 35 33 31 30 28 27 26 26 28 31 36 40 40 36 34 34 31 29 28 29 33 37 41 41 40 37 33 29 27 26 26 25 26 26 26 27 26 26 24
21 21 22 23 24 26 29 31 32 34 35 34 32 30 28 27 27 28 30 33 37 41 41 40 38 36 33 30 28 29 30 32 38 41 39 35 31 28 25 25 25 25 26 27 27 27 27 27 26
20 21 22 23 24 25 26 26 26 28 30 31 30 29 28 28 29 29 31 34 39 41 41 39 39 37 34 30 28 28 26 27 30 34 35 33 31 28 26 25 25 26 27 28 29 29 30 29 29
18 19 20 20 22 22 21 19 18 20 23 25 26 27 28 29 30 32 34 38 41 42 42 41 39 37 33 30 27 25 22 20 23 28 31 32 31 28 25 25 25 26 27 28 28 29 30 31 30
15 16 18 19 19 19 17 14 13 14 17 21 24 26 28 30 33 35 37 40 41 41 41 39 38 36 32 28 26 23 19 17 19 22 26 28 28 27 26 26 26 26 27 27 27 28 30 30 30
15 17 18 18 18 17 14 13 14 15 18 21 24 27 30 33 36 38 39 39 40 40 39 37 35 33 30 27 25 23 19 18 18 19 21 23 25 26 26 27 27 27 27 27 27 27 27 27 27
13 14 17 19 19 19 18 17 17 19 22 25 28 32 35 37 39 39 38 38 38 37 36 35 34 32 30 28 25 23 22 20 19 20 21 23 25 25 25 25 25 26 27 28 28 26 25 25 26
10 14 16 19 21 22 23 22 22 24 27 30 32 34 34 34 34 34 35 35 35 35 35 35 36 35 34 31 28 25 24 24 23 23 23 24 25 26 25 24 24 25 27 28 29 28 26 26 26
9 13 15 18 19 20 20 22 22 24 26 27 27 27 27 28 29 30 31 32 34 36 38 40 40 40 39 36 33 31 29 29 29 29 29 28 28 29 28 27 26 26 27 29 30 30 29 28 28
3 6 7 9 10 11 13 16 18 20 22 23 24 26 27 29 31 33 35 37 39 41 43 45 46 46 44 43 41 39 37 36 35 36 35 35 35 34 33 31 30 30 30 31 32 33 33 32 31
4 5 8 9 9 9 11 13 16 19 21 23 25 28 30 33 35 37 39 41 43 44 46 47 47 47 47 46 45 44 43 42 42 41 41 41 41 41 40 39 37 36 35 35 35 36 36 35 35
8 8 9 9 9 11 12 14 16 19 21 25 28 31 33 35 37 39 40 41 42 43 43 44 44 45 46 47 47 47 47 47 47 46 46 46 47 47 47 46 44 42 41 40 40 39 39 39 38
11 12 13 13 12 12 13 14 18 21 24 28 31 34 36 37 38 39 40 40 40 41 43 44 45 46 47 48 49 49 50 50 51 51 51 51 52 53 53 52 51 49 47 47 45 44 43 43 43
15 16 17 17 17 16 16 18 22 25 29 32 34 35 36 38 39 41 42 43 45 47 49 50 50 48 46 44 43 44 46 48 51 54 56 57 57 58 59 59 58 56 54 52 51 49 48 47 46
16 17 18 19 20 20 21 24 27 29 31 33 34 36 38 40 41 43 45 47 50 53 53 52 50 46 43 41 40 40 40 42 43 46 51 57 61 63 64 64 63 63 61 59 56 55 54 52 50
16 17 17 18 20 23 26 28 28 30 32 33 36 38 41 43 45 47 50 53 55 55 52 49 48 47 47 47 47 47 46 46 46 45 45 47 52 59 66 68 68 68 67 66 64 61 58 55 53
14 15 17 20 23 25 28 29 30 31 33 35 38 41 44 46 49 51 54 57 56 52 48 47 48 49 51 52 54 54 55 53 51 50 49 48 48 50 56 63 69 72 72 71 70 68 65 62 59

GEFSSGP_500_meanwind_018.txt.gz
Wind_Speed
4 3 3 4 5 7 8 8 9 10 11 10 9 7 5 4 4 4 6 6 7 7 7 6 6 6 6 6 7 9 10 10 10 10 9 9 8 7 6 5 5 6 6 6 6 6 6 4 1
6 6 5 5 5 6 8 9 10 11 13 13 11 9 8 7 6 5 5 6 7 7 7 7 6 6 6 6 7 8 9 9 10 10 11 11 10 9 8 8 8 9 10 10 8 7 6 5 2
8 9 8 8 8 10 10 10 11 12 13 13 12 11 10 8 7 6 5 6 7 7 7 7 7 7 7 8 8 8 9 9 10 11 12 13 13 12 12 12 12 12 13 13 12 10 8 7 6
10 10 10 10 11 14 13 13 14 14 13 14 13 12 11 10 7 6 6 7 8 9 9 9 10 11 11 11 11 11 12 12 12 13 14 16 16 17 17 17 16 17 16 16 16 15 13 11 9
12 11 11 11 15 16 17 16 15 15 13 13 13 13 11 10 9 8 8 9 11 12 12 12 13 14 15 15 16 16 16 17 17 17 18 19 20 21 21 21 21 21 21 20 19 19 18 16 14
14 13 13 13 17 18 19 18 17 14 11 11 13 13 12 11 10 10 11 12 13 14 15 17 17 18 19 20 21 22 22 22 22 22 22 22 24 25 25 25 24 24 24 24 23 23 22 21 20
16 16 16 17 18 20 22 21 19 15 12 11 12 14 14 13 13 13 13 14 15 17 19 21 22 23 24 26 28 29 29 29 28 28 27 27 28 28 29 28 28 27 26 26 26 26 26 25 25
17 17 17 18 19 23 24 23 22 18 15 12 12 14 15 15 15 16 16 17 19 21 23 25 27 28 29 30 32 33 34 34 34 33 32 31 31 31 31 31 30 29 29 28 28 28 29 29 28
20 18 17 19 20 23 26 26 24 22 19 16 15 15 16 17 18 18 19 20 22 24 27 29 30 31 32 34 35 35 35 37 37 37 35 35 34 33 33 32 31 31 30 29 29 30 30 30 30
21 20 19 20 20 23 26 26 26 25 24 21 18 17 17 18 19 20 21 23 25 28 29 31 32 32 33 35 35 35 35 37 38 38 37 37 36 35 35 33 32 32 31 30 30 31 31 30 30
22 21 22 22 22 23 25 26 26 27 27 24 22 20 19 20 21 22 24 25 28 30 31 33 34 33 34 34 33 33 33 35 37 38 38 39 38 37 37 35 33 33 32 31 31 32 31 31 31
22 21 22 22 22 21 22 24 25 26 26 26 25 24 23 23 23 24 26 27 29 31 32 33 34 33 33 32 32 32 31 32 34 36 39 40 40 40 39 37 34 33 32 31 31 32 32 32 31
22 22 22 21 21 20 20 22 23 24 26 27 27 27 27 26 26 27 28 29 30 31 32 32 32 33 34 33 32 32 31 31 31 33 36 39 40 40 41 39 37 35 33 33 33 33 32 32 31
21 21 21 20 20 20 19 20 21 22 24 26 28 29 29 29 28 28 29 30 31 32 32 32 33 34 34 33 32 31 30 30 30 32 34 36 37 39 40 41 40 38 37 35 34 33 32 31 30
19 18 19 19 19 20 19 19 20 20 21 24 26 29 30 30 30 29 30 31 32 32 33 34 35 36 35 34 30 28 28 28 28 30 32 34 35 37 38 40 40 39 37 34 32 32 31 30 29
16 15 17 18 18 18 18 19 18 18 19 20 23 25 27 28 28 29 30 31 32 33 34 36 37 37 35 33 29 28 27 26 27 28 30 31 32 34 35 36 38 38 37 35 33 32 32 31 30
9 8 12 16 16 17 16 17 17 17 17 17 18 19 20 22 25 27 28 30 32 35 37 38 38 36 35 32 30 29 28 28 28 28 28 28 29 31 32 33 35 36 36 35 34 33 33 32 31
9 8 12 15 16 16 17 17 17 17 17 17 16 17 18 21 24 26 29 32 34 36 36 36 35 34 33 32 32 32 32 31 30 30 29 28 28 28 29 31 33 33 34 34 34 34 33 33 32
11 10 12 16 16 17 17 18 18 18 18 18 19 19 21 23 26 28 30 31 32 32 32 32 33 34 34 34 35 35 36 35 33 32 31 30 29 28 28 29 30 31 33 33 33 33 34 34 33
9 9 11 14 14 15 16 18 18 20 21 21 21 22 23 25 25 26 27 29 30 31 32 34 36 37 38 38 39 39 39 38 37 36 35 34 33 32 30 29 29 29 31 32 32 32 33 33 33
7 7 9 11 11 12 14 15 16 18 19 20 21 21 22 23 25 27 28 30 32 34 36 38 39 40 41 42 42 42 42 41 41 39 38 38 37 36 35 33 32 31 30 30 31 31 31 31 32
5 7 8 9 9 10 9 12 13 15 17 18 20 22 23 25 27 29 31 34 36 37 38 40 41 42 43 44 44 44 44 44 43 42 42 42 41 41 41 39 38 36 34 33 32 32 31 31 31
4 6 7 8 8 10 10 11 14 15 18 20 22 24 26 28 30 32 34 35 37 38 39 40 41 43 44 45 46 47 47 47 47 46 46 45 45 46 46 46 44 42 40 38 36 34 33 32 31
5 7 8 10 9 10 13 12 17 18 21 23 25 27 29 31 33 34 35 36 37 38 40 41 43 45 47 49 50 52 52 52 52 51 51 50 50 49 50 50 50 49 47 44 42 40 38 36 34
7 7 8 8 8 12 17 15 17 19 22 25 28 30 32 33 34 34 34 36 37 39 41 43 45 46 48 50 52 52 52 51 51 50 50 50 51 52 53 53 54 54 53 51 49 47 45 42 39
9 8 7 6 8 13 18 16 17 21 24 27 29 30 30 31 32 34 36 37 39 40 42 43 45 47 48 48 46 44 43 42 42 42 43 44 45 48 51 53 56 57 58 57 56 54 52 49 46
11 9 9 8 10 11 17 19 20 23 25 26 26 27 29 31 34 36 37 39 41 42 43 45 48 47 44 40 37 36 37 38 40 41 42 44 45 46 48 50 53 56 59 61 61 60 58 56 53
9 9 9 8 10 10 15 23 24 23 24 25 26 29 31 34 36 38 40 41 43 45 47 47 47 44 39 36 35 36 37 39 41 42 44 46 47 49 51 52 53 55 57 60 63 64 64 62 60
9 9 9 10 12 14 14 20 23 24 25 27 29 31 33 36 37 39 40 42 44 46 47 46 44 41 38 37 37 39 42 44 46 48 50 51 53 54 56 57 58 58 59 60 62 64 66 67 65
9 9 10 12 15 16 18 21 22 24 25 28 30 33 35 36 38 39 41 42 44 45 45 44 42 40 39 39 41 44 46 49 51 54 55 57 58 59 60 61 62 62 62 62 63 64 66 68 69

GEFSSGP_500_meanwind_024.txt.gz
Wind_Speed
5 5 6 7 7 10 11 8 7 8 10 10 10 9 8 8 8 8 8 9 8 7 6 6 5 5 5 6 6 7 8 9 10 11 12 13 13 14 14 13 12 12 12 12 12 13 12 12 10
4 4 4 5 7 13 9 9 11 13 14 13 12 11 10 10 9 8 8 8 7 6 5 5 6 6 6 7 7 8 8 9 10 11 12 13 14 15 16 16 15 15 15 15 15 14 14 13 11
5 4 4 6 10 8 10 12 11 13 14 14 14 11 10 11 11 10 10 10 8 8 7 7 7 8 8 9 10 11 11 12 12 13 13 14 15 16 17 18 19 19 19 19 18 17 16 14 13
6 3 3 6 11 9 15 14 10 10 12 10 12 13 12 12 12 12 13 13 12 12 11 11 11 11 12 13 14 15 15 16 17 17 18 18 18 19 20 21 21 21 22 21 21 20 19 17 16
8 4 1 8 8 12 17 17 11 8 11 12 15 14 13 13 13 14 15 15 15 15 16 16 16 17 17 17 19 19 20 20 22 22 22 22 22 23 23 24 24 23 23 23 23 23 22 21 20
11 7 4 4 2 15 17 16 10 10 12 11 14 15 14 14 14 15 16 17 18 18 19 19 20 21 22 22 23 23 23 24 25 25 25 26 26 27 27 27 27 26 26 25 25 25 25 24 23
14 12 8 7 7 13 22 19 14 12 15 11 13 18 16 13 14 15 16 18 20 20 21 22 23 23 24 25 26 25 26 26 26 27 28 28 29 29 29 29 29 28 28 27 27 27 27 27 26
15 15 10 3 5 13 23 23 20 16 20 20 20 21 18 15 16 16 17 19 21 22 23 24 25 26 27 27 28 28 28 27 27 28 29 29 31 32 31 31 32 31 30 30 29 29 28 28 28
17 15 10 2 10 18 24 26 23 19 23 22 19 22 21 19 19 19 19 20 22 24 25 26 26 27 28 28 29 29 28 28 29 30 31 31 32 33 33 34 34 34 33 32 31 31 30 29 29
19 17 11 9 18 25 27 27 24 20 25 25 22 23 23 23 22 23 22 23 23 25 26 27 28 28 29 30 29 29 29 29 30 31 32 33 34 34 34 34 34 35 35 35 34 32 31 30 30
22 20 17 18 21 23 23 21 21 22 28 28 25 25 25 25 25 26 25 26 26 26 27 28 30 30 31 32 32 31 32 32 32 33 34 34 34 34 33 33 33 34 36 37 35 33 32 31 30
23 21 21 21 23 21 20 20 22 23 25 26 27 27 27 27 28 28 28 29 29 29 29 31 31 32 33 34 34 34 35 35 35 35 34 33 33 33 33 33 32 33 34 35 35 32 31 30 29
21 21 21 22 22 21 20 20 23 22 21 24 26 28 28 29 30 30 30 31 31 32 32 32 33 34 34 35 35 36 37 38 38 36 34 33 32 31 31 32 32 32 32 33 34 33 32 31 30
18 18 19 21 21 21 20 20 23 21 22 24 25 27 29 30 30 31 32 32 33 34 34 34 34 35 35 36 37 38 39 39 38 36 34 32 31 31 32 31 31 31 32 32 33 33 32 31 31
13 13 15 18 20 20 19 19 21 20 21 22 24 26 27 29 30 30 31 32 32 33 33 34 35 35 37 37 38 39 39 38 36 35 34 33 32 32 32 31 31 31 31 30 31 32 31 31 31
4 6 9 18 16 13 15 18 19 18 19 19 21 22 24 25 26 27 28 29 29 31 32 34 35 36 38 38 38 38 36 35 35 34 34 33 33 33 33 32 32 32 31 29 29 29 29 30 31
7 15 22 28 17 9 13 19 20 20 19 18 18 19 19 21 22 23 24 25 27 29 32 34 36 37 37 36 36 36 35 35 35 35 35 35 35 35 34 34 33 33 31 30 29 29 29 29 30
16 15 16 13 7 7 15 22 21 20 21 20 19 18 19 19 20 22 24 26 28 30 32 34 35 35 35 36 36 36 37 37 37 37 36 36 37 37 37 36 35 34 32 31 30 28 27 27 28
11 12 16 14 13 14 20 22 22 22 21 21 20 20 20 21 22 24 25 27 28 30 31 33 34 35 36 37 38 38 38 39 40 39 38 38 38 39 39 38 37 36 35 33 32 29 28 28 28
10 9 13 19 23 18 16 19 17 15 17 18 18 19 21 21 23 24 26 27 29 31 32 34 35 37 38 39 39 39 39 40 41 41 40 40 39 40 41 40 39 38 37 35 34 32 31 30 29
10 11 12 17 20 16 15 17 12 10 12 14 16 18 20 21 23 25 28 29 31 33 35 35 36 37 38 39 41 41 41 42 43 43 43 42 41 42 43 43 42 41 40 38 37 36 34 32 31
11 12 9 11 16 18 20 21 13 12 11 12 16 19 22 24 26 28 30 32 34 35 36 37 37 38 39 41 43 43 44 44 45 46 46 45 44 44 45 45 45 44 43 42 40 39 38 36 34
8 7 10 13 17 23 24 22 10 14 15 17 21 23 25 27 29 30 31 32 33 35 37 38 39 40 41 42 44 45 46 47 48 49 49 49 48 47 46 46 46 45 45 44 43 42 40 39 37
3 8 15 18 19 20 15 11 11 20 24 25 26 27 27 28 30 30 31 32 33 35 37 39 40 41 41 43 44 46 47 47 48 49 49 49 47 46 44 43 41 40 42 42 43 43 43 42 40
4 10 17 22 24 17 12 7 8 19 25 27 29 29 28 29 29 30 32 33 34 35 36 37 39 40 41 42 43 44 45 45 46 46 45 45 43 42 41 40 39 37 37 39 40 40 42 43 43
9 9 14 15 19 18 18 11 13 19 22 23 25 26 27 29 30 31 32 33 33 33 34 36 37 39 40 41 42 43 43 44 44 43 43 42 42 41 41 42 42 41 39 39 40 41 41 42 44
8 8 10 8 9 12 18 19 20 20 21 22 24 26 28 30 31 31 32 32 33 34 35 36 38 39 40 41 42 42 43 42 42 41 41 41 42 42 43 45 46 46 46 45 45 45 45 44 44
11 10 8 4 7 5 11 19 20 20 22 24 26 28 30 31 32 33 33 33 34 36 37 38 39 40 40 41 42 42 42 41 41 41 41 41 43 44 46 48 50 51 52 52 52 51 50 49 48
11 10 8 6 6 5 7 20 20 22 23 24 26 29 30 32 33 33 34 35 36 37 39 40 41 41 41 42 42 42 42 42 41 42 42 43 44 45 47 50 52 54 56 58 58 58 57 55 53
10 11 10 8 7 6 7 21 22 23 24 26 27 29 31 33 34 35 36 36 37 38 40 41 42 43 43 43 43 44 43 42 42 42 43 44 45 47 48 50 52 54 57 59 61 63 62 61 59

GEFSSGP_500_meanwind_030.txt.gz
Wind_Speed
2 4 5 5 4 3 4 8 12 12 9 6 4 3 4 5 5 5 6 6 7 7 6 6 5 4 4 4 5 6 6 7 7 7 7 7 6 6 7 7 9 10 12 14 15 15 15 15 15
0 2 2 3 2 3 5 10 14 15 12 8 5 4 4 5 4 4 5 7 7 7 6 6 6 5 6 6 7 7 8 8 8 9 9 9 9 8 9 9 10 11 13 14 15 16 16 15 15
3 1 2 1 2 3 5 8 14 18 16 13 9 7 6 5 6 6 6 6 6 6 6 7 7 7 8 8 9 10 10 10 10 11 11 11 12 12 13 13 13 14 14 15 16 17 17 17 16
6 3 1 3 3 2 4 7 13 19 20 16 14 11 8 5 5 7 7 6 6 6 7 8 9 9 10 11 12 12 13 13 13 14 14 14 14 15 15 16 16 17 17 17 18 18 18 18 18
6 4 4 4 3 3 4 8 16 21 23 21 18 14 11 7 5 7 9 8 8 8 9 10 11 12 13 13 14 15 15 15 15 16 16 16 16 16 17 18 19 20 20 20 20 21 21 20 20
7 5 6 5 5 4 3 10 19 25 27 25 21 18 16 12 7 8 10 11 9 10 11 12 13 14 15 16 17 17 17 17 17 17 17 17 18 18 18 18 19 20 21 22 23 23 23 23 22
8 6 8 9 8 5 6 14 22 26 29 28 25 22 20 16 11 9 11 12 11 11 13 14 15 16 17 18 19 19 19 19 19 19 18 19 19 20 21 22 22 22 23 24 24 26 25 25 25
11 9 13 15 14 11 11 16 23 27 30 29 28 27 23 19 14 11 12 13 13 13 14 15 17 18 19 20 21 21 21 22 21 21 21 21 22 23 23 24 24 24 24 25 25 26 27 27 28
14 12 17 20 20 19 17 18 24 28 30 31 30 29 26 20 18 16 14 15 15 16 17 17 18 20 21 21 22 23 23 24 24 23 23 24 24 25 25 25 25 25 25 24 25 26 28 29 29
16 14 21 24 24 23 21 21 25 29 31 31 31 30 25 23 23 21 18 17 17 18 19 20 20 22 23 24 24 24 25 25 26 26 27 27 27 27 27 27 25 25 25 25 24 24 26 28 30
18 17 24 27 26 25 24 24 27 30 32 33 33 29 25 26 25 23 21 19 20 21 21 23 24 25 25 25 25 26 26 27 28 28 29 29 29 28 27 27 26 25 25 26 25 24 25 26 27
21 21 26 28 27 25 25 27 28 31 32 32 31 28 26 26 26 25 23 23 23 24 25 25 26 26 26 26 26 26 27 28 29 30 30 30 30 29 28 27 27 27 26 26 26 25 26 26 27
23 22 26 30 30 27 26 27 29 30 29 29 29 28 27 27 27 25 25 25 26 27 27 27 26 27 27 27 27 27 28 29 30 31 31 31 31 30 28 28 28 28 27 26 26 26 26 25 25
19 21 22 24 24 23 23 25 26 26 24 24 25 26 26 26 25 24 25 26 27 27 28 27 27 27 28 28 29 30 31 32 32 32 32 31 30 29 29 29 29 29 28 27 27 26 25 25 25
17 17 18 18 18 19 20 20 21 21 20 21 22 23 23 23 23 23 24 25 26 25 25 25 26 27 28 30 31 32 34 34 34 34 33 32 31 30 30 30 30 30 30 29 27 27 25 25 24
15 15 15 15 15 16 18 17 18 18 18 18 19 20 21 21 21 21 22 23 23 23 24 25 26 28 30 32 33 35 36 36 36 35 35 34 33 33 32 31 31 31 31 30 29 27 26 25 24
9 8 9 10 12 15 17 18 19 19 18 17 18 18 19 18 18 19 20 22 23 24 25 27 29 31 32 34 35 36 37 37 37 36 36 36 35 34 33 32 32 32 32 31 30 28 26 25 25
4 5 6 9 10 13 17 19 19 17 16 15 15 16 15 15 16 18 20 21 23 25 28 30 31 33 34 36 37 37 38 38 38 37 36 35 35 34 34 34 34 33 33 33 31 29 27 26 25
5 8 9 10 11 12 13 14 16 16 13 10 10 11 11 13 15 17 19 21 23 26 28 31 33 34 36 37 37 38 37 37 37 37 36 35 35 35 35 35 35 35 34 34 33 32 29 28 26
6 10 11 13 13 14 14 14 12 8 7 5 6 6 8 10 13 15 18 21 23 25 28 30 31 33 34 35 35 36 35 35 35 36 35 35 34 35 35 35 36 36 35 35 35 34 32 31 29
6 10 12 14 15 17 19 20 17 8 4 2 3 3 6 9 12 14 17 19 21 23 25 26 28 30 31 32 33 34 34 35 34 35 35 34 33 33 33 33 34 35 35 35 35 35 34 33 32
8 10 12 14 16 20 20 19 12 6 6 5 5 4 6 9 12 14 17 19 21 23 24 26 27 29 30 31 32 33 33 34 34 34 34 35 35 34 34 33 32 32 33 33 34 34 34 34 34
10 11 12 13 14 17 16 13 7 6 5 6 6 7 9 11 14 17 19 21 23 24 25 26 27 28 30 31 32 33 34 34 35 35 35 36 36 36 35 34 32 31 31 31 31 32 33 34 35
8 9 10 10 11 14 13 12 9 6 7 7 8 10 13 16 19 21 23 24 26 27 27 28 29 29 31 32 33 35 35 36 37 37 37 37 37 37 37 35 33 32 31 30 30 30 30 31 33
6 8 8 8 9 10 12 13 11 7 7 9 11 14 17 21 24 26 28 29 30 31 31 31 31 32 33 34 35 36 37 37 38 38 38 38 38 38 38 38 36 34 32 30 30 31 31 31 31
6 9 9 8 9 8 9 9 9 7 8 12 15 18 21 24 27 29 31 33 34 35 35 35 35 35 35 36 36 37 38 38 39 39 39 39 39 39 40 40 39 37 35 33 32 32 33 34 33
9 9 8 8 8 7 8 9 10 9 11 15 19 22 24 26 29 32 34 35 37 37 37 37 37 37 37 37 37 38 38 38 38 39 39 40 40 41 40 41 41 41 39 37 36 34 35 36 36
12 10 7 5 7 8 9 10 13 13 16 19 22 23 25 27 30 33 35 37 38 38 38 38 38 38 38 38 38 38 38 38 39 40 40 41 42 42 42 42 42 42 41 41 40 39 38 38 39
9 8 7 6 7 9 12 15 16 17 18 20 22 24 26 28 30 33 36 37 38 39 39 39 39 38 38 38 38 39 39 40 41 42 42 43 43 42 42 42 41 41 42 42 42 42 42 41 41
8 9 8 9 10 12 16 19 18 19 20 22 24 25 27 29 31 33 36 37 38 39 39 38 38 38 39 39 39 40 41 42 43 44 44 43 43 42 41 41 41 41 41 42 43 44 44 44 44

GEFSSGP_500_meanwind_036.txt.gz
Wind_Speed
4 4 5 5 4 5 4 4 5 7 10 11 12 12 11 10 9 8 7 7 6 5 5 5 5 5 6 6 6 7 7 7 7 7 7 7 7 7 7 8 9 9 10 10 10 9 8 8 7
7 7 7 8 8 8 7 6 5 7 8 9 11 12 12 11 10 8 7 6 5 5 5 5 5 6 6 7 7 8 8 8 9 9 9 10 10 10 10 11 11 12 13 14 14 13 12 11 9
8 8 9 11 12 11 9 8 6 6 7 8 11 12 13 11 11 9 9 8 7 7 6 6 6 7 8 8 8 9 9 10 10 10 11 11 12 12 12 12 13 14 15 16 17 16 16 15 13
9 10 11 13 14 13 11 10 9 7 7 7 10 13 13 13 13 12 11 10 9 9 8 8 8 9 9 10 10 10 11 11 11 11 12 12 13 13 14 14 14 15 16 17 18 18 18 18 17
11 12 14 15 17 14 12 11 11 10 8 8 11 13 14 14 14 14 12 11 11 11 10 10 10 10 11 11 12 12 13 12 12 13 13 13 13 14 14 15 15 16 17 18 18 19 19 20 20
14 15 16 18 19 17 15 13 13 11 9 10 12 15 15 14 14 14 13 12 11 12 11 11 12 12 12 12 12 13 13 13 13 13 14 14 14 15 15 16 17 18 19 20 20 21 21 21 21
16 17 18 22 22 20 18 16 15 13 12 12 13 16 16 16 16 14 13 13 12 12 13 13 13 13 13 13 14 14 14 14 15 15 15 15 16 17 18 19 20 20 21 21 21 21 22 22 22
18 19 21 25 25 24 22 20 18 15 15 14 15 17 19 18 17 15 14 15 15 15 15 15 15 15 15 15 16 16 16 17 17 17 17 18 18 19 20 21 22 22 23 23 22 22 23 23 23
19 21 24 27 27 26 25 23 21 20 18 18 18 19 20 18 17 16 15 16 17 18 19 19 18 18 19 18 18 19 19 19 19 19 20 20 21 21 22 22 23 24 24 23 22 22 21 22 22
21 21 27 31 31 30 28 27 25 24 22 21 21 22 21 20 19 18 17 19 20 21 21 21 21 20 21 21 21 21 22 21 21 21 21 22 22 23 23 24 25 25 24 23 23 23 23 22 22
23 23 30 34 35 34 32 30 29 28 27 25 24 24 24 24 23 22 20 20 20 21 22 23 22 22 23 23 23 24 23 22 23 23 23 23 24 24 24 25 26 26 25 24 23 23 24 23 23
25 26 29 34 36 37 35 34 32 31 30 29 28 26 26 27 25 22 21 19 19 20 21 22 24 25 24 25 25 24 22 22 23 23 24 25 26 26 26 27 27 27 26 25 24 23 24 23 23
24 25 27 31 34 36 36 36 34 33 32 32 30 29 28 27 23 21 19 19 19 19 20 21 23 24 24 24 23 24 23 23 24 26 27 27 27 28 28 28 28 27 27 26 25 24 24 24 24
19 21 23 27 30 33 35 35 35 33 33 32 31 29 27 24 21 19 18 18 18 19 19 20 21 22 24 24 24 25 25 26 27 28 28 28 28 29 29 29 29 29 29 28 27 27 26 26 25
15 17 20 23 26 28 32 32 33 32 32 30 29 27 25 23 20 18 17 17 17 17 18 19 21 23 25 26 26 27 28 28 28 28 29 29 30 31 31 31 31 31 31 30 29 28 28 27 26
12 14 16 18 20 23 25 26 27 28 27 27 26 25 24 22 19 17 16 15 17 18 19 21 22 24 25 26 27 28 28 29 29 29 30 30 31 31 31 31 31 32 31 31 31 30 29 28 27
9 10 11 12 15 17 19 21 22 24 24 24 24 22 21 20 18 16 15 15 17 18 20 21 23 24 26 27 28 29 29 30 29 29 30 30 30 31 31 31 32 32 32 32 32 31 30 30 29
6 7 9 9 10 13 15 17 18 20 20 20 19 19 18 17 16 15 15 15 17 19 20 22 24 25 27 28 28 29 29 30 30 30 30 30 30 31 31 32 32 32 32 33 32 32 31 31 31
5 6 7 7 7 9 11 12 14 16 17 17 16 14 13 12 12 13 14 15 17 19 21 22 24 26 27 28 29 29 29 30 30 30 30 29 29 30 30 31 31 32 33 33 34 33 33 32 32
5 4 4 5 6 7 7 8 11 11 11 11 10 9 8 8 9 11 13 15 17 19 21 23 25 26 27 28 28 29 29 29 29 29 29 29 29 29 29 30 31 31 32 32 33 33 33 33 33
4 3 3 5 4 4 6 5 7 5 3 4 4 3 3 5 7 10 13 16 18 20 21 23 24 26 27 28 29 29 30 30 30 30 30 30 30 30 29 30 31 31 31 32 32 32 33 33 34
3 3 3 4 4 5 4 4 2 2 3 3 2 1 2 4 7 10 12 15 16 18 20 21 23 24 25 26 27 28 29 29 30 31 31 31 31 30 30 30 31 31 31 32 32 32 32 33 34
5 4 4 3 4 4 4 3 2 2 3 3 2 1 3 5 7 9 12 14 16 17 18 20 21 22 23 24 25 26 26 27 28 29 30 30 30 30 30 30 31 31 32 32 32 32 32 33 33
6 5 3 2 2 3 4 4 3 3 2 1 1 2 4 5 7 10 12 14 15 17 19 20 22 22 23 24 25 25 25 26 27 27 28 29 29 30 30 31 31 32 33 33 34 34 34 34 33
7 7 5 3 3 2 1 2 2 1 1 2 3 4 5 7 9 11 12 14 16 18 20 22 23 24 24 25 26 26 26 26 27 27 28 29 30 31 32 33 34 35 35 36 36 36 36 36 35
8 9 8 6 4 4 4 3 4 4 5 6 7 7 8 9 11 12 14 15 17 19 22 23 25 26 26 27 27 27 27 27 28 29 30 31 32 33 35 36 37 37 38 38 38 38 38 38 38
9 9 9 7 5 5 5 5 6 8 9 10 10 10 10 11 12 13 15 17 19 21 24 26 27 28 29 29 29 30 30 30 31 32 32 33 34 35 37 38 39 40 40 39 39 39 39 39 39
9 10 9 8 6 5 5 6 8 10 12 12 12 12 12 13 14 15 17 19 22 24 26 29 30 30 31 31 32 33 33 34 34 35 36 37 38 38 39 39 40 40 40 40 39 39 39 39 40
10 10 11 10 9 7 6 6 9 10 11 12 13 13 14 15 16 18 20 22 24 26 29 30 31 32 32 33 34 35 36 36 37 38 39 39 40 40 40 40 39 39 39 39 38 38 38 38 38
11 11 12 11 9 8 8 7 9 11 12 13 14 15 17 18 19 20 22 24 26 28 30 31 32 33 34 35 36 37 38 38 39 40 41 42 42 42 41 40 40 39 38 37 36 37 37 37 37

GEFSSGP_500_meanwind_042.txt.gz
Wind_Speed
7 6 6 5 4 4 5 6 6 4 3 2 2 3 4 5 5 4 5 5 5 4 4 4 4 4 5 5 5 5 5 4 4 4 4 4 4 5 5 6 6 7 7 8 8 8 8 7 5
9 9 9 8 7 7 9 8 8 6 5 3 2 2 3 4 4 4 4 5 5 5 6 7 7 7 8 8 8 7 7 6 6 6 6 6 6 6 7 7 8 8 9 9 10 10 10 9 8
12 13 13 12 11 12 12 11 10 8 6 5 2 1 1 2 3 3 4 5 6 7 8 9 10 10 10 10 9 9 8 8 7 7 7 7 7 8 8 8 8 8 9 10 10 11 11 11 11
15 16 17 16 16 15 14 13 12 10 9 7 5 3 2 2 3 4 5 6 7 9 10 11 12 12 12 11 11 10 10 9 9 8 8 8 8 9 9 9 9 9 9 9 10 11 12 12 12
17 19 20 20 20 18 16 15 14 13 11 8 7 5 4 4 5 6 6 8 9 10 12 13 13 13 14 14 13 12 11 10 10 10 9 9 9 9 9 10 10 10 11 11 11 12 13 13 13
19 20 21 22 24 21 20 17 16 15 13 11 9 8 6 6 7 7 8 9 11 13 14 15 16 16 15 16 15 15 14 13 12 12 11 11 11 11 11 11 12 12 12 13 13 13 14 14 14
20 22 24 26 26 24 22 20 18 17 16 15 12 11 9 8 9 10 11 12 14 15 17 18 19 19 18 18 18 18 17 16 15 14 14 13 13 13 13 13 13 14 14 14 15 15 15 15 15
23 24 25 27 27 27 25 23 21 20 19 18 16 15 14 13 13 13 14 15 17 18 20 21 22 22 22 21 21 22 21 20 19 19 18 17 16 16 15 14 15 15 15 15 15 15 15 15 16
25 25 25 27 29 29 27 25 24 23 22 21 19 19 19 18 18 18 19 19 20 21 22 23 23 24 25 24 25 25 25 24 23 22 22 20 19 18 17 16 15 16 16 16 16 16 16 16 16
25 26 27 29 29 29 28 27 25 25 25 24 22 23 22 21 22 22 23 23 23 24 24 25 25 26 26 26 26 26 26 25 25 24 23 22 21 21 19 18 18 18 18 18 18 18 17 17 17
24 26 27 27 28 28 27 26 25 25 26 25 24 25 25 25 25 25 25 24 24 24 24 24 25 26 27 26 26 25 24 23 22 22 22 22 23 22 20 21 21 21 21 20 20 20 19 18 18
19 21 24 24 25 26 26 26 25 26 25 25 26 26 27 27 27 27 26 25 24 23 24 24 24 25 24 24 24 22 21 20 21 20 20 20 21 22 22 23 23 23 23 22 22 22 21 20 20
12 15 18 20 21 22 23 23 25 26 26 26 26 27 27 27 27 26 25 24 23 23 23 22 21 21 21 21 21 20 20 20 20 20 20 21 22 23 24 24 25 25 25 25 24 24 23 23 22
7 9 12 14 15 17 18 19 21 22 24 25 26 27 27 27 26 25 23 23 22 21 21 20 19 19 19 19 19 20 20 20 20 21 22 23 24 25 25 26 26 26 26 26 26 26 26 25 24
6 5 6 8 11 12 13 15 16 19 21 22 24 25 25 24 23 22 21 20 18 17 17 16 15 16 17 17 18 19 20 21 22 22 23 24 25 25 26 26 26 26 26 27 27 27 26 26 25
7 5 5 6 8 9 10 13 15 17 18 20 21 22 22 22 21 20 18 16 14 14 14 13 14 15 15 17 18 19 20 20 21 22 22 23 24 24 25 25 25 25 26 26 26 27 27 26 26
9 5 5 7 8 9 10 12 14 16 18 19 20 20 20 19 18 17 14 12 12 11 12 12 13 14 15 16 17 18 19 20 20 21 22 22 23 23 24 24 24 25 25 26 26 26 26 26 26
5 5 7 9 9 9 10 12 13 15 17 17 18 19 17 16 14 12 11 9 9 9 9 10 12 13 14 15 16 17 18 19 19 20 20 21 22 22 23 23 24 25 25 25 25 26 26 26 26
6 7 9 10 10 10 11 13 14 15 16 15 16 15 14 12 10 9 6 5 6 7 8 10 12 13 15 16 17 18 19 19 19 19 20 20 21 21 22 23 23 24 25 25 25 25 25 26 26
7 8 10 11 11 11 13 13 15 13 12 12 11 9 9 7 6 4 2 3 5 7 9 11 13 15 16 17 18 19 20 20 20 20 19 19 20 21 21 22 23 24 24 25 25 25 26 26 26
8 8 10 11 10 11 12 12 12 9 5 4 4 3 2 0 1 1 2 4 7 9 12 13 15 16 18 18 18 19 19 19 19 19 19 18 18 19 20 21 22 23 23 24 24 25 26 27 27
8 8 9 9 9 11 11 11 11 8 5 4 3 3 3 3 3 3 4 6 9 11 13 15 16 17 17 18 18 18 18 18 18 18 17 17 17 17 18 19 19 21 22 23 24 25 26 27 27
8 8 8 8 8 9 10 9 9 6 6 5 5 5 4 4 4 5 7 9 11 13 15 16 16 17 17 17 17 17 18 18 18 18 17 17 17 17 18 18 19 20 22 23 24 25 27 28 29
8 8 8 8 7 9 8 7 7 5 5 4 4 5 5 6 7 8 10 11 13 15 16 16 17 17 17 18 18 18 18 19 19 19 19 18 18 18 19 20 21 22 23 24 26 27 29 30 31
8 7 8 8 7 10 8 6 6 5 5 5 5 6 7 8 10 11 12 13 15 16 17 17 18 18 18 18 18 18 19 20 20 20 20 20 20 20 21 22 23 24 25 26 28 29 30 31 33
8 7 5 4 6 9 9 8 8 7 7 7 8 9 9 10 12 13 14 15 17 17 18 18 19 19 19 19 19 20 21 22 22 22 22 23 23 24 25 26 26 27 27 29 30 31 32 33 34
9 7 7 6 6 6 8 10 10 10 10 10 11 11 11 12 14 15 16 17 18 18 19 19 20 20 20 21 21 22 23 23 24 24 25 25 26 27 28 29 30 30 31 31 32 33 33 34 35
9 9 7 5 5 5 9 10 12 13 13 13 13 13 13 14 15 16 17 18 18 19 19 20 20 20 21 22 23 24 25 25 26 27 27 28 28 29 30 32 33 34 34 35 35 35 35 35 36
11 10 8 7 7 4 6 10 14 13 14 14 14 14 14 15 16 16 17 17 18 19 19 20 20 21 22 23 25 26 27 27 28 29 29 30 31 32 33 34 36 37 37 38 38 37 37 36 36
11 11 10 8 10 9 7 10 15 15 15 14 14 14 14 14 15 16 17 17 18 19 19 20 21 22 24 25 27 28 28 29 30 31 32 33 34 36 37 38 39 40 41 41 40 39 38 37 36

GEFSSGP_500_meanwind_048.txt.gz
Wind_Speed
8 7 7 6 6 7 4 6 3 9 8 7 7 8 6 4 5 3 2 2 2 4 5 5 6 7 8 9 9 9 9 9 9 9 9 9 9 9 9 9 10 10 10 10 9 9 9 8 8
10 9 9 8 8 11 13 2 4 10 10 9 8 7 6 5 5 5 3 3 3 5 6 7 8 9 10 11 11 11 11 11 11 11 11 11 10 10 11 11 11 11 10 10 10 10 10 9 9
13 12 12 11 8 11 17 8 9 12 12 11 10 8 7 6 5 4 4 5 5 6 8 9 10 12 12 12 13 12 12 12 12 12 12 12 11 11 11 12 11 11 11 11 11 10 10 10 10
15 15 14 13 9 12 18 15 18 15 13 13 12 9 7 7 6 5 5 6 6 8 9 10 12 13 14 14 14 14 13 13 12 12 12 12 12 12 11 11 11 11 11 11 11 11 11 11 11
17 17 16 15 12 17 20 21 19 17 17 13 13 9 6 6 5 6 6 7 7 9 11 12 13 14 15 16 16 15 15 14 14 13 13 13 13 13 13 12 12 12 12 12 13 13 13 13 13
20 19 19 14 15 22 20 20 18 19 20 16 14 10 7 5 5 6 7 9 9 11 13 14 15 16 17 18 18 18 17 17 17 16 16 15 15 15 15 15 14 14 14 14 14 14 14 14 14
23 22 20 16 16 23 23 19 19 21 22 20 15 11 9 7 7 7 9 11 12 13 14 16 17 18 19 20 21 21 21 21 20 20 20 19 19 18 18 17 17 17 17 16 16 15 15 15 15
24 24 22 17 16 22 24 23 26 23 22 19 15 12 10 9 9 10 11 12 14 15 16 17 18 20 20 22 22 22 23 23 23 23 23 23 22 21 20 20 19 19 18 17 17 17 16 16 15
22 23 20 15 17 25 28 25 25 21 21 20 19 17 13 12 12 12 14 15 16 17 18 19 19 20 21 22 23 24 24 24 24 24 24 24 24 23 21 19 19 19 19 19 18 18 18 17 17
17 19 17 19 23 27 28 24 21 20 21 20 18 17 15 14 15 15 17 18 19 20 20 21 20 21 22 22 23 24 24 24 23 23 23 21 20 20 19 19 19 19 19 19 18 19 19 19 18
12 16 20 23 26 28 26 25 23 21 23 22 13 12 16 16 17 18 19 20 20 20 21 21 20 20 20 20 22 23 24 23 21 20 19 18 17 17 18 18 18 18 18 19 19 19 19 20 19
8 12 17 21 22 23 24 25 21 22 26 20 13 12 14 16 18 20 20 20 20 20 21 20 20 18 18 19 20 21 20 20 19 19 18 18 17 17 17 18 18 18 18 19 19 20 20 19 18
7 8 10 13 14 16 19 20 20 22 25 24 20 16 16 17 20 20 21 20 21 20 19 19 18 17 18 18 18 18 17 18 18 19 20 20 19 19 19 19 19 20 20 20 20 21 21 21 20
4 5 6 6 7 10 12 14 18 22 21 20 14 16 17 19 20 20 20 20 20 18 18 17 16 16 15 16 17 16 16 17 17 18 19 20 20 20 21 20 20 20 20 20 21 21 21 21 21
5 3 3 2 3 5 8 13 17 19 16 18 17 17 17 19 19 19 19 19 18 16 16 15 14 13 13 13 14 14 15 16 17 17 18 20 20 21 21 21 21 21 21 21 21 22 21 21 21
12 12 8 5 2 3 9 15 17 13 14 15 17 18 18 18 18 17 17 17 15 15 14 12 11 11 11 12 13 14 14 15 16 17 18 20 20 21 21 21 21 22 22 22 22 22 21 21 21
17 18 16 11 7 7 13 15 13 13 13 12 15 16 17 16 15 15 15 15 13 13 12 10 9 9 10 11 12 13 14 15 15 16 17 18 19 20 20 20 21 21 21 21 22 22 22 22 22
16 18 17 14 9 8 13 16 13 11 10 12 12 15 15 14 14 13 12 10 10 9 8 6 7 8 8 10 11 12 13 14 15 15 17 17 18 19 19 19 20 20 20 20 20 21 22 22 22
11 14 15 13 9 9 11 14 15 13 11 11 11 12 11 12 11 10 8 7 6 5 4 4 5 6 8 10 10 11 12 13 14 15 16 17 17 17 18 18 18 18 18 18 19 20 21 21 21
12 14 14 12 11 11 11 9 12 13 11 8 8 8 8 9 8 8 6 4 2 1 2 4 5 6 8 9 10 12 13 14 15 16 16 17 17 17 17 17 17 17 17 17 18 18 19 20 20
15 13 13 13 12 12 12 10 13 12 11 9 5 2 3 4 3 3 2 2 0 1 3 4 6 7 9 10 11 13 14 15 15 16 16 17 17 17 17 17 17 16 16 17 17 18 19 19 20
16 15 11 10 12 12 11 11 14 12 9 8 8 6 5 5 4 3 3 1 1 2 5 6 8 9 10 12 13 15 16 16 17 17 17 18 18 18 18 17 17 17 17 18 18 19 20 20 21
11 11 9 11 12 12 9 9 11 10 8 8 8 8 7 7 5 3 2 1 3 5 7 8 10 11 12 14 15 17 17 18 18 19 19 19 19 18 19 19 19 19 20 20 21 21 21 22 22
8 7 13 14 11 9 8 8 9 10 10 7 6 5 5 4 3 2 3 4 6 7 9 10 11 12 14 15 17 18 19 20 21 22 22 22 21 20 20 21 22 22 22 23 24 24 24 24 25
11 8 15 20 16 12 10 6 10 11 9 7 5 4 4 4 4 5 6 7 8 9 11 12 12 14 15 17 18 19 20 21 22 23 23 23 23 23 22 23 23 24 25 26 27 27 27 28 28
12 7 11 13 16 12 6 8 13 11 10 9 7 6 6 6 6 7 8 9 10 11 12 13 13 14 16 17 19 20 21 21 22 22 23 23 23 24 24 24 25 26 27 28 28 29 30 31 32
9 8 9 7 9 10 3 7 11 9 10 11 11 9 8 8 9 9 10 10 11 12 13 13 14 15 16 18 19 20 21 22 22 23 23 23 24 24 25 25 26 28 29 30 31 32 33 35 35
10 9 8 5 6 11 9 7 11 11 14 14 13 12 10 10 11 12 12 12 13 13 14 14 15 16 17 18 19 20 21 22 22 23 23 24 24 25 26 27 28 30 31 32 34 35 37 38 38
12 11 9 8 8 8 14 13 9 13 17 18 18 15 14 14 14 14 14 15 15 15 15 15 16 17 18 19 21 22 22 22 22 23 24 24 25 26 28 30 31 33 34 35 36 37 38 39 40
9 9 11 10 11 9 9 14 11 13 19 20 19 18 17 17 17 18 17 16 17 17 16 16 17 18 19 20 22 23 24 24 24 24 25 26 27 28 31 33 34 36 36 37 38 39 40 40 40

GEFSSGP_500_meanwind_054.txt.gz
Wind_Speed
11 11 11 10 10 9 10 11 12 10 6 2 3 4 3 3 1 1 2 4 4 5 5 5 5 4 3 2 1 2 3 3 4 5 6 7 7 8 9 9 9 10 10 10 10 10 10 9 7
14 13 13 12 11 9 11 12 12 11 8 4 2 3 1 1 1 2 3 4 3 4 4 4 3 3 2 1 2 2 3 4 5 6 7 8 8 9 10 10 10 11 11 11 11 11 11 10 9
16 15 14 13 12 10 12 13 13 13 10 6 2 3 3 3 3 3 3 3 3 3 3 2 2 2 2 2 2 3 4 5 6 7 8 8 9 10 10 11 11 11 12 12 12 12 12 11 10
19 18 16 14 12 12 13 15 14 17 15 9 6 5 5 6 5 4 3 3 3 3 2 1 1 2 3 4 4 5 6 6 7 8 9 10 10 11 12 12 13 13 13 13 13 13 13 12 11
20 19 17 15 14 15 17 17 18 21 21 17 10 8 6 6 7 6 4 3 2 1 1 2 3 4 5 6 7 7 8 9 10 10 11 11 12 13 14 14 14 15 15 15 14 14 14 14 13
21 21 18 15 14 17 20 20 22 25 24 20 17 12 9 8 6 6 5 3 2 1 3 4 5 7 8 9 10 10 11 12 12 13 14 14 15 16 16 17 17 17 17 17 17 16 16 16 15
21 21 19 16 16 18 19 21 23 26 25 23 20 14 11 10 10 8 7 4 2 3 5 6 7 9 10 11 12 13 14 14 15 16 17 17 18 18 18 19 19 19 19 19 19 19 18 18 17
19 19 18 18 20 21 20 21 23 25 27 26 23 16 11 11 10 9 8 5 4 5 7 8 9 10 12 13 14 15 16 16 18 18 19 19 18 19 19 20 19 19 19 19 19 19 19 19 19
16 16 16 19 21 22 22 23 24 26 26 26 24 21 18 16 13 11 9 7 5 6 8 9 10 11 13 14 16 16 17 17 18 19 19 19 19 18 17 17 17 17 17 17 18 18 18 18 19
12 13 14 17 21 23 24 25 26 27 26 25 24 24 21 17 15 13 9 7 7 8 10 11 12 13 14 15 15 15 16 17 18 18 18 17 16 15 15 15 15 15 15 15 15 16 16 17 18
8 8 10 13 17 20 23 25 27 28 26 26 26 24 20 16 15 13 10 8 8 10 11 12 13 14 14 15 14 14 15 16 17 16 15 15 14 14 15 15 15 15 15 15 15 15 16 17 17
8 6 6 8 12 16 20 21 23 25 25 26 25 22 19 17 15 12 11 10 10 11 12 12 12 13 14 13 13 13 14 14 14 13 13 13 13 13 14 14 15 15 16 15 15 15 16 16 16
12 11 9 10 12 13 15 17 20 21 21 21 20 19 16 14 13 11 10 10 9 10 11 11 12 12 11 11 11 11 11 11 11 11 11 11 12 12 12 13 14 15 15 15 15 15 15 15 16
13 13 12 12 13 13 11 13 15 16 18 20 20 18 16 13 13 11 11 10 10 10 10 10 10 10 8 8 9 8 8 8 9 8 9 9 10 11 12 12 13 13 14 14 14 15 15 16 16
13 14 14 14 13 13 11 11 13 15 15 15 15 16 14 13 12 12 12 10 9 9 8 8 8 7 6 7 7 6 6 7 7 8 8 9 9 9 10 11 12 12 13 13 14 14 15 16 16
12 15 17 15 14 14 12 11 14 14 13 9 10 13 12 12 13 12 10 9 7 7 7 6 6 6 5 5 5 4 5 6 7 7 8 8 9 9 9 9 10 10 11 12 12 13 14 15 16
15 18 18 17 16 14 13 13 15 14 11 10 9 8 8 10 11 11 9 7 5 5 5 4 4 3 3 3 4 4 4 5 6 7 7 8 8 9 9 9 9 10 10 11 12 12 13 14 15
19 20 19 18 16 15 14 14 14 13 11 8 5 5 6 8 9 9 8 6 5 4 3 2 2 1 1 2 3 3 3 4 5 6 7 8 8 8 9 9 9 9 9 9 10 11 12 12 13
19 18 18 18 17 16 16 15 14 14 11 9 4 1 5 8 7 8 7 6 5 4 3 2 2 1 1 2 2 2 3 4 5 6 7 8 9 9 10 9 9 9 9 10 10 11 11 12 12
17 17 18 18 18 16 16 14 12 12 11 10 6 3 5 7 7 8 7 6 5 4 3 2 2 1 0 1 2 2 3 4 6 7 8 9 10 11 11 11 10 10 10 10 11 11 11 11 12
15 16 18 19 17 15 14 13 11 10 10 10 9 8 7 8 9 10 8 7 6 5 4 3 2 1 0 1 2 3 4 5 6 8 9 10 11 11 11 12 12 12 12 12 12 13 13 13 13
14 15 16 17 16 15 13 10 11 10 9 11 11 10 9 9 9 9 8 8 6 4 3 2 1 1 1 2 3 4 5 6 7 8 10 11 12 13 13 13 13 14 14 14 15 15 16 16 16
13 14 14 14 14 13 10 9 10 10 9 11 11 11 10 9 8 8 8 6 5 3 3 2 1 1 2 3 4 4 6 7 8 9 11 12 13 14 14 15 16 16 16 16 16 17 18 18 19
12 13 12 12 12 10 7 7 8 8 8 8 9 9 9 9 8 7 6 5 3 2 2 2 2 2 3 3 4 5 7 8 9 11 12 12 13 14 15 16 17 17 17 18 18 18 19 20 20
12 12 12 11 10 9 5 5 5 6 6 6 6 6 6 6 5 5 4 3 2 2 3 3 3 3 4 4 5 7 8 9 11 12 12 13 14 15 16 16 17 17 18 19 19 20 21 21 22
11 11 11 11 11 11 7 4 2 4 4 4 4 3 3 3 2 2 1 2 2 3 4 4 4 4 5 5 7 8 9 11 12 13 13 14 14 15 16 16 17 18 19 21 22 23 24 24 25
13 12 12 12 12 11 7 4 2 2 2 2 2 2 2 2 2 2 2 2 3 4 4 5 5 6 6 7 9 10 11 12 13 14 14 15 15 16 17 17 18 20 21 22 23 25 26 26 27
17 15 12 11 13 12 9 6 5 4 3 1 1 1 1 1 2 3 4 4 5 5 6 6 7 7 8 9 11 12 13 14 15 16 17 17 18 19 20 20 21 22 23 24 26 28 29 29 30
18 17 13 12 13 13 12 10 9 8 7 5 3 2 1 1 2 4 4 5 6 6 7 7 8 9 10 11 13 14 15 16 18 18 19 20 21 22 23 24 25 25 26 27 29 30 32 32 33
16 16 15 13 12 13 14 13 11 11 9 8 6 5 4 4 4 4 4 5 6 7 8 9 10 11 13 14 16 17 18 19 20 21 21 22 23 24 25 25 26 28 28 29 30 31 34 35 35

GEFSSGP_500_meanwind_060.txt.gz
Wind_Speed
12 12 12 12 13 14 14 14 13 11 8 7 6 7 9 10 10 9 8 7 7 6 6 6 6 5 4 4 3 3 2 2 1 1 2 3 4 4 5 5 6 6 7 7 8 7 7 7 6
15 14 14 14 15 16 17 17 15 14 13 11 8 7 9 11 10 9 10 8 7 7 7 7 6 5 4 3 2 2 1 1 1 3 4 5 5 6 6 6 7 7 7 8 8 8 8 7 6
18 17 16 16 17 18 19 19 18 17 14 12 9 8 8 10 10 11 10 9 8 9 9 8 6 5 3 2 1 0 1 2 3 4 5 6 7 7 8 8 9 9 9 9 9 8 8 8 7
19 18 18 19 20 21 21 21 21 19 17 15 13 10 8 8 10 10 10 10 10 10 9 8 6 5 3 2 1 1 2 3 4 6 7 8 9 9 10 10 11 11 12 12 11 10 9 8 8
19 19 20 21 23 23 23 23 22 21 19 17 15 12 9 8 9 9 10 11 12 12 10 8 6 4 3 2 2 3 4 5 6 8 9 10 11 12 12 13 13 14 14 14 13 12 11 10 9
20 20 21 22 25 25 26 25 24 22 20 19 17 13 10 9 10 11 12 13 14 13 11 8 6 5 4 4 4 5 6 7 9 10 11 12 13 14 15 15 15 16 17 17 16 14 13 12 11
19 20 21 22 24 26 27 26 25 24 22 20 18 14 10 9 10 12 14 15 15 14 11 9 7 6 5 6 7 8 9 10 12 13 13 14 15 16 17 17 17 17 18 17 16 15 14 13 12
18 19 19 20 21 24 25 25 25 25 23 21 18 14 11 9 10 13 16 17 15 14 12 9 8 7 7 8 9 10 11 12 13 14 14 15 16 17 17 17 17 17 17 16 16 16 14 13 12
16 16 16 16 17 19 21 22 23 23 22 21 18 15 12 11 11 13 16 17 16 15 13 10 9 8 9 10 11 12 13 13 14 14 15 16 17 17 16 16 16 15 15 15 16 15 13 13 11
14 14 14 14 14 15 17 19 21 21 19 19 18 16 13 12 13 14 17 17 17 17 15 12 10 9 10 11 12 13 13 13 14 14 15 15 16 16 16 15 15 14 14 14 14 13 13 13 12
12 12 12 12 13 13 15 16 17 17 17 18 17 16 15 14 15 17 19 19 19 19 16 14 11 11 11 12 13 13 13 13 14 14 15 15 15 15 14 13 14 14 14 14 14 14 14 13 12
10 10 11 12 13 14 14 15 14 15 16 15 15 16 15 15 15 16 18 19 20 19 17 14 12 11 11 12 12 12 12 12 13 13 13 13 13 13 12 12 12 12 13 13 13 13 13 13 13
10 11 12 13 13 13 14 14 14 14 14 14 14 15 15 15 15 17 18 20 20 18 17 14 12 11 11 11 10 10 11 11 11 11 11 11 10 10 10 10 10 11 12 12 12 13 13 13 12
11 12 13 13 14 14 14 14 15 15 14 14 14 14 15 16 16 19 20 20 19 18 16 14 12 10 10 9 8 8 9 9 9 8 8 8 8 8 8 9 9 10 10 11 11 11 12 12 13
12 12 13 14 15 15 14 15 15 16 14 13 13 13 14 15 17 18 21 20 18 16 14 13 11 9 7 7 7 7 7 7 7 7 7 7 7 7 7 7 8 8 9 9 10 10 11 11 12
11 11 13 14 15 16 16 17 17 17 15 12 10 10 11 14 16 17 18 19 16 14 13 11 9 8 7 6 6 5 5 5 5 5 5 5 6 6 6 6 6 7 8 8 9 9 9 10 11
11 11 12 14 15 16 17 18 18 17 15 11 10 9 9 12 14 16 17 17 15 14 13 11 9 8 6 5 5 4 3 4 3 3 4 4 5 6 6 6 6 7 7 7 8 8 9 10 10
12 11 12 15 16 17 18 18 18 17 14 11 8 7 8 11 13 14 16 16 15 14 12 10 9 8 6 5 3 3 3 3 3 4 4 5 5 6 6 6 7 7 7 7 7 8 8 9 10
13 13 13 14 15 16 17 17 16 14 11 10 7 3 6 10 12 13 16 17 15 14 12 10 8 7 6 4 3 3 3 3 3 4 4 5 5 6 6 6 7 7 7 7 8 8 9 9 10
13 13 13 13 15 15 15 15 14 11 10 9 7 2 5 8 10 13 15 15 14 13 11 9 8 7 6 4 3 2 3 3 4 4 4 5 5 6 6 7 7 8 8 8 9 9 10 10 10
12 13 13 13 14 14 14 14 13 10 9 8 6 5 5 7 10 12 13 15 14 12 11 10 8 7 6 4 3 3 3 3 3 4 4 5 6 6 7 7 8 9 9 8 8 9 9 10 11
12 13 13 13 13 13 13 13 12 9 7 6 6 6 6 8 9 11 14 14 13 12 10 9 8 6 5 4 4 4 3 3 3 3 4 5 5 6 7 7 8 8 9 9 9 9 9 10 11
13 13 13 13 13 12 12 12 10 8 7 6 5 5 6 6 8 10 13 12 12 11 9 8 7 6 5 5 5 4 4 4 4 4 4 5 6 6 7 7 8 8 8 9 10 10 11 11 12
13 13 12 12 12 11 11 10 9 7 6 5 4 4 4 4 6 8 10 10 10 9 8 7 6 6 6 6 5 5 5 4 4 4 5 5 6 6 7 7 8 8 9 10 11 12 13 13 14
13 13 13 12 12 11 10 9 8 6 6 5 3 2 2 3 5 6 7 8 8 7 7 7 7 7 7 7 6 6 5 5 5 5 5 6 7 7 8 9 10 11 11 12 13 13 15 15 16
15 14 15 15 14 12 9 8 7 6 6 6 4 3 1 2 4 5 6 7 7 7 7 8 8 8 8 8 7 6 6 6 6 7 7 8 9 10 11 12 13 14 15 15 16 17 18 18 19
16 15 16 16 15 12 9 7 7 7 7 7 6 5 4 4 5 6 6 7 7 8 8 9 9 9 9 9 8 8 8 8 8 9 9 10 11 13 14 15 16 17 17 18 18 19 20 20 21
17 17 17 17 17 14 9 7 8 9 9 8 8 7 7 7 7 8 8 9 9 9 10 10 11 11 11 11 11 10 11 10 10 11 12 13 14 15 16 17 18 19 19 20 20 21 21 22 23
18 18 18 18 17 16 12 8 8 9 10 9 9 8 8 9 10 10 11 11 11 11 11 12 12 12 13 13 13 13 13 13 13 13 15 16 17 18 19 20 21 22 22 23 23 24 24 25 25
17 17 18 18 17 15 13 10 11 11 12 11 10 9 9 9 10 11 12 13 13 13 14 14 14 14 15 15 16 16 16 16 16 16 17 19 20 21 22 23 24 24 25 25 26 26 27 27 28

GEFSSGP_500_meanwind_066.txt.gz
Wind_Speed
12 12 12 12 12 12 13 13 12 11 10 9 9 8 8 11 13 12 11 11 10 9 8 8 8 9 9 8 7 6 5 4 4 3 2 2 1 1 1 1 1 1 1 1 2 2 2 1 1
13 13 13 13 13 13 15 14 13 12 11 10 10 9 9 11 13 13 13 12 12 11 10 8 8 8 8 8 7 6 5 5 4 3 3 3 2 2 2 2 2 2 2 2 2 2 2 2 1
13 14 14 15 14 14 17 16 15 14 13 12 11 10 10 11 13 13 13 13 12 11 10 9 8 8 8 7 6 6 5 5 4 4 4 4 3 3 3 3 4 4 4 4 4 4 3 3 3
14 14 15 15 16 16 17 17 17 16 14 12 11 11 10 11 13 13 14 13 13 11 10 10 9 9 8 7 7 6 5 5 4 5 5 4 5 5 5 5 5 6 6 5 5 5 5 5 4
14 14 15 15 16 17 17 17 16 16 15 13 12 12 11 11 13 14 15 14 14 12 11 11 10 9 8 8 7 6 6 6 6 6 6 6 6 6 7 7 7 7 7 7 7 6 6 6 6
13 13 13 14 16 17 17 16 16 15 15 13 12 12 11 12 13 14 16 16 15 14 12 11 11 10 9 8 7 7 7 7 7 7 7 7 7 8 8 8 8 8 9 9 9 8 7 7 7
13 12 12 13 15 16 15 14 13 13 14 14 13 12 12 13 14 15 17 18 17 15 14 13 12 11 10 9 8 8 8 7 7 8 8 8 9 9 10 10 9 9 9 9 9 9 9 8 8
13 12 12 12 13 14 13 13 12 12 13 13 12 12 13 14 15 16 18 19 18 17 15 14 13 13 12 10 9 9 8 8 8 8 9 9 9 10 11 10 9 9 9 9 9 9 9 9 8
13 12 11 12 12 13 13 12 12 12 11 12 13 13 14 16 17 18 19 20 20 19 17 16 15 14 13 12 11 10 9 9 8 8 9 9 10 10 11 10 10 9 9 9 9 9 9 8 7
13 12 12 13 13 13 13 13 12 11 11 12 13 13 14 16 18 20 21 22 22 21 19 18 17 16 14 13 12 10 10 9 9 9 9 9 10 10 10 10 9 9 9 9 9 8 8 7 6
13 13 14 14 14 14 14 13 12 10 10 11 12 13 15 17 20 23 24 24 24 24 22 20 19 18 16 14 12 11 10 9 9 8 9 9 9 9 9 9 9 8 8 9 8 8 7 7 7
14 14 14 14 15 15 15 14 13 11 10 10 11 13 15 18 21 23 24 25 26 24 24 22 20 19 18 15 13 11 9 8 8 8 8 8 8 7 7 7 7 7 7 7 8 7 7 7 7
13 14 14 15 16 16 15 15 14 13 13 12 12 14 14 17 21 24 26 26 26 25 25 23 21 20 18 15 13 10 9 8 7 7 7 6 6 6 6 6 5 5 6 6 6 5 6 6 7
13 14 14 15 17 17 16 16 15 14 14 13 12 14 16 17 19 22 25 25 26 26 25 23 22 20 18 15 12 10 8 8 6 5 5 4 4 4 4 4 4 4 4 4 4 4 5 5 5
13 14 16 17 18 18 18 18 17 15 15 13 11 12 14 17 19 22 25 26 26 26 25 24 21 19 17 14 11 10 9 8 6 4 4 3 3 3 3 4 3 3 3 4 4 4 4 4 4
14 15 16 18 19 19 19 19 19 17 15 14 10 9 11 15 18 21 24 26 26 26 25 24 20 18 15 13 11 9 8 6 5 4 2 2 2 2 3 3 3 3 3 3 3 3 3 3 4
14 13 14 18 19 19 19 19 20 18 15 13 9 7 7 10 15 20 23 25 25 25 24 22 20 18 15 12 11 9 7 6 5 3 2 1 1 2 2 3 3 3 3 3 3 3 3 3 3
12 13 15 17 19 19 19 20 20 18 15 13 9 6 5 8 12 17 21 22 23 24 23 21 18 17 15 12 10 9 7 6 4 3 2 1 1 2 2 2 2 2 3 3 3 3 3 4 4
13 15 15 16 18 18 18 18 18 17 15 12 9 6 4 5 10 13 16 18 21 21 21 19 18 16 14 12 10 8 6 5 4 3 2 2 1 1 1 2 2 2 2 3 3 3 3 4 4
13 14 14 15 16 17 17 16 17 16 14 12 8 6 4 2 7 11 14 17 18 19 19 18 17 15 13 12 9 7 6 5 4 3 3 2 2 1 0 1 2 2 2 2 3 3 3 3 3
13 13 13 15 16 16 17 16 16 14 13 11 9 7 5 2 5 9 12 15 16 17 17 17 16 14 13 11 9 8 6 5 4 4 3 3 2 1 0 0 1 1 2 3 3 3 3 4 4
12 13 13 14 14 15 16 15 15 14 13 11 9 7 5 3 4 7 10 12 15 16 17 16 15 13 11 10 9 7 6 5 5 4 4 3 2 2 1 1 0 0 1 2 3 4 4 5 6
13 13 14 14 13 13 15 12 13 12 12 11 10 7 5 4 3 6 9 11 13 15 15 14 12 11 10 9 8 7 6 5 5 5 4 4 3 3 2 2 2 2 2 3 4 5 6 7 8
14 14 14 14 12 11 14 11 10 10 10 10 9 7 5 4 4 5 8 10 11 12 12 12 11 10 9 9 8 7 6 6 6 6 5 5 5 4 4 4 4 4 5 6 7 7 8 9 10
14 13 12 11 10 12 13 10 9 8 8 8 7 6 4 3 3 4 6 9 11 11 11 10 10 9 9 9 8 7 7 7 7 7 6 6 7 7 7 7 7 8 9 9 10 10 11 11 12
14 13 11 10 10 11 13 10 9 8 7 7 6 5 4 2 1 2 4 7 8 9 9 9 9 9 9 9 9 9 9 9 9 9 8 8 9 9 10 11 11 11 11 12 13 13 14 14 15
15 13 12 11 11 9 10 11 10 9 8 7 6 5 4 3 1 2 4 5 7 8 9 9 9 9 9 10 10 10 11 11 11 11 11 11 12 13 13 14 14 14 15 16 16 16 17 17 18
14 14 13 10 10 9 9 9 10 10 9 8 7 6 5 4 3 4 5 6 7 8 9 10 10 11 11 12 12 12 13 14 14 14 14 14 15 16 17 17 18 18 18 19 19 20 20 20 20
15 14 12 10 10 8 8 10 12 10 10 9 9 8 6 6 5 6 6 7 8 9 10 12 13 13 13 13 14 15 16 16 17 17 18 19 19 20 20 21 22 22 22 22 22 23 23 23 23
15 13 12 10 11 9 7 11 12 11 10 9 9 8 8 8 7 7 9 9 10 11 12 13 14 14 15 16 16 17 18 19 20 21 21 22 23 24 25 25 25 26 26 26 25 25 25 26 26

GEFSSGP_500_meanwind_072.txt.gz
Wind_Speed
9 9 9 8 7 8 12 6 8 18 17 13 12 12 12 13 12 11 9 9 9 9 8 8 8 7 6 6 6 7 7 6 5 5 5 4 4 4 4 4 4 4 3 3 3 3 3 3 3
8 8 8 8 6 9 12 13 14 18 18 16 14 14 14 14 14 13 12 12 10 10 9 9 8 7 7 7 7 7 7 7 6 6 6 5 5 5 5 4 4 4 4 4 4 4 4 4 4
8 8 8 7 6 7 10 16 19 21 19 17 16 16 15 14 13 14 14 14 12 11 10 9 9 8 7 7 7 7 7 7 7 7 6 6 6 6 5 5 5 5 6 6 5 5 5 5 5
8 7 6 6 6 6 13 21 23 22 19 17 16 17 15 16 15 15 15 14 13 12 11 10 9 9 8 8 8 8 7 7 7 7 6 6 6 6 6 7 7 7 7 7 7 6 7 7 7
8 6 6 9 8 10 18 22 20 19 18 17 17 19 15 15 16 16 16 15 14 13 12 11 10 9 9 9 9 8 7 7 7 7 7 7 7 8 8 8 8 9 9 9 9 8 8 8 8
7 6 9 10 9 15 18 19 17 16 17 18 18 18 15 15 16 15 16 16 16 14 13 12 11 10 10 9 9 8 8 8 8 8 8 8 8 9 9 9 9 9 10 9 9 9 9 9 9
7 4 6 6 11 14 17 18 16 16 17 18 17 18 15 17 16 16 17 17 17 15 14 14 13 12 11 10 10 9 9 9 9 9 9 9 10 9 9 10 10 10 10 9 9 9 9 9 9
6 5 4 5 11 13 16 17 16 16 17 17 18 19 16 15 16 17 18 19 18 16 17 15 15 13 12 12 11 10 10 10 10 10 10 10 10 10 10 10 10 10 9 9 9 8 8 8 9
6 7 4 6 12 13 15 16 17 18 18 17 18 18 15 15 16 18 20 21 20 19 18 17 16 15 13 13 13 11 11 11 11 11 11 11 10 10 10 10 9 9 9 9 9 9 9 9 8
5 6 5 10 12 13 15 17 17 18 18 18 18 18 15 16 17 19 21 22 22 21 21 19 18 16 14 14 13 12 12 12 12 12 11 11 10 10 10 9 9 8 8 8 9 9 9 9 8
7 4 7 10 12 15 16 17 17 16 18 17 17 17 15 17 18 17 21 23 24 23 22 22 19 17 15 15 14 13 13 12 12 12 11 10 10 10 9 8 8 7 7 7 8 8 8 7 8
10 10 11 12 14 17 19 17 16 16 18 18 18 17 16 17 18 19 21 24 24 24 24 23 20 19 18 16 15 14 14 13 12 10 10 10 9 9 8 7 7 6 6 6 6 6 6 6 6
9 11 12 12 15 19 21 18 18 16 18 20 19 19 18 17 19 21 20 23 25 26 25 24 23 22 20 18 16 15 14 12 11 10 9 8 8 7 7 6 6 5 5 6 5 5 5 5 5
10 9 11 13 15 22 23 20 19 19 21 21 19 18 18 18 19 22 23 26 26 25 25 25 24 23 20 17 15 14 12 11 10 9 8 7 6 5 5 5 5 5 5 5 4 4 3 3 3
9 11 15 16 19 22 24 21 20 20 23 23 20 18 17 16 18 23 24 22 25 25 25 25 24 22 18 16 14 12 11 10 9 8 7 5 4 4 4 4 4 4 4 3 3 3 3 2 1
13 15 19 19 21 23 24 23 23 23 24 23 21 18 16 15 17 20 22 22 24 25 25 24 22 20 17 15 13 12 11 10 9 7 6 5 4 3 3 3 3 3 3 3 2 2 2 2 2
16 17 17 17 20 22 22 23 23 23 24 23 19 16 15 13 15 16 19 21 22 24 24 23 22 19 17 15 13 12 10 10 8 7 6 4 3 3 3 3 2 3 3 2 2 1 1 1 2
12 12 13 18 18 21 20 21 21 21 22 22 19 15 14 13 12 13 16 18 20 21 22 21 19 18 16 15 13 11 10 9 9 7 6 5 3 2 2 2 2 2 2 2 2 3 3 2 2
12 11 14 15 18 19 19 18 20 19 21 20 18 16 13 11 10 8 11 16 18 19 20 19 17 16 15 14 13 11 10 9 8 6 6 4 3 2 1 0 2 2 2 2 3 4 4 4 4
12 16 16 15 17 18 18 18 20 20 20 20 19 16 14 11 8 5 8 13 16 17 17 17 17 17 15 14 11 10 10 9 8 6 5 4 4 3 2 1 1 2 3 3 3 4 4 4 4
12 15 16 17 15 16 17 18 19 21 19 19 17 16 14 12 9 5 5 9 14 15 16 15 14 14 14 13 11 10 9 8 7 6 6 5 4 3 3 2 1 1 1 2 2 3 3 4 4
13 15 15 15 15 16 13 16 19 19 20 18 16 15 13 12 9 4 3 6 10 11 13 13 14 14 14 13 11 11 10 8 7 7 6 6 5 5 4 3 2 2 1 0 2 2 3 3 4
14 13 13 14 17 17 11 12 18 19 19 19 17 15 12 10 8 5 2 5 8 10 11 12 14 13 12 11 11 11 10 9 8 8 7 7 6 6 5 5 4 3 3 3 3 4 4 5 6
14 14 14 19 20 16 10 8 14 16 18 17 15 13 12 9 8 6 4 4 6 8 10 11 12 12 12 12 11 11 10 10 9 8 8 7 7 7 7 7 6 6 6 6 6 7 7 8 8
15 17 16 19 23 20 11 8 11 14 15 15 14 12 10 8 7 6 5 4 4 6 8 11 12 11 10 10 11 11 10 10 9 9 9 9 9 9 9 8 8 8 8 9 9 10 10 11 12
16 15 15 18 18 18 17 13 12 12 14 14 13 10 8 7 6 5 4 3 1 4 7 9 10 10 10 10 10 10 10 10 10 10 10 11 11 11 11 11 11 11 11 12 13 13 14 15 16
16 15 15 18 16 17 18 14 11 12 14 14 13 9 7 6 5 4 2 1 1 4 6 7 8 10 10 10 10 10 11 11 12 12 12 12 13 13 13 13 13 14 14 15 16 17 18 19 19
18 17 16 15 15 14 16 18 13 12 13 15 13 10 7 7 6 5 4 3 2 3 6 8 9 9 9 10 11 11 12 12 13 14 14 14 15 16 16 16 17 17 18 18 19 20 21 22 22
20 19 17 15 14 14 18 20 16 14 14 14 13 10 8 7 7 6 6 5 4 5 7 8 9 10 10 11 11 12 13 14 15 16 16 17 17 18 18 19 19 20 20 21 22 22 23 24 25
24 20 16 16 15 14 15 20 17 15 15 14 13 11 9 8 9 8 8 7 7 8 8 9 10 11 11 12 13 14 15 16 17 18 18 19 20 21 21 22 22 22 23 23 24 25 25 26 27

GEFSSGP_500_meanwind_078.txt.gz
Wind_Speed
8 8 7 7 6 7 7 8 10 16 19 21 21 20 19 17 13 11 9 7 8 8 7 7 7 6 6 5 4 3 2 3 4 4 5 5 6 6 7 7 7 7 7 7 7 6 6 6 6
8 8 8 7 6 7 9 10 14 19 22 23 23 22 19 16 14 12 11 7 7 8 8 8 8 7 6 5 4 4 3 3 4 5 6 6 7 8 7 8 8 8 8 8 8 7 7 7 7
7 8 7 7 6 8 9 12 17 22 24 25 25 22 20 16 12 11 10 9 8 9 9 9 9 8 7 6 5 4 4 4 5 6 6 7 8 8 8 8 8 9 9 9 9 8 8 8 7
7 7 7 6 6 9 11 14 18 22 25 25 25 22 20 16 12 10 9 8 8 10 10 10 10 9 8 7 6 5 4 5 5 6 6 7 7 8 8 9 9 10 10 10 10 9 9 9 8
7 6 6 7 9 10 13 17 20 22 23 24 23 21 20 17 13 11 10 10 10 10 11 11 11 10 9 8 7 6 5 5 5 6 6 7 8 9 9 10 10 10 10 11 11 10 10 10 9
6 6 7 9 10 11 13 17 20 22 22 22 22 21 19 16 12 10 9 10 11 11 11 12 12 11 10 9 8 6 5 6 6 6 7 8 8 9 10 10 10 10 11 11 11 11 11 10 10
6 7 8 8 9 10 13 17 20 21 22 21 21 20 17 14 13 11 11 11 12 13 13 13 13 13 11 9 8 7 6 6 6 7 8 8 9 9 10 10 10 10 10 10 10 10 10 10 10
6 7 7 7 9 10 14 18 21 22 21 20 20 19 17 16 14 13 12 13 13 13 14 15 15 14 12 10 8 7 7 7 7 7 8 8 9 10 10 10 10 10 9 9 9 10 10 10 10
5 5 5 7 9 12 15 18 19 20 20 19 18 18 18 16 13 11 12 13 13 14 15 16 16 15 13 11 9 9 8 8 8 8 8 9 9 10 10 9 9 9 8 8 8 9 10 10 10
5 3 5 7 9 13 15 18 20 20 20 20 19 19 19 17 14 11 12 14 14 15 16 17 17 16 14 12 11 10 9 9 8 8 8 9 9 9 9 8 8 8 8 8 8 8 9 10 10
5 3 4 6 9 12 15 17 19 20 20 20 21 19 17 17 14 12 12 14 17 19 19 19 19 18 16 14 12 11 11 10 9 8 8 9 8 8 8 7 7 7 7 7 7 8 8 9 9
5 4 4 7 9 12 15 17 17 19 20 22 22 20 17 18 17 14 13 15 19 20 20 21 23 21 18 16 13 11 11 10 9 8 8 8 8 7 6 6 5 6 6 6 6 7 7 7 7
7 8 7 9 11 13 15 17 18 19 20 21 21 20 19 19 18 15 13 14 19 20 20 20 23 22 20 17 14 12 11 11 9 8 8 8 7 6 5 5 5 5 5 5 5 5 6 6 5
7 9 10 10 13 15 17 19 20 21 21 22 21 20 20 18 18 16 15 13 15 20 21 22 23 23 21 18 16 14 13 11 10 8 8 7 6 5 5 4 4 3 3 3 3 3 3 4 4
4 6 9 12 15 17 19 20 21 22 22 23 22 21 20 18 17 14 11 14 15 18 21 22 23 23 21 19 16 15 14 12 9 8 7 6 5 4 3 3 3 3 2 2 2 2 2 2 2
4 7 11 15 18 19 20 20 21 22 22 24 23 21 20 18 15 12 10 12 16 17 19 21 22 21 20 18 16 15 13 11 10 8 7 6 5 4 2 2 2 1 1 1 1 1 1 1 1
5 10 14 18 19 20 21 20 22 23 23 23 22 21 19 17 13 11 10 10 13 16 20 20 21 20 19 18 16 15 13 12 10 9 7 6 5 4 3 2 1 1 1 1 1 1 2 1 1
6 10 14 18 19 20 20 21 22 24 23 23 22 21 18 16 13 11 8 8 11 14 18 20 20 20 19 18 17 15 13 12 10 9 8 7 6 5 4 3 2 2 2 3 3 3 3 3 3
8 11 14 19 20 21 22 23 22 23 22 20 20 18 16 14 12 10 4 7 9 14 15 19 19 19 18 17 17 15 14 12 11 10 9 8 7 6 5 4 4 4 4 5 5 5 5 4 4
8 11 14 18 21 23 24 23 21 23 21 18 17 15 13 13 11 9 3 3 7 12 14 17 18 18 17 17 16 15 13 12 11 11 10 9 8 7 6 6 5 5 5 5 5 5 5 4 4
7 11 15 19 21 22 24 22 22 20 17 16 14 13 12 12 10 8 4 3 6 9 11 14 18 16 16 16 15 14 13 12 11 11 11 10 9 8 8 7 7 6 6 5 5 4 4 4 3
9 12 16 17 19 21 22 24 20 15 13 12 11 11 11 11 10 9 6 3 5 8 11 13 16 17 17 16 15 14 14 13 12 12 11 11 10 9 9 8 8 7 6 5 4 3 3 3 2
10 12 15 17 19 21 21 21 17 12 10 9 10 11 10 10 9 8 7 5 5 8 11 12 14 17 17 16 15 14 14 13 13 12 12 11 11 11 11 10 9 8 7 6 5 4 3 3 3
10 14 16 18 19 20 20 19 16 13 10 8 8 9 10 9 9 7 6 6 6 7 9 11 14 15 16 15 15 14 14 14 13 13 13 12 12 12 12 12 11 10 9 8 7 6 6 6 5
11 14 17 18 19 19 19 18 16 12 9 8 8 8 8 8 8 7 6 5 5 6 8 10 11 13 14 14 15 14 15 14 14 14 13 14 14 14 13 13 12 12 12 11 11 10 9 9 9
11 14 17 19 19 21 19 19 16 13 10 9 9 9 7 7 7 6 5 5 5 6 7 8 9 11 13 15 15 15 15 15 15 15 15 15 15 15 14 14 14 14 14 14 13 13 13 13 13
14 14 16 19 20 22 21 19 15 12 10 9 9 9 7 6 5 4 4 3 4 4 5 7 9 10 12 13 15 15 15 15 15 15 16 16 16 16 16 16 16 16 16 16 16 16 16 17 17
16 17 18 19 22 23 23 20 17 15 13 11 8 8 7 5 4 3 3 2 1 2 3 6 9 11 11 12 13 14 14 15 15 16 17 17 17 18 18 18 18 18 18 19 19 20 20 20 21
20 19 21 22 23 25 25 23 19 16 14 10 8 8 6 3 3 3 4 2 1 2 3 5 7 9 11 12 13 14 14 15 16 17 18 18 19 20 20 20 21 21 21 22 22 23 23 23 24
24 24 24 24 25 26 27 23 19 16 13 12 11 9 7 5 4 4 5 4 4 4 4 6 8 9 10 13 14 14 15 16 17 18 19 19 21 22 22 23 23 24 24 25 25 26 26 26 27

GEFSSGP_500_meanwind_084.txt.gz
Wind_Speed
11 11 10 10 10 11 12 14 13 12 13 13 13 12 11 9 7 4 4 6 9 11 12 12 11 10 10 9 8 7 5 4 2 1 1 2 4 5 5 6 7 7 8 8 8 8 7 7 7
11 11 10 11 11 12 13 13 13 14 14 14 14 14 12 10 8 5 4 7 9 12 13 13 12 12 11 10 8 7 5 4 2 1 1 2 4 5 5 6 7 8 8 8 8 8 7 7 6
11 11 11 11 11 12 13 13 14 14 15 16 16 15 14 12 9 6 6 7 9 11 13 14 14 13 12 11 9 7 6 4 2 1 1 3 5 6 6 7 8 8 9 8 8 8 8 7 6
12 12 12 12 12 13 13 13 14 15 17 17 17 16 14 12 11 8 7 8 10 12 13 15 15 14 13 11 10 8 7 4 2 1 2 3 5 6 7 8 8 8 9 9 9 8 7 7 7
12 12 12 12 12 12 12 13 14 16 17 18 18 16 15 13 12 10 9 9 11 13 14 16 16 15 13 12 10 9 7 5 3 1 2 3 5 6 8 8 8 9 9 9 9 8 7 7 7
12 13 12 12 12 12 12 13 14 16 18 18 17 16 16 15 13 10 9 10 12 14 16 17 16 15 14 12 10 9 7 5 3 2 2 4 5 7 8 8 8 9 9 9 8 7 7 6 6
12 12 11 11 12 12 13 14 15 16 17 17 17 17 16 15 12 9 8 11 14 16 17 17 16 16 15 13 11 9 7 5 3 3 3 5 6 7 8 8 8 9 8 8 7 7 6 6 6
12 13 12 12 12 13 14 14 15 15 16 16 17 17 16 14 12 9 8 10 15 17 17 17 16 16 16 14 12 10 8 6 4 4 4 5 6 7 8 9 9 8 8 7 6 6 6 6 6
12 12 12 12 12 13 14 14 15 15 16 17 18 18 16 15 13 10 8 11 14 17 18 17 17 17 16 15 13 10 8 7 5 5 5 6 7 8 9 9 9 8 7 6 5 5 5 6 6
11 11 11 11 11 12 14 15 15 17 17 18 18 18 16 14 13 10 9 10 14 17 18 18 18 18 17 15 13 11 9 8 7 6 6 6 7 8 8 8 8 8 7 6 5 4 5 5 5
10 10 9 9 10 12 14 15 15 17 18 18 19 18 16 15 14 10 9 10 14 18 19 19 19 19 18 16 15 13 11 9 8 7 6 7 7 7 7 8 8 7 6 5 5 4 5 5 5
7 7 7 8 9 11 13 15 15 16 18 19 19 19 16 15 14 12 11 11 15 19 21 21 21 20 19 18 16 14 13 11 9 8 7 7 7 7 7 7 7 6 6 5 4 4 4 3 3
6 6 6 7 9 11 13 15 15 17 18 20 20 19 17 15 15 13 12 12 14 19 22 22 22 22 20 19 18 16 14 12 10 9 8 8 7 7 7 8 7 6 5 4 4 3 3 3 2
6 7 7 8 10 12 13 15 16 18 20 20 21 20 18 18 17 14 11 10 13 18 22 23 24 23 22 21 20 18 16 13 11 10 9 8 7 7 7 7 6 5 4 4 3 3 2 1 1
8 9 9 10 11 13 13 15 17 19 20 21 22 21 20 19 17 14 11 9 11 16 23 25 25 24 24 23 22 20 17 15 13 11 9 8 8 7 7 6 5 4 4 3 3 2 1 0 0
10 10 10 11 12 14 14 15 19 20 21 22 21 21 20 19 17 14 11 9 10 14 21 25 25 24 24 23 22 21 18 15 13 11 10 9 8 7 6 6 5 4 3 2 1 1 1 1 1
12 12 12 13 12 14 15 17 20 22 22 22 21 20 20 19 16 14 12 10 10 14 19 22 24 24 24 24 23 20 18 16 14 12 11 9 8 7 6 5 5 4 3 2 0 0 1 2 2
14 14 15 15 14 14 15 19 21 23 23 21 20 20 20 18 16 13 10 8 10 13 18 22 24 25 25 24 23 20 18 16 15 13 11 10 9 7 6 5 4 3 2 1 1 1 2 3 3
16 16 16 16 15 14 16 19 21 23 23 20 18 19 19 17 15 12 8 7 10 15 19 21 23 25 25 24 22 20 19 17 15 13 12 11 10 8 7 6 5 4 3 2 2 2 3 3 3
18 18 17 17 15 15 16 18 21 22 21 18 17 17 16 15 13 10 6 4 9 13 18 20 22 23 23 23 22 21 20 17 15 14 13 12 10 9 9 8 7 5 4 3 3 3 3 4 4
18 19 18 17 15 14 16 16 20 20 19 17 16 15 15 13 12 10 5 2 8 13 15 18 21 21 22 23 22 21 19 17 16 15 13 12 11 10 10 9 8 7 6 5 4 4 4 4 4
18 19 18 17 15 14 15 16 17 18 19 18 15 14 14 12 11 9 5 2 6 11 13 17 19 21 22 22 21 20 19 17 17 15 14 13 12 12 11 10 9 8 7 6 5 4 4 4 4
18 18 18 17 14 13 13 15 15 16 18 17 14 14 13 12 10 8 5 2 3 8 11 15 18 20 21 21 21 20 18 17 16 15 14 13 13 13 12 11 10 10 9 8 7 6 5 5 5
17 17 17 16 14 12 12 13 14 15 17 15 13 13 12 11 9 7 5 3 2 6 10 13 16 18 20 20 19 18 17 16 16 15 14 13 13 13 13 12 12 11 11 11 10 9 9 8 8
18 17 17 16 13 11 11 12 13 14 16 14 12 12 12 10 8 6 4 2 2 4 8 11 14 17 18 18 18 17 17 16 15 14 14 13 14 14 14 14 13 13 13 13 13 13 12 12 12
19 18 18 17 15 12 11 12 12 13 14 14 12 11 11 10 8 6 3 1 2 3 6 9 13 15 16 17 18 17 17 16 15 15 14 14 14 15 15 15 15 15 15 16 16 16 16 16 16
20 20 20 19 18 16 13 11 10 12 12 13 12 11 10 9 8 5 3 1 1 2 4 7 11 12 14 15 16 17 16 16 16 15 15 15 15 16 16 16 16 17 17 18 18 19 19 20 20
21 21 21 21 20 18 14 11 12 12 12 13 11 10 11 10 8 5 3 2 2 2 3 5 7 9 11 15 16 16 16 17 16 16 16 16 16 17 17 17 18 19 19 20 21 22 22 23 23
23 23 23 23 22 21 18 12 12 12 11 11 10 10 11 10 8 6 5 4 4 3 4 5 7 9 10 13 15 16 17 17 16 17 17 18 18 18 18 19 19 20 21 22 24 25 25 25 26
26 26 25 25 24 24 22 15 13 12 12 12 12 12 12 11 9 7 6 5 5 5 6 6 7 8 10 11 13 15 17 18 18 19 19 19 19 19 20 20 21 22 23 24 26 27 28 29 29

GEFSSGP_500_meanwind_090.txt.gz
Wind_Speed
12 12 11 11 10 11 9 8 8 7 6 5 5 4 3 3 4 7 8 10 12 13 14 14 13 12 12 12 12 11 11 9 8 7 6 4 3 3 3 3 3 3 3 3 2 2 2 2 2
12 12 11 11 11 9 9 9 8 7 7 6 5 4 4 4 5 7 9 10 12 13 14 14 14 13 13 13 13 12 11 9 8 7 6 4 3 2 2 2 2 2 2 2 2 1 1 1 1
12 12 11 11 10 7 8 9 9 8 7 6 5 5 4 5 6 7 9 10 12 13 15 15 15 14 14 14 14 13 11 10 8 7 5 4 3 2 1 1 1 1 1 1 1 1 0 0 1
11 12 11 11 9 9 9 10 9 9 8 7 6 5 5 5 6 7 8 10 11 13 15 16 16 15 14 14 14 13 12 10 8 7 5 4 2 2 1 1 1 1 1 1 1 1 0 0 1
11 11 11 10 9 10 11 11 10 9 9 9 8 7 7 6 6 6 8 10 11 13 15 16 16 16 15 15 14 14 13 11 9 8 6 4 3 2 1 0 1 1 2 2 1 1 0 1 1
10 11 9 6 9 11 12 12 11 10 10 10 10 10 10 8 8 7 8 10 12 13 16 17 16 16 17 16 15 14 13 11 10 8 6 4 2 1 0 0 1 1 2 2 1 1 1 1 2
10 9 8 7 9 10 12 12 11 11 11 11 11 12 13 12 9 8 8 10 12 13 16 17 17 17 17 17 16 15 14 12 11 9 6 4 2 1 1 1 2 2 2 2 1 1 1 2 2
9 8 7 7 8 10 12 13 12 12 12 12 13 13 14 13 10 8 8 9 11 14 16 18 19 18 18 18 17 15 14 13 11 8 6 4 3 2 1 1 2 2 2 2 2 2 2 2 3
8 7 6 7 8 10 12 13 13 13 13 14 14 14 14 13 10 9 9 9 11 14 17 18 19 19 19 19 18 16 15 13 11 8 6 5 3 2 2 2 2 2 2 2 2 3 2 3 3
8 6 6 8 9 10 12 13 13 14 14 15 15 14 14 13 10 9 9 9 11 15 17 19 19 20 19 19 19 18 16 14 11 9 6 5 3 3 2 2 2 2 2 3 3 4 3 4 4
8 7 7 8 9 10 11 12 14 14 14 16 16 16 14 13 11 9 9 10 11 14 18 20 21 21 21 20 20 19 17 15 12 10 7 5 4 4 3 2 1 2 2 3 3 4 4 4 4
9 8 8 9 9 11 12 12 13 14 14 16 16 16 14 13 11 10 10 11 12 14 18 21 22 22 22 22 21 19 18 15 13 10 8 6 5 4 3 2 2 2 2 2 3 3 4 4 5
9 9 8 9 10 11 12 13 14 14 16 17 16 15 14 14 12 11 12 12 12 15 18 21 23 22 23 23 22 20 18 16 14 11 9 6 5 4 4 3 2 2 2 2 2 3 4 4 4
10 9 9 9 11 12 13 15 16 17 18 18 17 16 15 14 13 12 12 12 13 15 18 21 23 24 24 24 23 21 19 16 15 12 9 7 6 5 4 3 2 2 2 2 2 3 3 3 3
10 9 10 11 12 13 15 16 18 18 19 18 17 16 15 15 14 13 12 12 12 14 17 21 24 25 25 25 25 23 20 18 15 13 11 8 7 6 5 4 3 2 2 2 2 2 3 2 2
10 9 8 12 13 14 16 16 19 19 19 18 16 16 15 14 14 13 11 11 12 14 17 21 25 25 26 26 26 24 22 19 16 14 12 9 8 6 5 4 3 3 2 2 2 2 2 2 2
10 9 10 13 13 15 17 18 18 18 18 17 16 15 14 14 13 12 10 9 10 13 16 20 25 25 26 27 26 25 22 19 17 15 12 10 8 7 5 4 4 3 3 3 2 2 2 1 1
12 11 11 13 14 15 16 17 17 17 18 17 16 15 14 13 12 11 11 10 9 12 15 19 23 25 25 26 26 24 22 20 18 16 14 11 9 8 6 5 4 3 3 3 3 3 2 2 1
13 12 12 13 13 13 14 15 16 16 17 17 16 15 13 12 12 11 10 9 8 10 13 19 21 24 25 25 25 23 21 20 18 16 14 12 11 9 7 5 4 4 4 3 3 3 3 3 2
13 12 12 13 13 13 13 13 14 15 16 17 17 15 13 12 12 12 11 9 8 9 13 16 20 23 25 25 24 23 20 19 18 16 15 13 12 10 8 7 6 5 5 4 4 4 4 3 3
13 13 12 12 11 11 12 12 14 15 16 17 16 15 14 13 12 12 11 7 6 8 12 16 19 21 23 23 23 22 20 19 18 17 15 14 12 10 9 8 8 7 6 6 5 5 5 4 4
14 14 13 11 10 10 11 11 14 15 16 16 15 14 13 13 13 11 9 5 5 7 11 14 17 20 22 23 22 21 20 20 18 17 16 15 13 11 11 10 9 8 8 7 7 6 6 5 5
15 14 13 11 10 9 11 10 12 14 15 15 15 14 13 13 13 11 9 5 3 6 10 13 15 18 20 21 21 21 20 20 18 17 17 16 14 12 12 11 11 10 10 9 9 8 8 7 6
14 13 12 11 10 10 10 9 9 13 14 15 15 13 12 12 12 11 10 7 3 4 8 11 13 16 18 18 19 19 20 19 19 18 17 16 14 13 13 13 12 12 11 11 11 10 10 10 9
15 13 12 11 10 11 12 10 9 12 13 14 14 12 12 12 11 9 8 6 3 2 6 10 12 15 16 17 19 19 19 18 18 17 16 15 15 14 14 14 13 14 14 14 14 13 13 13 13
16 15 14 13 12 12 13 10 9 11 12 12 12 12 11 11 11 9 7 6 3 1 4 7 10 12 14 16 17 19 18 18 17 17 16 16 15 15 15 15 15 15 15 16 16 16 16 16 16
17 17 16 16 14 13 11 10 10 11 11 11 12 12 11 11 10 9 7 5 2 1 3 4 7 9 12 15 17 17 17 17 17 17 17 16 16 16 16 16 17 17 17 17 18 19 19 19 19
19 18 19 16 14 13 12 11 10 10 11 11 11 11 11 11 11 9 8 5 3 3 3 4 5 7 10 13 14 15 16 17 17 18 18 18 17 18 18 18 18 18 19 19 20 21 21 22 22
20 20 20 18 18 15 14 12 14 11 11 12 12 11 12 11 10 9 7 6 4 4 3 3 4 7 9 10 13 14 15 16 17 18 19 19 18 19 19 20 20 20 21 22 22 23 23 24 25
22 22 21 21 20 19 17 14 15 13 13 13 13 13 12 11 10 9 7 6 4 4 4 4 5 6 7 8 11 12 14 16 17 19 20 20 20 20 20 21 21 21 22 24 24 25 25 26 26

GEFSSGP_500_meanwind_096.txt.gz
Wind_Speed
11 11 9 8 10 15 14 10 12 13 13 13 12 11 10 11 11 11 9 9 9 11 12 12 12 12 11 10 10 8 8 8 8 7 6 5 4 3 2 1 1 1 1 0 1 1 1 1 1
10 9 8 8 13 16 11 11 14 14 14 13 12 11 11 11 11 12 12 11 10 12 12 13 13 13 12 11 10 9 9 9 8 8 7 6 5 4 3 2 2 2 2 1 2 2 2 2 2
9 8 9 11 15 13 9 13 15 15 14 13 13 13 12 12 12 12 12 12 12 12 13 13 14 14 14 12 11 10 10 9 9 8 8 7 6 5 4 3 3 3 3 2 2 2 2 2 2
8 7 9 12 11 7 8 12 14 14 14 14 13 12 12 12 12 13 13 13 12 13 14 14 14 15 14 13 12 11 11 10 10 9 8 7 6 6 5 4 3 3 3 3 3 3 3 3 3
7 8 11 11 9 6 11 13 13 13 13 14 14 13 12 14 13 12 13 13 12 13 14 14 15 15 15 14 13 12 12 11 10 9 9 8 6 6 5 4 4 4 4 4 3 3 3 3 3
6 8 11 10 7 8 12 14 13 13 15 16 15 15 13 14 13 12 12 13 12 13 14 15 15 16 16 16 14 13 12 11 10 10 9 8 6 6 5 5 4 4 4 4 4 3 3 3 3
6 7 7 7 6 10 12 13 13 13 15 16 16 16 16 15 13 12 12 13 12 12 14 14 15 16 16 16 15 14 13 12 11 10 9 8 7 6 6 5 5 5 4 4 4 3 3 3 3
5 4 5 6 5 8 12 13 14 14 14 15 15 17 17 16 15 13 13 13 11 11 14 14 15 17 17 16 16 15 14 13 12 10 9 8 7 6 6 5 5 5 4 4 4 3 3 3 3
5 6 7 6 5 9 12 12 13 16 17 16 15 17 17 17 16 15 15 15 13 13 14 15 16 18 17 16 16 16 15 13 12 11 9 8 7 6 6 5 5 5 4 4 4 4 4 4 4
3 4 5 3 9 10 11 13 13 16 20 21 20 20 19 18 17 16 16 15 14 13 14 15 17 18 17 17 17 16 16 14 13 11 10 9 7 7 6 6 5 4 4 4 4 4 4 4 4
2 0 3 6 9 10 11 13 14 17 21 24 26 23 22 19 18 18 16 14 12 11 14 15 16 17 18 18 17 17 17 15 13 12 11 9 8 7 6 6 5 4 5 4 4 4 4 4 4
5 4 5 7 9 10 11 12 13 15 19 23 25 25 23 20 19 18 15 13 12 13 14 16 17 18 19 19 18 18 17 15 14 12 11 9 7 7 6 6 5 5 5 4 3 3 3 3 3
7 7 7 8 9 10 12 14 14 13 17 23 25 24 23 21 18 17 15 14 13 13 14 16 17 18 17 18 19 18 17 15 14 12 10 9 7 7 6 6 5 5 4 3 2 2 2 2 3
6 7 7 7 7 10 14 17 19 16 20 24 25 24 22 20 17 16 16 14 14 13 13 15 16 18 19 20 20 18 16 15 13 12 10 9 8 7 7 6 5 3 3 2 2 2 2 2 2
5 4 4 6 6 9 14 17 21 19 22 25 24 23 21 18 16 15 15 15 15 14 14 15 16 18 19 20 20 19 16 15 14 12 11 9 8 7 6 5 5 3 3 3 2 2 2 1 1
3 4 8 10 6 10 14 18 23 18 21 25 25 23 21 18 17 15 15 15 15 14 15 14 14 16 16 18 19 18 17 16 15 13 12 10 9 7 6 5 5 4 3 3 2 2 2 1 1
4 8 10 10 9 11 14 18 23 21 23 25 25 23 21 18 17 16 15 14 14 13 14 14 13 15 15 16 18 17 17 16 15 13 12 11 10 8 7 6 5 5 4 3 2 2 2 1 1
8 10 12 10 10 13 16 16 19 21 23 25 25 23 21 18 17 16 14 13 12 11 12 13 13 15 16 16 18 18 17 17 16 14 13 12 11 9 8 7 6 5 4 3 2 2 1 0 1
11 13 13 12 11 15 17 15 16 21 22 24 25 24 22 20 18 15 14 13 11 9 10 11 13 14 15 15 16 18 18 17 16 15 13 12 11 10 9 7 6 5 5 4 3 2 1 1 1
15 16 14 14 14 15 16 14 16 20 20 22 23 22 22 20 18 15 14 12 10 9 9 10 11 13 14 16 16 18 19 17 16 15 14 13 12 10 10 8 7 6 5 4 3 2 2 1 1
16 15 13 15 15 14 15 16 18 20 21 19 20 21 21 20 18 16 14 12 10 8 8 10 9 10 13 15 16 17 18 17 15 15 14 14 13 12 11 10 8 7 7 5 4 3 3 3 2
16 13 14 15 16 15 15 17 17 21 21 20 20 20 21 19 18 16 14 12 10 7 7 9 9 10 12 14 16 17 17 17 16 15 14 14 14 14 13 11 10 9 8 7 6 5 5 4 4
15 15 16 17 17 16 14 15 17 18 20 22 22 21 20 19 18 16 14 12 10 7 7 7 8 10 11 12 15 16 17 17 16 15 15 15 15 14 13 12 11 10 10 9 8 8 7 6 6
16 16 17 15 14 13 13 14 15 15 20 22 22 21 19 18 18 16 13 12 10 6 5 5 7 9 10 11 13 15 17 17 16 16 16 16 15 15 15 14 12 12 11 11 10 10 10 9 9
15 15 14 13 14 16 15 14 12 15 18 21 21 20 17 17 17 15 13 12 9 6 4 3 5 7 9 11 13 14 16 17 17 16 16 16 16 16 15 14 14 13 13 13 13 13 12 12 12
15 15 15 15 17 18 18 15 12 12 16 20 20 18 16 16 15 14 13 12 9 6 4 3 5 7 9 10 12 14 15 16 17 17 16 16 17 16 16 16 15 15 15 15 15 15 15 15 16
15 16 14 17 18 19 18 14 13 14 18 18 17 17 16 15 15 15 13 12 10 6 4 3 4 6 7 8 10 13 14 16 17 17 17 17 17 17 16 16 17 17 17 16 16 17 17 18 18
16 15 15 17 18 18 15 15 16 17 17 17 17 17 17 15 15 14 13 11 9 6 4 3 3 4 6 7 8 11 13 16 17 17 18 18 17 16 16 17 17 18 18 18 18 19 19 20 21
15 16 17 18 18 17 17 18 20 19 18 13 17 18 18 16 15 14 13 11 9 6 4 4 4 5 6 8 9 11 12 13 15 16 17 17 17 17 18 18 19 19 20 21 21 21 21 22 23
17 16 17 20 20 20 20 20 21 20 15 13 16 20 19 17 16 14 13 11 10 7 5 4 4 5 7 8 9 9 11 12 13 14 15 17 18 18 19 21 20 21 21 22 22 22 23 23 24

GEFSSGP_500_meanwind_102.txt.gz
Wind_Speed
5 6 7 7 7 9 15 19 19 18 19 17 15 14 13 11 10 7 5 4 3 4 6 7 7 7 7 7 7 5 4 4 4 4 5 5 5 5 5 5 5 5 5 5 4 4 3 3 3
5 6 7 6 6 8 13 16 18 19 19 18 16 15 12 11 9 7 6 5 3 4 7 8 8 8 8 8 8 7 6 5 4 4 5 6 6 6 6 6 6 5 5 5 5 4 4 4 3
4 5 5 6 6 8 12 16 18 20 19 18 18 16 14 12 10 8 6 5 4 5 6 8 9 10 9 9 9 8 7 6 5 5 5 6 6 6 6 6 6 6 6 6 5 5 4 4 3
4 5 4 5 7 10 13 15 17 18 19 17 17 17 16 15 12 10 7 5 4 5 6 8 9 10 10 10 10 9 9 7 6 5 6 6 7 6 6 6 6 6 6 6 5 5 4 4 3
4 4 3 6 8 10 13 16 18 19 19 17 18 18 18 16 13 11 9 6 5 6 7 8 9 11 11 11 11 10 9 8 7 6 6 6 6 6 6 6 6 6 6 5 5 5 4 3 3
2 1 2 6 7 9 12 15 18 18 18 18 19 19 18 16 14 13 10 7 5 6 8 8 10 11 12 12 12 12 10 9 8 7 7 6 7 6 6 6 6 6 6 5 5 4 4 3 2
1 1 1 5 7 9 12 15 19 19 19 19 20 21 20 18 16 14 10 9 7 7 9 9 10 12 12 13 13 13 12 10 9 8 7 7 7 7 6 6 6 6 6 5 4 4 3 3 2
2 2 0 4 7 9 11 14 19 18 19 19 21 23 23 20 15 13 11 9 8 7 8 8 10 12 12 13 14 14 13 11 10 8 7 7 7 7 6 6 6 6 5 5 4 4 3 3 2
3 2 1 3 5 7 11 14 17 19 19 21 23 23 23 20 16 13 11 9 8 6 7 9 10 12 13 14 15 14 13 12 11 9 8 7 6 6 6 6 6 5 5 4 4 4 3 3 3
4 4 3 4 5 6 10 13 16 18 20 22 24 24 24 21 16 13 10 9 7 5 7 9 10 12 14 15 16 15 14 13 11 10 8 8 7 7 6 6 6 5 4 4 4 4 3 2 2
7 6 5 5 6 7 9 12 13 17 21 21 23 24 24 21 16 13 11 9 7 7 7 9 11 12 14 16 17 16 15 14 12 11 9 8 7 7 6 6 6 5 5 4 4 3 3 2 1
8 7 8 7 6 7 8 10 12 17 20 22 23 24 22 20 17 14 12 9 8 6 6 10 11 13 14 15 17 16 16 14 13 11 10 9 8 7 6 6 5 5 4 4 3 3 2 1 1
9 9 10 8 6 6 7 9 12 16 20 22 24 23 21 20 17 14 10 8 7 5 7 8 10 12 13 14 16 17 17 16 14 12 11 9 8 7 6 5 5 4 3 3 2 2 1 1 1
9 9 8 6 5 5 7 8 11 16 20 22 23 23 21 20 18 16 12 10 8 7 7 8 9 12 13 14 16 17 16 16 15 13 12 10 9 7 6 5 4 4 3 2 1 1 1 1 1
9 7 5 4 4 6 8 9 12 16 19 22 23 22 22 20 18 17 14 9 8 8 7 7 8 10 13 14 16 17 16 16 16 15 13 11 10 8 7 5 4 3 2 2 2 1 1 1 1
8 6 5 5 7 7 9 10 13 16 19 20 21 22 22 21 19 17 15 11 10 9 6 6 8 9 11 14 16 17 17 17 16 15 14 12 10 9 7 5 4 3 3 3 2 2 1 1 1
9 7 7 6 8 7 9 11 13 16 19 20 21 21 21 20 19 16 15 13 11 9 8 6 8 8 10 13 15 17 17 17 17 16 15 13 11 9 7 5 5 4 4 3 3 3 2 2 2
11 11 9 7 8 10 11 12 13 16 19 20 20 21 21 20 19 17 15 13 11 9 7 6 7 8 10 12 13 16 17 18 17 16 16 14 12 10 8 6 6 5 4 4 4 3 3 3 2
13 13 11 8 10 13 14 14 14 17 19 21 20 20 20 19 18 17 16 13 12 9 5 5 6 8 10 11 14 15 16 18 17 17 16 15 13 12 10 8 7 6 6 5 4 4 4 4 4
13 13 12 10 11 14 16 16 17 17 18 19 19 18 17 17 17 17 15 13 11 8 5 4 5 6 8 10 13 14 16 18 18 18 17 15 14 13 11 9 8 8 7 7 6 6 5 5 4
14 13 12 12 13 15 18 18 18 17 16 17 17 16 16 15 15 15 14 13 11 8 5 5 4 6 7 8 10 13 16 18 18 17 17 16 15 14 12 11 10 9 9 8 8 7 7 6 5
14 12 14 15 16 17 18 19 17 17 16 16 16 15 14 14 14 13 13 12 11 8 4 3 4 6 7 9 10 13 16 17 18 18 17 16 16 15 14 12 12 11 10 10 9 8 8 7 7
14 14 16 17 18 18 18 19 17 16 17 16 15 13 11 12 12 12 12 12 10 8 5 3 4 5 7 9 11 14 15 17 18 18 17 17 16 16 15 13 13 13 12 11 11 10 9 9 8
14 15 16 17 17 17 16 17 16 15 16 16 14 11 10 11 11 12 12 11 10 7 3 2 3 4 6 9 11 14 15 16 18 18 17 17 17 16 15 14 14 14 14 13 12 11 11 10 10
14 15 16 17 17 14 14 15 15 16 16 15 13 9 9 9 10 11 12 11 10 7 3 2 2 4 6 8 11 13 15 16 18 19 18 18 18 17 17 16 15 15 15 14 14 13 13 13 12
13 15 17 18 16 14 14 14 13 14 15 15 11 7 7 9 9 11 12 11 10 7 4 2 2 4 6 8 10 12 14 16 17 18 18 18 18 18 17 17 16 16 16 16 15 15 15 15 15
14 15 16 18 18 17 16 15 15 15 16 14 11 7 6 8 9 10 11 10 9 7 5 3 3 4 7 8 10 11 14 16 16 17 17 18 18 18 18 18 17 17 18 18 17 16 16 17 17
14 12 15 18 19 19 17 16 16 17 16 15 11 10 8 8 9 10 9 10 10 8 6 4 3 4 6 8 9 10 12 15 16 16 17 18 18 17 18 19 18 18 19 20 19 18 18 18 18
15 15 17 18 19 20 19 18 17 17 17 15 14 11 8 9 11 10 9 9 10 9 6 4 4 4 6 7 8 10 12 12 13 15 17 18 18 18 19 18 19 19 19 19 20 20 21 21 21
19 19 19 20 20 20 21 20 18 19 18 17 15 13 12 12 12 11 10 10 10 9 8 5 5 5 6 6 8 10 11 12 12 13 15 16 17 17 17 18 19 19 19 19 20 21 21 21 22

GEFSSGP_500_meanwind_108.txt.gz
Wind_Speed
8 7 7 9 11 14 16 18 20 20 20 19 19 18 16 13 10 6 3 1 2 4 5 6 7 7 7 6 6 6 6 5 5 5 5 5 5 5 5 6 6 6 6 6 6 6 5 5 4
7 6 6 8 10 14 16 18 19 19 19 19 19 18 16 14 11 8 5 3 3 5 6 7 8 8 7 6 6 5 5 4 4 4 4 5 5 5 5 6 6 6 6 6 6 6 5 4 4
6 5 6 7 9 12 14 16 17 17 18 19 19 18 16 15 12 10 6 4 3 4 6 8 9 8 8 7 6 6 5 4 3 3 3 4 4 5 5 5 5 5 6 6 5 5 4 4 3
5 5 5 6 7 10 13 15 16 17 17 18 19 18 17 15 13 11 8 4 3 4 7 9 10 9 9 8 8 7 5 4 3 2 2 3 4 4 5 5 5 5 5 5 5 4 4 3 2
4 4 4 5 5 9 11 14 16 17 19 19 19 20 18 15 14 11 9 5 3 4 7 9 10 11 10 10 9 8 6 5 3 2 1 2 3 4 4 5 5 5 5 5 5 4 4 3 2
4 4 3 3 5 7 9 12 14 16 18 19 20 21 21 18 16 12 9 7 5 5 8 10 11 12 11 11 10 9 7 6 4 3 1 1 2 3 4 4 5 5 4 4 4 4 3 2 1
4 4 4 4 5 6 9 10 12 14 17 19 20 22 21 20 16 13 10 8 6 7 8 9 11 13 13 11 11 10 9 7 5 4 2 1 2 3 4 4 5 5 4 3 3 3 3 2 1
6 6 6 6 6 8 9 10 12 14 17 19 20 22 22 21 18 14 11 9 7 6 8 9 11 12 12 12 11 10 10 8 6 5 3 2 2 3 3 4 4 4 4 3 3 3 2 2 1
8 8 7 7 8 9 10 10 11 13 16 18 20 21 22 21 18 14 11 8 6 6 8 8 10 12 13 13 12 11 11 9 8 6 5 3 2 2 3 3 4 4 3 3 3 3 2 2 1
9 10 10 9 10 10 10 10 11 12 15 17 19 21 22 21 18 13 10 8 6 6 7 8 10 11 13 14 13 12 12 11 9 8 6 4 3 3 3 3 3 3 3 3 2 3 2 2 1
11 11 12 11 11 11 10 10 10 11 14 16 19 20 21 21 18 13 10 8 7 6 8 8 9 10 12 14 14 14 13 12 11 9 7 6 4 3 3 3 3 3 3 2 2 2 2 2 1
10 11 11 12 12 10 10 10 9 10 12 15 17 18 19 20 17 13 11 9 8 7 7 9 10 11 12 13 14 15 14 14 13 11 9 7 5 4 4 4 3 3 2 2 2 2 2 2 1
10 10 10 11 11 11 10 9 9 9 11 13 16 16 18 18 17 14 11 9 8 7 8 10 11 13 14 14 14 15 15 15 14 12 10 8 6 5 5 4 3 2 2 2 1 1 1 2 2
10 9 9 10 11 11 10 8 8 9 10 12 14 15 17 17 16 14 12 10 9 7 8 10 12 13 14 15 16 18 17 16 15 13 11 9 8 6 5 4 3 2 2 1 1 1 2 2 1
10 10 9 9 10 10 9 9 8 9 10 12 14 15 16 17 17 15 13 11 10 8 7 8 11 13 14 15 16 18 19 18 16 14 12 11 9 7 5 4 3 3 3 2 2 2 2 1 2
11 11 10 10 11 12 11 9 8 9 10 12 14 15 16 17 17 15 14 12 11 9 6 7 8 11 13 15 17 18 18 17 16 15 14 12 10 8 6 5 5 4 4 3 2 2 2 2 2
13 12 11 10 12 13 12 11 9 10 12 13 13 15 16 17 17 16 14 13 11 9 6 7 8 11 14 16 17 18 18 17 16 16 15 13 12 10 8 7 6 5 5 4 3 3 3 2 2
14 13 12 12 14 14 14 13 12 11 12 12 13 15 17 18 18 16 15 13 12 9 7 7 9 12 14 14 16 17 17 16 17 16 15 14 13 12 10 8 7 6 6 5 4 4 4 3 3
16 14 14 14 17 17 16 15 13 13 13 12 13 15 16 18 18 16 15 13 11 9 7 7 8 12 14 15 15 16 16 16 17 16 16 15 15 13 11 10 8 7 7 6 5 5 4 4 3
17 16 15 16 18 18 17 16 14 14 14 13 14 15 16 17 18 15 14 13 12 9 8 8 8 10 13 14 15 17 17 17 18 18 17 16 16 14 13 12 10 9 8 7 7 6 5 5 4
17 17 17 18 19 19 18 15 14 14 14 13 14 15 15 17 17 16 15 13 12 10 7 7 6 8 11 13 14 15 16 17 17 17 17 17 16 15 14 13 12 10 10 9 8 7 7 6 5
17 18 19 19 19 18 18 15 13 14 15 15 14 14 15 16 16 15 15 13 12 10 7 6 5 7 8 10 13 13 15 16 18 18 18 18 17 17 15 14 13 12 12 11 10 9 8 8 7
17 19 20 19 19 18 17 15 12 13 14 13 12 13 14 15 15 15 14 13 11 9 7 5 3 6 7 9 10 12 14 17 18 18 18 18 18 17 17 15 15 14 14 13 12 11 10 10 9
18 19 20 19 19 17 16 15 12 12 11 11 11 11 12 14 14 13 12 11 10 9 6 3 3 5 5 7 9 11 12 15 17 18 17 18 18 18 17 17 16 16 15 14 13 13 13 12 12
19 19 20 19 18 16 15 14 13 12 11 10 9 9 11 13 12 11 11 10 10 8 5 3 3 4 5 6 9 12 13 15 17 17 17 17 18 19 18 18 17 16 15 15 15 15 14 14 14
20 19 19 19 17 15 15 13 12 11 10 10 10 10 10 11 10 10 10 10 10 8 6 4 3 4 5 6 8 11 12 13 15 17 16 17 18 19 19 18 18 17 17 16 16 16 16 16 16
20 19 19 19 17 16 15 13 12 11 11 11 10 9 10 10 9 9 10 10 10 9 6 4 3 4 5 6 8 10 12 14 16 16 16 17 18 18 18 19 18 18 18 18 18 18 18 18 18
21 20 19 19 18 17 15 14 12 12 12 11 10 9 10 9 8 9 10 11 11 9 6 5 5 5 5 7 8 10 11 13 16 16 16 17 18 18 18 18 18 18 18 18 18 19 19 20 20
21 21 21 20 20 18 17 14 13 12 12 12 11 10 11 10 10 11 11 11 10 8 5 5 6 6 6 6 8 9 11 13 14 15 15 16 17 18 19 19 19 19 19 20 20 21 21 21 22
25 23 21 20 19 19 18 16 14 14 13 13 12 11 11 11 11 11 11 11 10 9 7 5 6 7 7 6 7 9 11 12 13 13 14 15 16 17 18 19 19 19 20 20 21 22 23 23 24

GEFSSGP_500_meanwind_114.txt.gz
Wind_Speed
12 12 12 13 16 16 13 12 12 13 13 13 12 11 11 9 7 4 2 3 5 7 8 9 10 10 10 10 10 10 9 9 10 10 10 9 8 8 7 7 7 6 6 5 5 5 4 4 4
11 11 11 12 16 11 12 11 12 12 12 12 12 11 11 10 7 5 2 2 4 6 8 9 10 10 10 10 10 10 9 9 9 9 9 8 8 7 6 6 6 5 5 5 4 4 4 4 4
11 10 10 12 12 10 10 11 11 11 12 12 12 12 11 10 8 6 3 1 4 6 7 9 10 11 11 10 10 10 10 9 9 9 8 8 7 6 6 5 5 5 4 4 4 4 4 4 4
10 10 10 11 9 9 10 10 10 11 12 12 13 13 11 9 8 6 4 1 3 5 7 8 10 11 11 11 11 11 10 9 9 8 8 7 6 6 5 5 4 4 4 3 3 3 3 3 4
10 10 10 8 7 9 9 9 9 10 12 13 14 14 13 10 9 7 4 2 2 5 6 8 10 11 12 13 12 12 10 9 9 8 7 7 6 5 5 4 4 3 3 3 3 3 3 3 4
10 10 9 5 7 9 9 8 9 9 11 12 13 14 13 12 10 8 5 3 3 5 6 9 11 12 13 13 13 12 11 10 9 8 8 7 6 5 4 3 3 3 3 3 2 2 2 2 3
10 9 7 6 7 8 9 8 8 9 11 12 13 14 14 13 11 9 7 4 4 5 7 8 11 13 13 14 14 13 12 11 10 9 8 7 6 5 4 3 2 3 3 2 2 2 2 2 3
9 8 7 6 6 7 8 7 8 8 11 12 13 14 15 14 12 10 8 5 4 6 7 9 11 13 14 14 14 14 13 12 10 10 9 8 6 5 4 3 2 2 2 2 2 2 2 2 3
8 7 4 5 5 6 7 7 7 8 10 12 13 14 15 15 13 11 9 6 4 5 7 9 11 12 13 14 15 15 14 13 11 10 9 8 7 5 4 3 3 2 2 2 1 2 2 2 2
7 5 4 4 5 6 7 7 7 9 11 12 13 14 15 15 13 12 10 7 5 5 6 8 10 13 14 15 15 15 15 14 12 11 10 8 7 5 4 4 3 2 2 1 1 1 1 2 2
6 5 5 5 5 5 6 7 7 8 10 11 13 14 15 15 15 13 10 8 7 6 8 9 10 13 14 15 16 15 15 14 13 12 11 9 7 6 5 4 3 3 2 2 1 1 2 2 3
6 5 5 5 5 5 6 7 7 8 8 10 12 13 14 15 15 14 12 10 8 7 7 9 11 13 14 15 16 16 16 15 15 14 12 10 8 7 5 4 4 3 2 2 2 1 2 3 3
6 6 6 6 6 6 6 7 7 8 9 10 12 13 14 14 15 14 12 11 9 7 7 8 11 14 15 16 17 18 17 17 16 14 13 11 9 8 6 5 5 4 3 2 2 2 2 3 3
7 7 8 8 8 7 7 7 8 9 9 10 12 13 13 14 14 14 13 12 10 8 7 8 10 13 15 16 18 17 17 17 16 15 13 12 10 9 8 7 6 5 4 3 2 2 3 3 4
8 9 9 9 9 7 7 8 9 9 10 11 12 13 13 14 14 14 13 13 10 9 8 7 9 12 15 16 18 18 17 17 17 16 15 13 11 9 9 8 7 6 5 4 3 2 3 3 3
9 9 10 11 9 7 6 8 10 9 10 11 12 12 12 14 14 14 14 13 12 10 9 8 8 11 14 16 17 18 19 19 18 18 16 14 12 10 10 9 8 7 6 5 3 3 3 3 3
10 10 11 12 10 8 7 8 10 10 11 12 12 12 13 14 14 14 14 13 12 10 9 7 7 9 13 16 17 18 19 19 19 18 17 15 13 12 11 10 8 7 7 6 5 4 4 3 3
11 11 12 12 11 10 9 10 11 12 13 13 13 13 13 14 14 14 14 13 11 10 8 6 6 8 11 14 16 17 18 18 18 18 18 16 15 13 12 10 9 8 7 7 6 5 5 4 4
12 12 12 13 12 11 11 11 12 13 14 14 14 13 14 14 13 13 12 12 11 10 9 7 7 8 10 13 15 16 18 18 18 18 18 17 16 14 13 12 10 9 9 8 7 6 6 5 5
13 13 13 14 13 12 11 12 13 14 14 14 13 13 13 13 14 12 12 11 11 10 9 8 7 7 9 12 14 16 18 17 17 18 18 17 16 15 14 13 12 11 10 9 8 7 7 6 6
14 14 14 15 13 12 11 12 13 13 13 13 12 12 12 12 13 13 12 11 11 10 9 8 7 7 8 11 13 16 18 17 16 17 18 17 17 16 15 14 13 12 11 10 9 9 8 8 7
16 16 15 14 13 13 11 10 13 12 13 12 11 11 11 11 11 12 12 11 11 10 9 8 7 6 8 11 12 13 15 17 17 17 17 17 17 17 16 15 14 13 12 12 11 10 10 9 9
18 17 15 14 13 13 12 11 11 13 12 12 11 10 10 10 10 11 11 11 11 10 9 7 6 6 7 9 12 13 14 16 16 17 18 17 17 17 17 16 16 15 14 13 12 12 11 11 11
18 17 15 14 13 13 13 11 11 12 12 11 11 10 10 10 10 10 10 10 10 9 8 6 5 5 6 7 10 11 13 15 15 15 17 17 17 17 18 17 17 16 16 15 14 14 13 13 13
18 16 15 14 14 13 14 12 12 12 11 11 11 10 9 10 10 10 10 10 9 9 8 6 5 5 6 7 9 10 12 13 15 16 16 17 17 18 17 17 18 17 17 16 16 16 15 15 14
18 17 15 13 12 13 15 12 11 11 11 11 10 10 9 10 10 10 10 9 9 9 8 6 5 5 6 7 9 10 12 13 14 16 17 17 18 18 18 18 18 19 19 18 18 17 17 17 17
20 19 17 17 16 14 14 13 12 11 11 11 11 10 10 10 10 10 9 9 9 9 8 7 6 5 6 8 10 11 12 13 14 16 17 18 18 18 19 19 19 20 20 20 19 19 19 19 19
20 19 19 17 16 14 14 13 11 11 11 11 11 10 10 11 11 10 10 10 10 9 9 8 7 6 6 8 10 11 12 13 14 16 16 18 18 18 19 20 20 20 21 21 21 21 20 20 20
20 20 19 18 18 14 13 13 14 12 11 11 11 11 11 12 12 11 11 11 10 9 9 9 8 7 6 7 9 10 12 12 14 15 16 17 18 18 19 20 21 21 21 21 21 22 22 21 22
21 20 20 18 18 16 15 14 16 13 12 11 12 12 12 13 13 12 12 12 10 9 9 9 9 9 8 8 9 10 11 12 13 14 15 16 17 18 19 19 20 20 21 21 21 21 21 22 21

GEFSSGP_500_meanwind_120.txt.gz
Wind_Speed
16 17 17 18 22 20 15 14 12 11 11 10 8 7 7 6 6 5 4 2 3 5 7 8 9 9 9 9 9 8 8 7 7 7 7 7 6 5 5 4 4 4 4 3 3 3 3 2 2
16 14 16 20 20 16 13 13 13 12 12 11 10 9 9 8 7 6 4 3 3 6 7 7 8 9 9 9 9 8 8 8 7 7 7 6 6 5 4 4 3 3 3 3 3 2 2 2 2
15 14 16 20 19 14 11 12 13 13 13 12 10 10 10 10 8 6 5 4 3 5 7 7 8 9 9 9 9 9 8 8 8 7 7 6 5 4 4 4 3 2 2 2 2 2 2 2 2
14 14 17 18 15 10 11 12 13 13 13 14 12 11 11 11 9 6 5 4 3 6 7 7 9 10 10 10 10 10 9 8 8 7 7 6 6 5 4 4 3 2 2 1 1 1 1 1 2
13 14 17 16 11 9 11 12 11 11 12 13 14 15 13 12 10 8 6 5 4 4 6 8 9 10 10 11 11 10 10 9 8 8 7 6 6 5 4 4 3 2 1 1 1 1 1 1 2
12 14 15 13 9 8 10 11 10 10 11 13 15 15 14 13 11 9 7 5 4 4 6 7 9 9 11 12 12 11 10 10 9 8 8 7 6 5 4 4 3 2 2 1 1 1 1 2 2
11 12 10 9 6 7 9 10 10 12 11 14 15 14 15 15 12 11 9 7 4 4 5 6 8 10 11 12 12 12 11 10 10 9 8 7 6 6 5 4 3 2 2 1 1 1 1 1 2
11 8 8 7 5 7 9 10 10 12 12 13 14 16 16 15 14 12 10 8 6 4 5 6 8 10 11 12 13 13 13 12 11 10 9 8 7 6 6 5 3 3 2 2 2 1 1 2 2
10 8 7 5 4 6 9 9 10 12 12 11 13 16 16 15 13 12 11 9 7 5 6 7 8 9 11 13 14 14 13 13 12 11 9 9 8 7 6 5 4 3 3 3 2 1 1 2 2
6 6 5 4 6 7 8 9 9 11 13 13 14 16 16 15 13 12 11 8 8 6 7 7 8 10 11 13 14 15 15 14 12 11 10 9 8 7 5 4 4 4 3 3 2 2 2 2 2
2 2 3 5 7 7 7 8 9 11 14 15 16 16 16 15 13 12 11 10 9 8 8 8 8 10 11 13 14 15 16 15 13 12 11 10 8 7 6 5 4 4 3 3 2 2 2 3 3
2 1 5 6 7 7 7 7 9 11 14 15 15 15 15 15 15 13 12 11 11 9 9 9 9 9 10 13 14 15 16 15 14 13 12 11 9 7 6 5 4 4 3 3 2 2 3 4 4
4 5 5 6 7 8 8 8 10 11 14 15 15 15 15 15 15 14 13 13 11 11 10 9 9 9 10 12 14 15 16 15 14 13 12 11 9 8 7 6 5 4 4 3 3 3 3 4 4
3 5 6 6 7 8 9 9 10 12 14 15 15 14 15 15 15 15 14 14 13 12 11 10 9 8 9 12 14 15 16 16 15 14 13 12 11 10 8 7 5 5 4 4 3 3 3 3 3
5 5 5 6 7 8 9 10 9 11 15 16 15 15 15 15 16 15 15 15 14 13 12 10 9 7 8 11 13 15 16 15 15 14 13 12 12 11 9 7 6 5 4 4 3 3 2 3 3
5 7 8 8 9 10 9 11 12 12 16 16 15 14 15 16 16 15 15 15 14 13 13 11 9 7 7 9 12 14 15 15 15 15 14 13 12 11 9 8 7 6 5 4 4 3 2 3 2
6 9 9 9 11 12 9 10 13 13 16 17 16 15 16 15 16 16 15 15 15 14 13 12 9 7 5 7 10 12 15 15 15 15 14 13 12 11 10 9 8 7 6 5 4 4 3 3 2
4 7 9 9 12 14 11 10 12 14 16 18 17 17 16 16 16 16 16 15 15 14 13 12 10 7 6 7 10 11 13 14 15 15 13 13 12 11 10 9 9 8 7 6 5 5 4 4 3
9 9 10 11 13 15 12 11 12 15 16 18 18 17 17 17 17 16 15 14 14 14 13 12 10 8 7 7 9 11 13 14 14 14 14 13 13 12 11 10 9 9 8 8 7 6 6 5 4
11 11 10 11 14 15 13 11 13 15 17 18 18 17 17 16 17 16 15 14 14 13 12 12 11 9 7 7 7 9 11 14 14 14 13 14 14 13 12 11 10 10 9 9 8 8 7 6 6
12 12 11 13 14 13 13 12 14 17 16 18 19 18 17 18 16 14 14 14 13 13 13 13 11 9 7 6 6 8 10 13 15 14 14 14 15 15 14 13 11 11 10 10 10 9 9 8 7
13 13 14 15 13 12 11 13 15 18 17 16 17 18 17 17 15 13 14 14 13 14 13 13 11 8 7 6 6 7 9 10 13 14 14 15 15 14 14 14 13 12 12 11 11 11 10 9 9
14 15 15 15 14 12 10 12 14 16 17 15 17 18 18 16 15 15 14 14 13 13 13 13 11 9 7 6 6 7 8 9 11 13 14 15 15 14 14 15 15 14 13 13 13 12 12 11 11
16 16 15 13 12 12 10 11 12 16 17 18 20 19 18 17 15 14 14 14 13 13 13 12 11 8 6 6 6 7 8 8 9 11 13 14 14 15 15 15 16 15 15 14 14 14 13 13 12
16 15 13 12 12 12 11 11 13 18 19 21 21 20 18 16 16 15 14 14 13 13 12 12 11 8 7 6 5 6 7 8 9 10 12 13 14 15 15 16 17 17 16 16 16 15 14 14 14
16 15 13 12 12 13 11 11 13 16 19 20 19 19 18 16 16 15 14 14 13 12 12 12 10 8 6 5 6 6 6 7 9 11 12 13 14 15 16 16 17 17 18 17 17 16 16 16 16
17 16 14 16 16 16 13 11 16 19 18 17 18 18 18 16 16 14 13 13 12 11 11 11 9 7 6 6 6 7 8 9 9 11 12 13 14 15 16 16 17 17 18 18 18 18 18 18 18
18 16 16 17 17 17 15 15 18 19 18 16 16 18 18 16 15 14 14 12 12 12 11 10 9 8 7 7 7 9 9 10 11 11 12 13 14 15 16 17 17 18 19 19 19 19 19 20 20
17 18 19 18 18 16 16 16 18 19 19 18 16 18 19 17 16 15 14 14 13 13 12 11 10 9 8 8 8 8 9 10 12 13 13 14 15 16 17 18 18 18 19 19 19 20 20 21 21
18 17 17 19 19 18 16 17 19 16 17 18 17 20 20 18 17 16 15 14 14 14 13 12 11 11 10 9 10 9 10 10 11 12 13 14 15 16 17 18 19 19 19 19 19 20 20 21 21

GEFSSGP_500_meanwind_126.txt.gz
Wind_Speed
15 15 17 17 20 22 22 23 21 19 19 18 18 16 14 13 10 8 6 3 3 4 6 6 6 7 8 7 6 5 3 2 2 1 1 2 2 2 2 2 2 2 1 1 1 2 2 2 3
14 14 16 17 19 21 22 21 20 20 19 19 18 17 15 12 10 8 6 3 3 4 5 6 6 7 7 7 6 5 4 3 3 2 2 2 2 3 3 3 2 2 1 1 1 1 2 2 2
14 13 14 17 19 19 21 20 20 20 20 20 18 17 14 13 11 9 7 4 2 3 4 5 7 7 7 7 7 5 5 4 3 3 2 3 3 3 3 3 3 2 1 1 1 1 1 1 2
12 11 13 16 19 20 20 20 20 20 20 19 18 17 15 14 12 10 7 5 3 2 4 6 7 8 8 8 7 6 5 5 4 3 3 3 4 4 4 3 3 2 2 1 1 1 1 1 1
11 11 13 17 18 17 19 19 19 18 19 18 18 17 17 15 13 10 8 6 3 2 2 4 5 7 8 7 7 7 6 6 5 4 3 3 3 4 4 3 3 3 2 2 2 1 1 1 1
9 10 12 15 16 16 17 18 18 17 18 18 17 18 17 16 13 10 8 6 3 1 2 4 5 6 8 8 8 8 8 7 6 5 4 4 4 4 4 4 3 3 2 2 2 1 0 1 1
5 10 13 14 14 15 16 17 18 18 18 18 17 17 16 15 14 12 9 6 4 1 1 4 5 7 8 9 9 9 9 8 7 6 5 4 4 4 4 4 4 3 3 2 2 1 0 1 1
7 9 11 12 12 13 14 16 17 17 18 19 18 17 16 15 13 12 10 8 4 3 2 3 5 6 8 9 10 10 10 9 8 7 6 5 4 4 4 4 4 3 3 3 2 1 1 1 2
5 7 9 10 11 11 12 13 15 17 17 19 19 18 16 14 13 13 11 9 6 4 3 3 4 6 7 10 11 11 11 11 10 8 6 5 5 4 4 4 4 4 3 3 3 2 2 2 2
1 4 7 7 8 9 10 12 13 15 17 18 18 17 16 15 14 13 12 10 8 6 4 3 5 6 7 10 11 12 12 11 10 9 7 6 5 4 3 3 3 3 3 3 2 2 2 3 3
1 2 3 4 6 7 8 10 12 14 16 17 17 16 15 15 14 14 14 11 9 8 6 5 5 7 8 10 12 13 12 12 11 10 8 7 5 4 3 3 3 3 3 2 2 2 2 3 3
4 4 3 4 4 5 7 9 11 13 15 16 17 16 15 15 15 14 14 12 10 9 8 7 6 6 7 9 12 12 13 12 12 11 10 8 6 5 4 3 3 3 3 2 2 2 2 2 3
4 4 3 3 4 5 7 9 11 12 15 16 17 16 15 16 15 14 14 12 11 9 8 8 6 6 6 7 10 11 12 13 13 12 11 9 8 6 5 4 4 3 3 3 2 2 2 2 2
2 2 2 3 4 6 7 10 13 15 16 16 16 17 16 16 16 14 13 12 11 10 9 8 6 4 5 6 8 11 13 14 13 13 12 10 9 7 5 4 3 3 2 2 2 2 2 2 2
1 1 2 3 5 7 9 11 12 15 16 16 16 17 16 16 15 14 13 12 11 11 10 9 6 4 3 4 7 11 13 14 14 14 13 11 10 8 6 5 4 3 3 2 3 2 2 2 2
2 2 1 4 5 7 10 11 12 15 17 16 17 18 18 17 16 13 14 12 11 11 10 10 8 6 3 3 5 9 13 14 15 14 14 12 11 9 7 6 5 4 3 3 3 3 3 3 3
4 4 2 4 5 7 9 12 14 16 17 17 18 18 19 18 15 13 13 12 11 11 10 10 9 6 5 3 5 8 11 13 15 14 14 12 11 9 8 6 6 5 4 4 4 3 3 3 3
7 6 5 4 6 9 11 14 14 16 17 18 18 18 19 18 16 14 12 11 11 11 11 10 9 7 5 4 4 7 9 13 13 13 14 13 12 10 8 7 6 6 6 5 5 4 4 4 3
9 8 6 4 6 10 12 13 14 16 16 17 18 18 18 17 16 15 13 11 11 11 10 10 9 7 5 4 4 6 8 12 13 13 14 14 12 11 9 8 7 7 7 7 6 6 6 5 5
10 10 8 8 9 11 13 13 13 14 15 16 18 18 16 17 16 15 13 11 10 10 10 10 9 7 5 4 3 5 7 10 11 13 14 14 13 12 11 9 9 8 8 8 7 7 7 7 7
11 11 11 12 12 14 15 14 13 13 14 15 16 16 16 15 15 14 13 12 10 10 10 10 8 7 6 5 2 4 7 9 10 12 14 14 13 13 11 10 10 9 9 9 9 9 9 9 9
12 12 12 13 13 13 15 15 14 14 14 14 15 16 15 15 15 14 13 12 10 9 9 10 9 7 6 4 3 3 7 9 10 12 13 13 13 12 12 11 11 10 11 10 10 10 10 10 10
13 14 14 14 14 13 13 15 14 14 13 14 15 15 16 16 15 14 13 12 10 9 9 10 9 7 6 5 4 5 7 9 10 10 11 12 12 12 13 12 12 12 12 12 11 11 11 11 11
15 15 15 15 14 12 13 15 14 13 13 12 14 15 16 16 15 14 13 12 11 10 10 10 8 7 6 5 4 5 6 8 9 9 10 11 12 13 13 13 13 13 13 13 12 11 12 12 12
16 16 16 15 14 12 12 13 12 12 13 13 14 15 16 15 15 15 13 11 11 10 9 8 8 7 6 5 4 5 6 8 9 9 9 11 11 12 12 13 13 13 14 14 13 13 13 13 13
16 16 16 16 14 13 13 13 13 12 13 13 13 13 13 13 14 14 12 10 10 10 9 8 7 7 5 4 3 4 5 7 8 9 9 10 11 12 12 13 14 14 14 14 14 14 14 15 15
15 15 16 17 16 17 16 14 14 13 14 13 14 15 14 14 13 12 11 9 10 9 9 8 7 6 5 4 3 5 5 6 7 8 9 10 11 12 13 13 13 13 14 15 15 16 16 16 16
14 14 17 18 18 18 17 16 14 15 15 15 15 15 14 15 14 11 9 8 9 9 9 9 8 7 5 4 3 5 6 7 8 9 10 10 11 12 13 14 15 14 14 15 16 16 17 17 17
15 15 17 18 19 19 18 17 17 17 17 16 15 15 14 15 15 12 9 8 9 9 9 10 9 8 6 5 4 5 6 7 8 8 9 10 12 13 13 14 16 16 17 16 16 16 16 17 19
19 17 17 19 19 20 21 19 18 18 18 17 15 16 16 14 13 13 10 10 9 9 9 9 9 8 7 6 6 6 6 7 8 9 10 11 12 13 14 15 15 16 17 17 17 17 17 18 19

GEFSSGP_500_meanwind_132.txt.gz
Wind_Speed
15 16 18 20 22 22 24 26 25 23 23 22 21 19 16 13 11 8 6 4 4 4 5 5 5 6 7 7 7 8 8 8 8 8 8 8 7 7 7 7 7 6 5 5 5 5 5 5 5
14 15 16 19 21 22 24 25 24 23 22 21 21 19 17 14 11 9 6 4 3 3 3 4 5 5 6 6 6 7 7 7 7 7 7 7 7 7 7 6 6 5 5 4 5 5 5 4 4
12 14 16 18 20 22 23 24 23 23 22 21 21 19 17 14 11 10 8 5 2 2 3 4 5 5 5 5 5 5 5 6 6 6 6 6 6 7 7 6 5 5 4 4 4 4 4 4 4
11 13 14 16 19 21 22 23 23 22 22 21 20 19 17 14 12 9 8 6 3 1 3 4 4 4 5 4 4 4 4 4 5 4 5 5 6 6 6 6 5 4 4 3 3 3 4 3 3
10 11 13 15 18 20 20 21 22 22 22 22 21 19 18 15 12 9 8 6 4 2 2 3 4 5 5 4 4 3 3 4 4 3 4 4 5 5 5 5 5 4 3 3 3 3 3 3 3
8 9 11 13 16 18 19 21 21 22 22 22 21 19 18 16 13 10 8 6 4 2 1 2 3 4 4 4 4 4 4 3 3 2 2 3 3 4 4 4 4 4 3 3 3 2 2 2 2
5 7 9 11 13 15 17 19 20 20 21 22 21 19 18 16 14 11 8 6 3 2 1 1 2 3 4 4 4 5 4 3 2 2 2 2 2 3 3 3 3 3 3 3 2 2 1 1 1
4 5 7 9 11 13 15 16 18 19 20 21 20 19 18 16 14 12 10 6 4 2 1 0 2 3 4 5 5 5 5 5 3 2 2 1 2 2 2 3 2 2 2 2 2 1 1 1 1
3 4 7 8 10 12 13 15 17 18 19 19 19 19 18 16 14 12 11 8 6 3 1 2 2 3 4 5 6 6 6 6 5 4 3 2 1 1 1 2 2 2 2 2 1 1 0 1 1
4 6 8 9 10 11 13 14 15 17 18 18 18 18 17 17 15 12 11 9 7 5 3 2 2 3 4 5 6 7 7 6 6 6 5 3 2 1 0 1 1 1 1 1 1 0 0 1 1
5 6 8 9 9 10 11 13 14 16 17 17 17 17 17 17 15 12 10 9 8 6 5 3 3 4 4 5 6 8 8 8 7 7 6 5 3 2 1 0 1 1 1 1 1 1 1 1 1
5 6 7 8 8 9 10 11 13 14 16 17 17 16 17 17 15 13 10 9 9 7 6 5 5 3 4 6 7 8 9 10 9 8 7 6 5 4 2 1 1 0 1 1 1 1 1 1 1
4 5 6 7 7 8 9 10 12 13 14 15 16 16 17 17 15 13 11 10 9 8 7 6 5 4 4 6 7 9 10 10 10 10 9 8 7 5 4 2 2 1 1 1 1 1 1 1 1
4 4 5 6 7 8 9 10 10 12 12 13 14 16 17 16 15 13 11 9 9 8 8 7 6 4 3 6 8 10 11 11 11 11 10 10 8 6 5 3 3 2 1 1 1 2 2 2 2
3 4 5 6 6 7 8 9 10 11 11 12 14 16 17 17 15 14 12 10 8 8 8 8 7 4 3 5 7 9 10 11 12 12 12 11 9 7 6 4 4 3 3 3 2 2 3 3 2
5 5 5 6 7 7 8 8 10 11 11 12 14 16 16 17 16 14 12 9 8 9 8 9 9 5 3 5 7 9 10 12 13 13 13 12 10 9 7 6 5 4 4 4 3 3 3 3 3
6 6 7 8 9 9 9 9 10 11 11 11 13 14 15 16 16 14 12 9 9 9 9 9 8 6 4 3 5 8 10 11 13 13 13 13 12 10 9 8 7 6 5 5 4 4 4 3 3
9 9 9 10 10 10 10 10 10 11 11 11 11 13 15 16 15 13 12 10 9 9 9 9 7 6 5 4 5 6 9 11 12 13 13 13 13 12 10 9 9 7 7 6 5 5 5 4 4
11 11 11 12 12 11 11 11 11 11 10 10 11 12 14 15 15 14 12 10 10 10 9 9 8 6 4 4 5 6 9 10 11 12 14 14 13 13 11 11 10 9 8 7 7 6 6 5 5
13 13 13 14 15 14 13 12 12 12 11 11 11 12 13 14 15 14 13 11 10 10 9 10 8 7 4 3 5 6 8 10 11 11 13 14 14 14 13 12 11 10 9 8 8 8 7 7 7
14 14 15 16 16 16 14 13 13 13 12 12 12 13 13 14 14 14 13 11 10 10 9 9 8 7 5 4 4 5 7 10 12 12 14 14 14 14 14 13 12 11 10 10 9 9 9 9 8
16 16 16 16 16 16 15 14 13 14 12 12 11 12 12 13 14 14 13 11 10 9 9 9 8 7 6 5 4 5 7 9 11 13 14 14 15 15 15 14 14 13 12 11 11 11 11 10 10
17 18 17 17 17 16 16 15 14 14 12 11 10 11 11 12 14 13 12 11 10 9 8 8 8 7 5 5 5 5 6 9 10 13 14 15 16 16 16 16 15 15 14 12 12 12 12 12 12
19 19 18 18 17 16 16 16 14 13 11 10 10 10 11 12 13 14 12 11 10 9 8 8 7 7 6 5 5 5 6 8 9 12 14 14 15 15 16 16 15 15 14 14 14 14 14 14 14
20 19 19 19 18 17 17 16 15 13 12 10 10 10 11 12 13 14 13 12 11 9 9 8 7 7 7 5 5 5 6 7 8 10 13 14 14 15 15 15 15 16 16 15 15 15 14 14 14
21 20 20 19 18 17 17 17 14 13 11 11 10 10 11 13 14 14 14 12 11 10 10 9 8 8 7 6 5 5 6 7 8 10 12 13 13 14 14 15 15 15 16 16 16 15 16 16 15
22 22 21 20 19 18 17 17 14 13 12 12 11 10 11 12 13 13 14 13 11 11 10 10 9 9 7 7 6 6 6 6 7 9 11 12 13 12 13 14 15 16 16 17 17 16 17 17 17
24 22 21 20 19 19 17 16 15 13 12 12 11 11 12 12 13 13 13 13 11 11 10 10 8 7 7 7 7 6 6 6 7 8 11 12 12 13 13 15 16 16 17 18 18 17 18 18 18
24 23 22 21 20 19 18 15 14 14 13 12 12 12 13 12 13 13 13 12 11 10 9 9 8 7 7 6 6 6 7 7 7 8 10 11 13 13 13 15 16 16 17 17 18 19 19 19 19
26 24 23 21 19 19 18 15 14 14 14 13 12 13 13 12 12 13 13 12 11 10 9 8 8 7 6 6 6 6 7 8 8 9 10 11 12 13 14 14 16 17 17 18 18 19 19 20 19

GEFSSGP_500_meanwind_138.txt.gz
Wind_Speed
18 18 18 18 22 19 19 20 20 19 18 17 17 16 15 13 10 8 7 8 8 8 8 9 9 9 10 10 10 10 11 11 12 12 12 11 11 10 10 10 9 8 7 7 7 7 6 6 5
18 18 17 19 20 17 18 19 20 19 18 18 17 16 15 13 11 9 8 7 7 7 7 8 8 9 9 9 10 10 11 11 11 11 11 10 10 9 9 8 8 8 7 6 7 6 6 5 5
17 17 16 18 16 16 17 18 19 20 19 19 18 17 15 13 11 9 8 8 7 7 7 8 8 8 9 9 9 10 10 10 10 10 10 9 9 8 8 8 7 7 7 6 7 6 5 5 5
15 16 17 16 14 15 16 17 18 20 19 19 18 17 15 13 11 9 8 7 6 6 7 7 7 8 8 9 9 9 10 10 9 9 9 9 8 8 8 7 7 6 6 6 6 6 5 5 5
15 16 16 13 13 15 16 16 17 19 19 19 18 17 16 13 11 9 7 6 5 5 6 6 6 7 8 8 9 9 9 9 9 9 8 8 7 7 7 7 7 6 6 6 5 5 5 5 5
15 15 12 12 13 14 15 16 17 18 19 18 17 17 16 14 12 9 8 6 4 4 4 5 6 7 7 7 8 9 9 9 9 8 8 8 7 7 7 6 6 6 6 5 5 4 4 5 5
13 13 11 11 12 14 14 15 16 16 17 18 17 16 15 13 12 10 8 6 4 3 2 3 5 6 6 7 8 9 9 9 9 8 8 8 7 7 6 6 5 5 5 5 4 4 4 4 4
12 12 10 10 11 13 13 14 15 15 16 16 16 16 15 13 12 10 9 7 5 3 2 2 4 5 5 6 7 8 8 9 9 8 8 7 7 6 5 5 5 5 5 4 4 4 4 4 4
10 10 7 8 10 11 12 13 14 14 15 16 16 15 14 13 12 11 10 7 5 3 1 1 3 4 4 6 7 8 8 9 9 9 8 8 7 6 5 5 5 5 4 4 4 4 4 4 3
9 7 6 8 9 10 11 12 13 14 15 16 16 15 14 13 12 11 10 8 5 4 3 0 2 4 4 6 7 8 8 9 9 9 9 8 7 6 5 4 5 5 5 4 4 4 4 4 3
7 6 6 7 8 9 9 11 12 13 14 15 15 15 14 12 11 11 10 7 5 5 4 2 1 3 4 6 8 8 8 10 10 9 9 9 8 7 5 4 5 5 4 4 4 4 4 4 3
6 6 6 7 8 8 9 9 11 12 13 14 14 14 13 12 11 10 9 7 5 5 5 4 3 4 3 5 7 8 9 10 10 10 10 9 8 7 6 5 5 5 4 4 4 4 4 3 3
6 5 6 6 7 7 8 9 9 10 11 13 14 14 14 13 11 9 8 7 6 5 6 5 5 4 4 5 7 8 9 10 10 10 10 10 9 8 6 5 5 4 4 4 5 4 4 3 3
4 5 6 7 7 7 7 8 9 10 10 11 13 14 14 14 12 10 9 8 7 6 6 5 5 4 5 6 6 8 10 11 11 11 11 11 10 8 7 5 5 5 4 4 5 5 4 4 3
3 4 6 6 7 7 8 8 8 9 10 11 12 13 13 14 13 11 9 8 8 7 7 6 6 5 5 6 6 8 10 11 12 11 12 11 11 9 8 6 6 5 5 4 4 4 4 4 3
3 4 5 6 7 7 7 6 8 9 10 11 12 12 13 14 14 12 9 8 9 9 8 7 7 7 6 5 7 8 10 11 11 12 13 13 12 10 9 7 6 6 5 5 5 4 4 4 4
3 4 5 6 7 8 7 7 8 9 10 11 11 11 12 12 13 13 10 9 9 9 8 8 8 8 6 5 6 8 9 11 11 11 12 13 13 12 10 9 8 6 6 5 5 5 5 5 5
3 4 5 7 7 7 8 8 9 10 10 10 10 11 11 12 13 13 12 11 10 9 9 9 8 8 5 4 6 8 9 10 11 11 12 13 13 13 12 10 9 8 7 6 6 5 5 6 6
4 5 6 7 8 8 8 9 10 10 10 10 9 10 11 12 13 13 13 13 11 10 9 9 9 8 6 5 6 8 8 10 11 11 11 12 12 13 12 11 10 9 8 7 7 6 6 6 6
6 6 8 9 9 9 9 9 10 10 10 10 9 10 10 11 13 13 13 13 12 10 10 10 9 9 7 6 5 7 8 9 10 11 12 12 13 14 13 12 11 10 9 8 8 8 8 7 7
8 8 9 10 9 10 9 10 11 11 10 10 10 10 10 11 12 13 13 13 12 11 10 9 9 9 7 7 5 6 7 8 10 11 13 13 13 14 15 13 12 11 11 10 9 9 9 9 9
11 11 10 10 9 10 9 8 11 11 11 11 10 11 11 11 12 12 13 13 13 11 10 9 9 8 7 7 5 5 5 8 10 12 13 14 14 15 15 14 13 12 12 11 11 11 11 11 11
13 12 12 11 11 11 11 8 10 11 11 10 10 11 11 11 11 12 13 13 12 11 11 10 9 9 8 7 6 6 7 8 10 11 12 14 14 15 15 15 14 13 13 12 12 12 12 13 12
14 14 13 12 12 12 11 10 10 10 10 11 11 11 11 11 11 12 13 13 12 12 11 10 10 10 9 7 7 7 7 8 10 10 12 13 14 15 15 15 15 15 14 14 13 13 13 14 14
15 14 13 12 12 12 13 11 11 11 11 11 11 10 11 11 12 12 12 12 13 12 11 11 10 9 8 7 7 7 8 8 10 10 11 12 14 16 16 16 15 15 15 15 14 14 14 15 15
17 16 14 12 11 13 14 12 12 12 11 10 10 11 11 11 11 12 12 12 12 12 11 11 10 9 8 7 7 8 9 9 9 10 10 12 13 15 16 16 15 15 15 15 15 15 16 16 16
19 17 16 16 15 13 14 13 12 12 11 10 10 10 11 11 12 12 12 12 13 12 11 10 10 10 9 8 8 8 8 9 9 10 10 12 13 14 14 14 14 15 15 16 16 16 16 17 17
22 20 19 17 15 13 14 12 11 11 11 10 10 10 11 12 12 11 12 12 12 12 11 10 10 10 10 9 8 7 8 8 9 10 10 11 12 13 14 13 13 14 15 15 16 16 17 18 18
23 22 20 19 17 14 12 12 12 11 10 9 9 10 10 11 11 12 12 12 12 12 11 11 10 10 10 9 8 9 8 8 9 9 10 10 11 12 14 13 13 14 14 15 16 17 17 18 19
25 23 22 21 19 16 14 13 14 11 10 10 9 10 10 11 12 12 12 12 12 12 11 11 10 10 9 9 8 8 8 9 9 9 9 10 11 12 13 13 14 14 15 16 17 18 19 19 19

GEFSSGP_500_meanwind_144.txt.gz
Wind_Speed
21 21 22 24 25 17 14 14 12 11 10 9 8 7 7 5 4 3 2 3 3 4 5 5 6 6 7 7 7 8 8 8 8 8 8 8 8 7 7 7 7 6 6 6 6 5 5 5 5
21 19 23 26 20 15 15 14 14 13 12 10 9 8 7 6 5 4 3 2 3 3 4 5 5 6 7 6 6 7 8 8 7 7 7 7 7 7 7 6 5 5 5 5 5 5 5 5 5
21 21 25 23 14 14 14 14 15 15 13 12 11 9 7 7 6 5 3 2 3 3 4 5 5 5 5 5 6 6 7 7 7 7 7 7 6 6 6 6 5 5 5 5 5 4 4 4 4
19 23 24 16 13 14 15 14 14 15 14 13 12 10 8 7 7 5 4 3 3 3 3 4 4 4 4 4 5 5 7 7 7 7 7 6 6 6 6 5 5 4 5 5 4 4 4 4 4
21 22 20 13 13 14 15 14 14 14 14 13 12 11 9 8 7 6 4 4 3 2 2 3 3 4 4 4 4 5 5 6 6 6 6 6 5 5 5 5 4 4 5 4 4 4 4 4 4
20 20 16 11 11 13 14 14 14 14 14 14 13 11 10 8 8 7 6 5 3 2 1 2 2 3 4 4 5 5 5 5 6 6 6 6 5 5 4 4 4 4 4 4 3 4 4 4 4
17 17 12 9 10 12 13 13 13 13 14 14 14 13 11 9 8 7 7 5 3 1 1 1 2 3 4 5 5 5 6 6 6 6 6 6 5 4 4 4 4 4 4 3 3 3 3 3 3
14 14 10 7 9 11 12 12 12 12 14 15 15 14 12 10 9 8 7 6 4 2 1 1 2 3 4 5 7 6 6 7 7 7 6 6 5 5 5 4 4 3 4 3 3 3 3 2 3
12 13 8 5 7 9 10 10 11 11 12 14 14 14 13 12 10 9 8 7 6 4 2 2 3 4 5 5 7 8 7 7 7 8 7 6 5 4 4 3 3 3 4 3 3 3 3 2 3
10 9 4 4 5 7 10 12 13 13 15 17 16 16 14 13 11 9 9 8 7 6 4 4 5 5 5 6 6 8 8 8 8 8 8 7 5 5 4 3 3 3 4 4 3 3 3 3 2
6 4 2 4 6 7 9 12 13 14 16 17 17 17 15 14 12 11 10 9 9 8 7 6 6 5 5 6 7 7 8 8 8 8 8 7 6 5 4 4 3 3 3 3 3 3 3 3 2
4 2 3 4 7 8 8 9 11 13 15 17 17 17 16 14 13 12 12 10 9 9 9 8 7 5 4 5 5 7 7 8 8 8 8 7 7 5 5 4 3 3 4 3 3 3 3 3 3
2 2 3 6 8 8 6 7 10 12 15 17 17 17 16 15 15 14 13 12 11 10 9 9 8 7 6 6 6 6 7 8 8 7 7 6 6 6 5 4 4 4 3 3 3 3 3 3 2
4 2 4 6 6 7 7 4 8 13 17 17 16 16 16 16 16 15 14 13 12 11 11 10 8 8 7 7 6 6 7 8 8 8 8 7 7 6 6 5 4 3 3 3 3 3 3 2 2
5 4 5 6 7 8 9 9 9 14 18 18 17 17 17 17 17 16 15 14 14 13 12 11 9 10 9 8 6 6 7 8 8 9 9 8 8 7 7 6 5 4 4 3 3 3 3 2 1
7 7 6 6 8 8 9 10 10 14 17 18 18 17 17 17 17 16 15 15 15 15 14 11 10 10 9 7 5 5 6 7 8 9 9 9 9 8 7 7 6 5 5 4 3 4 4 3 3
7 6 5 7 9 8 8 9 11 13 15 18 18 18 16 16 16 16 15 15 15 15 15 12 10 11 9 7 5 5 5 7 8 9 10 10 10 9 8 8 7 6 6 5 4 4 4 4 4
0 3 5 7 10 7 8 8 11 12 14 16 17 17 16 16 16 16 16 17 17 16 15 13 11 11 10 8 6 5 4 6 8 9 9 10 10 10 9 9 8 7 7 6 5 5 5 5 5
9 8 5 7 10 7 7 8 10 13 13 14 16 16 16 15 15 15 16 17 17 17 16 13 11 11 10 9 7 5 5 6 8 9 10 10 10 11 10 10 9 9 8 7 6 6 6 6 6
8 6 5 7 10 7 6 8 9 12 15 15 16 16 15 15 15 15 16 17 17 17 16 14 12 11 11 10 8 6 6 6 7 8 10 11 11 11 11 11 10 9 9 8 7 7 7 7 7
7 6 7 8 9 7 9 11 13 13 15 16 16 15 15 15 15 15 15 16 17 17 16 15 13 12 11 11 10 8 7 7 7 8 9 11 11 11 12 12 11 10 10 9 9 9 9 8 8
7 8 10 9 7 5 5 10 15 14 16 17 17 16 15 15 16 16 15 16 17 17 17 15 14 13 12 11 10 9 8 7 8 9 9 10 11 12 12 12 12 11 11 10 10 10 10 10 9
11 11 10 8 7 6 5 8 12 14 15 17 16 15 15 15 16 16 15 15 16 17 17 16 15 14 13 12 10 9 8 7 7 8 9 9 11 12 13 13 13 12 12 11 11 11 11 10 10
12 11 9 7 7 7 7 8 11 13 14 16 17 16 15 15 16 16 15 15 16 17 16 16 15 14 14 13 11 9 8 8 7 8 9 10 10 11 12 12 13 13 12 12 12 12 12 11 12
13 11 7 7 10 10 8 8 12 16 17 18 18 17 16 15 15 14 13 14 15 16 16 16 15 14 14 13 12 10 10 9 8 9 9 10 10 11 12 12 13 14 13 13 13 13 13 13 13
14 12 9 7 8 11 10 8 14 16 17 17 16 16 15 14 14 12 13 14 16 16 17 16 16 15 14 13 12 11 10 10 9 10 9 9 10 11 11 12 13 14 15 15 14 14 14 14 14
17 15 12 13 12 11 11 12 18 19 17 16 15 15 14 15 14 12 13 14 15 16 17 16 16 16 15 13 12 12 11 10 10 10 9 9 9 10 11 12 13 14 14 15 15 15 15 15 15
20 17 15 16 15 14 12 15 19 19 16 17 17 15 15 15 13 13 14 15 16 16 16 16 16 16 15 14 13 12 12 11 10 10 9 8 8 9 11 12 13 13 13 14 14 15 15 16 16
21 21 19 17 16 15 13 16 18 17 18 19 19 17 15 15 15 14 14 15 16 16 16 17 16 16 15 14 13 13 12 11 10 10 9 9 8 8 9 11 13 13 13 14 13 14 14 15 16
22 22 20 21 19 18 15 15 19 17 17 19 19 18 16 15 15 15 14 15 16 16 16 17 17 16 15 15 14 14 13 11 10 10 10 9 9 9 10 11 12 13 14 14 15 15 15 16 17

GEFSSGP_500_meanwind_150.txt.gz
Wind_Speed
21 22 22 23 25 24 24 24 21 19 17 16 14 13 13 11 9 8 7 5 6 7 6 5 5 4 5 6 5 4 4 4 3 2 2 2 2 2 2 2 2 2 2 2 3 3 4 4 4
20 21 21 24 25 25 25 24 22 20 18 17 15 13 12 10 9 9 8 6 6 6 5 5 5 5 5 5 5 4 3 3 3 2 2 2 2 2 2 2 2 1 1 1 2 3 3 3 4
18 20 21 24 24 25 25 24 22 21 20 18 16 13 12 10 9 9 8 7 6 5 5 5 5 4 4 4 4 3 2 2 3 3 2 2 2 2 2 2 2 2 2 1 1 1 2 3 3
16 19 21 23 23 25 25 24 23 22 20 19 17 15 13 11 10 9 8 8 7 5 5 4 4 4 3 2 3 2 2 2 2 3 3 3 2 2 2 2 3 2 1 1 1 1 1 2 3
14 18 21 22 23 24 24 24 23 21 21 20 18 16 15 12 10 9 9 8 6 5 4 3 3 3 2 2 2 1 1 1 2 3 3 3 3 3 3 2 2 2 1 1 1 1 2 3 3
15 19 20 21 22 23 22 22 21 20 20 20 18 17 15 13 11 10 9 7 6 5 3 2 1 1 1 1 1 1 1 2 2 3 3 4 3 3 3 3 2 2 1 1 1 1 2 3 3
15 17 19 19 20 21 21 21 21 21 20 19 19 18 16 14 11 10 9 8 7 6 3 2 1 0 1 1 1 2 2 3 3 3 3 4 4 4 3 3 2 2 2 2 2 2 3 3 3
15 16 17 17 17 19 20 20 19 20 21 20 20 19 17 15 12 10 10 9 7 6 5 2 0 1 2 2 3 3 3 3 4 4 4 4 3 3 3 3 2 1 1 1 1 2 3 3 3
13 14 13 14 14 16 17 17 19 20 20 21 20 19 18 16 13 12 11 10 8 6 5 3 2 1 2 2 3 3 4 4 4 5 4 4 4 3 3 3 2 2 2 2 1 2 2 3 3
11 11 11 12 12 14 15 16 18 19 21 21 20 19 18 16 14 13 12 11 9 9 8 6 3 1 2 2 2 3 4 4 5 5 5 5 5 4 3 3 2 2 2 2 1 2 2 3 3
8 9 10 10 11 13 14 15 17 18 19 21 20 19 18 17 15 13 12 11 10 10 9 7 5 2 3 2 2 3 4 4 5 5 5 5 5 4 3 3 3 2 2 2 2 2 2 3 3
7 8 8 9 11 13 15 15 16 18 19 20 21 20 18 17 15 13 13 12 11 10 9 7 6 4 3 2 2 3 4 5 5 5 5 5 6 5 4 3 3 3 2 2 2 2 2 3 3
7 8 8 8 10 12 14 15 15 17 19 21 20 20 19 17 15 14 13 13 12 11 10 8 6 5 3 2 3 2 3 4 5 5 6 6 6 6 5 5 4 3 2 2 2 2 3 3 3
7 8 8 8 9 11 13 14 16 17 19 20 20 19 18 17 17 15 14 14 13 12 11 9 6 6 5 3 2 3 3 4 5 6 6 6 6 6 6 5 4 4 3 2 2 3 3 3 3
7 7 7 8 9 11 13 15 17 16 18 19 20 19 18 17 17 16 15 14 13 13 12 10 9 8 6 4 2 2 3 5 6 7 6 7 6 6 6 6 5 4 4 3 3 3 3 3 3
8 6 5 6 8 11 13 15 15 16 18 19 19 19 19 18 17 16 16 14 13 13 12 10 10 9 8 6 3 1 2 4 6 7 8 7 7 7 6 6 6 5 4 4 3 3 3 3 3
7 5 4 4 7 10 12 14 14 15 17 19 20 19 18 18 17 16 15 15 14 13 12 11 10 10 9 7 4 1 2 4 6 7 8 8 8 8 7 7 6 6 5 4 4 4 4 4 4
6 3 2 4 6 8 10 12 13 14 15 19 20 19 18 17 16 16 15 14 14 14 13 11 10 10 10 8 5 3 1 3 5 7 8 8 9 9 9 8 8 7 6 6 6 6 6 5 5
6 4 1 2 5 7 9 10 11 14 16 18 19 20 19 17 15 15 15 14 14 14 13 12 11 10 10 9 6 4 2 2 4 6 7 8 8 9 9 9 9 8 8 7 7 7 7 6 6
8 7 6 5 6 6 7 8 9 12 14 16 18 19 19 17 16 15 15 15 14 14 13 13 12 11 10 9 7 5 3 3 3 4 6 7 8 8 10 10 10 10 9 8 8 8 8 8 8
10 10 10 10 9 9 7 7 8 10 12 15 17 18 18 17 16 15 15 15 14 13 13 13 12 11 10 9 8 7 5 4 4 5 6 7 8 9 10 10 11 11 11 9 9 9 9 9 9
12 13 13 12 11 10 9 8 7 9 11 14 16 17 18 17 17 15 14 14 14 13 13 13 13 12 11 10 8 7 6 5 5 5 6 8 9 10 10 11 11 11 11 10 10 10 10 10 10
13 13 12 10 10 9 9 9 7 9 10 13 15 17 17 17 17 16 15 14 13 13 13 13 13 13 12 11 10 8 7 5 6 6 7 8 10 10 11 11 12 12 11 11 11 11 11 11 11
14 13 12 10 8 6 7 8 8 10 11 12 15 17 17 17 17 16 14 13 13 13 13 14 13 12 12 11 10 9 8 6 5 5 6 7 8 9 10 11 12 12 12 12 12 12 12 12 12
15 14 13 12 9 7 7 8 8 9 9 12 15 17 17 16 16 14 13 13 12 12 12 13 13 13 12 11 11 10 8 7 6 5 5 7 8 9 11 12 12 13 13 13 13 13 14 13 13
15 15 15 14 12 11 9 9 9 9 9 12 15 17 17 15 14 13 14 13 12 12 12 13 13 13 13 12 12 10 9 7 6 6 6 7 7 8 10 12 13 13 14 14 14 14 14 14 14
15 15 15 15 14 13 11 10 10 10 11 13 15 17 17 16 15 14 13 14 13 12 12 13 13 13 13 13 12 11 10 9 7 6 6 7 8 8 9 11 13 14 14 14 14 15 15 15 15
17 16 17 17 17 16 14 12 10 11 12 14 15 17 17 16 15 13 13 13 13 12 12 12 13 13 13 13 12 11 10 9 8 7 6 6 7 7 9 10 11 13 14 14 15 15 16 15 15
18 18 18 19 19 18 18 16 15 15 16 16 16 17 16 16 15 14 13 13 12 12 12 12 13 13 13 13 12 12 11 9 9 9 7 6 7 7 8 9 11 12 13 14 14 15 15 15 16
21 19 18 20 19 20 21 19 18 19 19 19 18 18 17 16 16 15 13 13 13 13 12 12 13 13 13 13 13 12 11 10 9 9 8 7 8 8 9 9 11 12 13 14 15 15 16 16 17

GEFSSGP_500_meanwind_156.txt.gz
Wind_Speed
24 24 24 25 25 23 23 25 24 22 20 17 16 15 13 12 11 10 9 8 7 5 5 6 6 6 6 6 7 7 6 6 6 6 5 4 4 4 4 4 4 4 4 4 4 5 5 5 5
23 23 24 24 24 24 25 25 25 23 21 18 16 15 13 11 10 10 9 8 6 5 5 6 6 6 6 7 6 6 6 5 4 4 4 3 3 4 3 4 4 4 3 4 4 4 4 4 4
21 22 24 24 24 25 26 26 25 24 22 20 17 15 13 11 10 9 9 8 6 5 5 6 6 6 6 6 6 5 5 5 4 3 3 3 4 4 4 4 4 3 3 3 3 3 3 3 4
20 22 23 23 24 25 26 26 25 24 23 20 18 15 13 11 10 9 8 8 6 5 5 5 6 6 6 5 5 5 5 4 4 3 3 3 3 4 4 4 4 3 3 3 2 3 2 3 3
18 20 21 23 25 25 26 26 26 24 22 20 18 16 14 12 10 9 8 7 6 5 5 5 5 6 6 6 6 5 4 4 4 3 4 4 3 3 4 3 3 3 3 3 3 2 2 2 2
16 18 20 22 24 24 25 25 26 25 23 21 19 17 14 12 10 9 8 7 6 6 5 4 4 5 5 5 5 4 3 3 3 3 3 3 3 2 3 3 3 3 3 3 2 2 2 3 3
15 17 19 22 24 24 25 25 25 24 23 22 20 17 15 12 11 9 8 7 6 6 5 4 4 4 4 3 3 3 2 2 2 2 2 2 2 2 2 3 3 3 3 3 3 2 3 3 3
13 15 18 21 23 24 25 25 24 24 23 22 21 19 16 13 11 10 9 8 7 6 6 4 3 3 3 2 2 2 1 0 1 1 2 1 1 2 2 2 2 3 3 2 2 2 3 3 3
12 13 17 20 22 23 24 25 24 23 23 22 22 20 18 15 12 11 10 9 8 7 6 5 3 2 2 2 1 1 0 1 1 2 1 1 1 1 1 2 2 2 2 2 2 2 3 3 3
10 13 16 18 20 22 23 24 24 24 23 22 22 21 19 17 14 12 11 9 9 8 7 5 4 1 1 1 1 1 1 1 2 2 2 2 2 1 1 2 2 2 2 2 1 2 3 3 4
9 12 14 16 18 20 21 22 22 23 23 22 22 22 20 18 16 13 12 11 9 8 7 6 5 3 2 1 1 1 1 1 2 3 3 3 2 1 1 1 2 2 2 2 1 2 3 3 3
8 11 13 15 16 18 20 21 22 22 22 22 21 21 21 18 16 14 12 12 10 9 8 7 5 3 2 1 0 0 2 2 3 4 4 4 3 2 2 2 2 2 2 2 1 2 2 3 3
7 9 11 13 15 16 17 19 21 21 21 20 21 21 20 19 17 15 13 12 12 10 9 8 7 5 3 2 0 1 1 2 3 4 4 5 4 3 3 3 3 2 2 3 2 2 2 3 2
6 7 9 11 13 14 16 17 18 19 19 19 20 20 20 19 17 16 15 13 12 11 10 9 8 7 5 3 1 0 1 2 3 5 5 5 5 5 4 4 4 3 3 3 3 2 3 3 3
3 5 7 9 11 12 13 15 16 17 18 18 18 19 19 19 18 16 15 14 12 12 11 10 10 9 7 5 2 1 1 2 3 5 6 6 5 5 5 5 5 4 4 3 3 3 3 4 4
3 2 5 7 8 10 11 13 14 15 17 17 17 18 19 18 17 16 15 14 13 12 11 11 11 10 9 7 4 2 2 2 3 5 6 6 6 6 6 6 6 6 5 4 4 4 3 4 4
4 2 1 4 6 7 9 11 11 13 15 16 17 18 19 19 17 16 15 14 13 13 12 11 11 10 9 8 6 4 2 2 3 5 6 7 7 7 7 7 7 7 6 6 6 5 4 4 4
6 4 2 3 4 5 7 8 10 11 13 14 16 17 18 19 18 16 16 15 13 12 12 11 11 10 9 8 7 5 3 3 2 4 6 7 8 8 8 8 8 8 7 7 7 7 6 6 5
9 7 5 5 5 5 5 7 8 10 11 13 14 16 18 19 18 16 16 15 14 13 12 12 11 10 8 8 7 6 5 3 3 4 5 7 8 8 8 8 9 9 8 8 8 8 7 7 8
11 10 8 7 6 5 5 6 7 8 9 11 13 15 16 17 18 17 16 15 14 13 12 12 12 10 9 8 8 6 5 3 3 4 5 6 8 9 9 9 10 10 10 10 9 9 9 9 9
13 12 11 10 7 6 5 5 6 7 8 10 12 13 15 15 16 16 15 15 14 14 13 12 12 11 10 9 8 7 5 5 5 6 7 8 9 10 10 9 10 11 11 11 11 11 10 10 10
15 14 14 12 10 9 7 6 5 5 7 10 11 12 13 14 14 14 15 15 14 14 14 14 13 12 11 11 10 8 7 6 6 6 7 9 9 10 10 11 11 11 12 12 12 12 11 11 11
16 15 15 14 12 10 9 7 5 5 6 8 10 11 12 13 14 14 14 13 13 14 14 14 14 13 12 11 10 10 9 7 6 6 7 8 9 10 11 12 13 13 13 14 13 13 12 12 12
17 17 16 15 14 12 11 8 5 5 6 7 8 10 11 12 14 13 13 13 14 14 14 14 14 13 12 11 11 11 10 9 7 6 7 7 8 10 12 12 12 14 15 15 14 14 14 14 14
18 18 17 16 16 14 12 10 8 7 7 7 7 9 10 12 13 14 13 13 13 14 14 13 13 13 12 11 11 12 12 12 9 7 7 7 8 9 10 11 12 13 14 15 15 16 16 16 16
21 19 18 18 17 16 15 13 10 10 9 8 8 9 10 12 14 14 13 12 12 13 13 14 13 13 13 12 12 11 11 11 11 10 8 7 8 9 10 11 13 13 14 14 15 16 16 16 16
22 21 20 20 19 18 17 15 13 11 10 9 9 10 11 12 13 14 14 12 12 13 14 14 13 12 12 13 12 12 11 12 11 11 9 8 8 8 9 10 11 13 14 15 16 17 17 17 17
25 23 22 21 21 20 18 17 14 13 12 11 11 12 12 12 13 14 14 13 13 14 13 13 13 13 12 12 13 13 12 12 12 11 10 8 8 9 10 11 11 12 13 14 15 17 17 18 19
27 26 25 23 22 21 20 18 16 15 15 14 14 14 14 13 13 14 14 13 14 14 13 13 13 13 13 13 13 13 13 13 12 11 10 10 9 9 10 10 11 12 12 13 14 15 16 17 18
29 27 26 25 24 23 22 19 17 17 17 16 15 15 14 14 14 14 14 13 14 14 14 13 13 13 13 14 14 14 14 13 13 12 11 11 11 11 11 11 12 12 13 14 15 16 17 18 19

GEFSSGP_500_meanwind_162.txt.gz
Wind_Speed
22 22 21 21 25 20 20 19 18 16 15 15 14 13 12 11 10 9 8 7 7 7 7 7 6 7 8 9 9 9 10 10 10 9 9 9 9 9 9 9 8 8 7 7 7 7 6 6 6
21 21 21 24 23 20 20 20 19 18 16 15 14 14 12 11 10 9 8 7 7 6 5 5 6 6 7 8 8 9 9 9 9 8 8 8 8 8 8 8 8 7 7 7 6 6 6 5 5
21 21 22 24 21 21 21 21 20 19 18 17 15 14 12 11 10 9 8 8 6 5 4 4 5 6 6 7 7 7 8 8 7 8 8 8 8 8 8 8 7 7 7 6 6 6 5 5 5
20 21 24 21 21 22 22 22 21 21 19 17 16 15 13 12 10 9 9 8 7 5 4 4 5 5 5 6 7 7 7 7 8 8 8 8 8 8 7 7 7 7 6 6 6 5 5 4 5
18 22 21 19 21 22 22 22 22 22 20 18 16 15 14 12 10 9 9 8 7 6 4 4 4 5 5 6 7 7 7 7 8 8 8 8 8 8 7 7 6 6 6 5 6 5 4 4 4
18 20 17 18 20 21 22 22 22 22 20 18 17 16 14 12 11 10 9 8 7 6 4 4 4 4 5 6 6 6 6 6 7 8 8 8 8 8 7 6 6 6 5 5 5 5 4 3 4
18 17 16 18 19 21 21 22 22 22 21 19 17 16 15 13 11 10 9 8 7 5 3 3 3 3 4 5 5 5 5 6 6 7 8 8 7 7 6 6 5 5 5 5 5 4 4 4 4
15 16 15 17 18 19 20 21 21 22 21 20 19 17 15 14 11 10 9 8 6 5 3 3 3 3 3 3 4 5 5 5 6 7 8 7 7 6 6 6 6 6 5 4 4 4 5 5 4
15 14 13 15 17 18 19 20 20 21 21 20 20 18 16 14 11 10 9 7 7 5 4 2 1 2 3 3 3 4 5 5 5 7 7 6 6 6 6 7 6 5 5 4 4 4 5 5 5
13 11 12 14 16 17 18 19 19 20 21 20 19 18 17 15 12 10 9 8 7 6 5 3 1 0 1 2 3 4 5 5 5 7 7 6 6 6 6 6 6 5 4 4 4 5 5 5 5
10 11 11 13 15 16 17 18 18 19 19 19 19 18 17 15 14 12 10 9 8 7 5 4 2 1 0 2 2 3 4 4 5 6 6 6 5 5 5 5 5 5 4 4 5 5 6 6 5
9 9 10 12 13 15 16 17 18 18 18 18 18 18 17 15 14 13 11 10 9 8 7 6 4 2 1 2 2 3 4 4 5 6 6 6 5 5 6 6 5 5 4 4 5 6 6 6 5
7 8 9 10 12 13 15 16 17 18 18 18 18 18 18 16 14 13 12 11 10 9 8 7 5 3 1 1 2 3 4 4 5 6 6 6 6 5 6 6 6 5 5 4 4 5 5 5 5
6 6 7 8 9 11 13 14 15 17 17 17 17 18 18 16 14 13 12 10 10 9 8 8 7 6 4 2 1 3 4 4 5 6 6 6 6 5 6 6 6 5 5 4 4 4 5 4 4
4 5 5 6 7 9 11 13 14 15 16 17 17 17 17 17 15 14 13 11 11 10 9 8 8 7 6 5 2 2 3 4 4 5 6 6 6 6 6 6 6 5 4 4 4 4 4 4 4
3 3 3 4 6 7 9 10 11 13 14 15 16 16 16 15 15 14 13 12 12 12 11 10 9 8 7 6 4 1 2 2 3 5 6 6 6 6 7 7 6 6 5 5 4 5 5 4 4
2 1 1 2 4 6 8 8 9 11 12 13 14 15 15 15 14 14 13 12 12 12 12 11 10 10 9 7 6 3 1 2 3 4 5 6 6 7 7 7 7 6 6 6 5 5 5 6 6
5 4 2 0 2 4 5 6 7 9 10 12 13 14 14 14 14 14 13 12 12 12 12 12 11 11 9 8 7 5 3 1 3 4 5 6 7 8 8 8 7 7 7 8 7 7 7 7 7
7 5 4 2 0 2 3 4 5 7 8 10 11 12 13 14 14 13 12 12 12 12 12 13 12 11 10 8 7 7 5 3 3 4 5 6 7 8 8 9 8 8 8 8 8 9 9 8 8
8 6 5 3 2 2 2 3 4 6 7 8 10 11 12 13 13 13 12 12 12 12 12 13 13 12 11 9 8 8 7 5 4 4 5 7 8 8 9 9 9 10 9 9 10 10 10 10 9
10 9 7 6 3 3 2 4 4 4 5 7 8 10 11 12 12 12 12 12 11 12 12 12 12 12 11 10 9 8 7 7 5 4 4 6 8 8 9 9 10 10 10 10 11 11 11 12 11
12 11 10 8 5 5 3 3 5 4 4 6 7 9 10 11 11 12 12 12 11 12 12 12 12 12 11 9 10 9 8 8 6 4 4 5 6 7 8 9 10 11 11 11 12 12 13 13 13
15 13 11 10 8 7 6 4 6 5 4 5 7 8 8 9 11 11 12 12 12 11 12 12 12 12 11 10 10 10 9 9 7 5 5 4 5 6 7 9 10 11 11 12 12 13 14 14 14
16 14 13 12 10 10 8 6 6 6 4 4 5 6 7 9 10 11 11 12 12 11 11 12 13 13 11 10 10 9 10 9 8 7 6 6 6 7 8 9 10 11 12 12 13 14 15 15 16
17 16 14 12 11 11 10 8 8 8 6 5 6 6 7 9 9 10 11 11 11 10 11 12 12 13 12 10 10 9 9 9 9 9 8 7 7 7 7 9 10 11 13 13 14 15 16 16 17
20 18 16 13 12 12 12 10 10 9 8 7 7 7 8 9 9 10 10 10 10 11 11 11 11 12 12 11 10 10 9 10 10 10 9 8 7 7 7 8 9 11 12 12 13 14 15 16 17
23 21 19 18 16 14 13 12 11 10 10 9 8 8 8 9 10 9 10 10 10 11 11 11 11 11 12 12 11 11 9 10 10 10 10 9 9 9 9 9 10 11 11 12 14 14 15 17 17
26 24 23 20 18 16 15 13 12 12 11 11 10 10 9 9 10 10 10 11 10 10 11 11 11 12 12 12 11 11 10 10 10 10 10 10 11 10 10 10 10 11 12 12 13 14 15 16 17
28 27 25 23 21 17 14 14 14 13 13 12 12 12 11 11 11 11 11 11 11 10 10 11 11 12 12 12 12 12 11 10 10 11 11 11 11 11 11 11 12 12 13 13 14 14 14 15 16
30 29 27 25 24 21 18 16 16 15 14 14 14 14 13 13 12 12 11 11 11 11 11 11 11 12 12 12 12 12 12 12 12 12 12 12 12 12 12 12 13 14 14 15 15 15 16 17 17

GEFSSGP_500_meanwind_168.txt.gz
Wind_Speed
23 24 24 25 24 16 12 11 10 10 8 7 6 6 5 4 4 3 3 3 2 2 2 3 4 4 6 6 6 6 6 7 8 8 8 8 8 7 7 7 7 7 7 7 6 6 6 6 5
23 22 27 26 18 14 14 13 12 11 10 9 7 7 7 5 5 4 3 3 3 3 3 3 3 3 5 5 5 4 5 6 7 7 7 7 7 8 7 7 7 7 6 6 6 6 5 5 4
23 25 28 20 14 14 14 14 13 12 10 10 10 9 8 7 6 5 4 4 4 3 3 3 2 2 3 3 3 3 4 5 6 6 7 6 6 7 7 7 6 6 6 5 5 5 4 4 4
24 29 25 16 15 15 15 15 15 14 12 11 10 10 9 8 7 6 5 5 5 4 3 3 2 2 2 3 3 3 3 3 5 5 6 6 6 6 6 6 6 6 5 5 5 4 3 3 4
27 25 18 14 15 15 15 15 15 14 13 12 11 10 10 9 8 7 7 7 6 5 3 2 1 0 1 3 3 3 3 3 4 5 5 5 6 6 5 5 5 5 5 4 4 4 3 3 4
25 19 14 12 14 14 14 15 15 15 14 13 12 11 10 9 9 9 9 8 7 6 4 3 2 1 1 1 2 2 3 3 4 5 5 5 5 5 5 5 5 5 5 4 4 4 3 3 4
19 15 13 12 13 14 13 12 13 14 15 14 13 12 11 10 10 9 9 8 8 6 5 4 3 2 1 0 1 2 2 3 4 5 5 5 5 5 5 4 4 5 5 4 4 4 3 3 4
16 14 13 10 11 12 12 12 14 15 16 16 16 14 13 11 10 9 9 9 8 7 6 5 3 2 1 1 2 2 2 3 3 4 5 4 4 5 4 4 3 4 5 4 4 4 3 3 4
13 12 10 10 10 11 12 12 15 16 17 18 17 16 14 12 11 10 10 10 9 8 6 5 4 3 2 1 1 3 3 3 3 4 4 5 4 4 4 4 4 4 4 4 4 3 4 4 3
11 9 8 9 9 11 12 13 15 16 17 18 17 16 15 13 12 12 12 11 11 9 8 6 5 4 3 1 1 2 2 3 3 3 4 4 4 4 4 4 4 3 4 4 3 4 4 3 4
7 6 7 9 10 11 12 13 14 15 17 17 18 17 16 15 14 14 13 12 12 11 10 8 7 6 5 3 2 1 2 2 3 3 3 3 3 4 4 4 3 3 3 3 4 4 4 4 4
5 6 7 8 10 11 11 12 13 15 15 16 17 17 17 16 16 15 15 14 13 12 11 10 9 8 6 4 3 1 1 2 3 3 3 3 3 3 3 4 4 3 3 3 4 4 5 5 5
3 5 7 8 9 9 10 12 14 15 16 17 17 17 17 17 17 16 16 15 15 14 13 12 11 10 8 6 5 2 1 2 2 3 4 4 4 4 4 4 4 4 3 3 4 4 5 5 5
2 3 6 8 8 8 8 10 14 15 16 17 18 18 18 18 17 16 16 15 15 14 14 13 12 11 10 7 6 4 1 2 2 3 3 3 4 4 4 4 4 3 3 2 3 4 6 5 5
3 4 6 7 7 8 9 9 11 15 16 16 18 18 18 17 17 16 16 16 16 15 15 14 13 12 11 9 8 6 3 2 2 2 3 3 4 4 4 4 4 4 3 3 3 4 5 5 5
3 4 3 5 6 8 10 11 11 13 15 16 17 18 18 18 17 16 16 16 16 15 15 15 15 14 12 10 9 6 4 3 2 3 3 4 4 5 5 5 4 4 4 4 4 4 5 5 5
1 3 3 5 6 5 7 9 9 12 14 15 16 17 17 17 17 17 16 16 16 16 16 15 15 14 13 12 10 7 5 4 3 4 4 5 6 6 6 6 6 6 6 6 6 6 6 6 6
3 3 4 5 7 4 5 7 9 11 12 13 15 16 17 17 16 16 16 16 16 16 16 16 15 15 14 13 11 9 7 6 5 4 4 5 5 6 7 7 8 8 7 7 7 8 8 7 7
8 8 5 6 8 4 5 7 9 11 11 12 13 14 15 16 16 16 15 15 15 15 16 16 15 15 15 14 12 10 8 7 6 4 4 4 5 6 6 7 8 8 9 9 8 9 9 8 8
10 8 5 7 8 5 5 6 8 11 11 11 12 13 14 15 15 15 15 15 15 15 16 16 16 16 15 14 13 11 10 8 7 6 5 5 5 5 6 8 9 9 10 10 10 10 10 10 10
10 9 8 9 9 7 6 8 8 9 12 11 11 12 12 13 14 15 15 15 15 15 16 16 16 16 15 14 12 12 12 10 8 8 7 5 5 5 6 7 8 9 10 10 10 11 11 11 11
11 10 11 10 9 8 8 11 13 9 11 12 11 11 11 12 13 14 15 15 15 15 16 16 16 16 16 15 13 13 12 11 10 9 7 6 6 6 6 6 7 8 9 10 10 10 11 12 12
14 13 12 12 11 9 8 11 15 12 10 11 11 11 11 12 13 14 15 15 15 15 15 16 16 16 16 16 14 13 13 12 11 10 9 8 7 6 6 6 7 8 8 9 10 11 11 12 12
17 15 13 11 11 12 9 10 14 12 11 10 10 11 11 11 12 13 13 14 14 15 15 16 16 17 16 16 15 14 13 13 12 11 9 9 9 8 7 8 8 8 9 10 11 11 11 12 13
18 15 12 12 11 11 9 11 14 14 12 11 12 12 12 11 12 12 12 13 14 14 15 16 16 17 16 16 16 14 13 13 13 12 10 9 9 10 9 8 9 10 10 11 12 13 12 12 13
19 17 15 13 11 11 11 12 13 16 15 14 14 13 13 12 11 12 12 13 14 14 15 15 16 16 17 16 16 15 14 13 13 12 11 11 10 10 10 10 10 10 10 11 11 12 12 13 14
20 19 16 15 14 14 14 11 14 18 17 16 14 14 13 12 12 12 12 12 13 14 15 15 16 16 16 16 15 15 14 13 13 12 12 12 12 11 11 11 11 11 11 11 11 11 12 13 13
22 20 18 19 19 18 15 14 16 18 17 16 14 14 14 13 12 12 12 12 13 14 14 15 16 16 16 16 15 15 15 14 14 13 13 13 13 12 13 12 12 12 12 12 12 12 13 13 14
24 23 23 22 20 18 16 16 18 19 19 17 15 16 15 14 13 13 12 12 12 13 14 15 15 15 15 15 15 15 16 16 15 15 15 15 14 14 14 14 14 14 15 14 14 14 14 15 15
24 23 23 24 25 23 19 17 15 15 17 16 15 17 17 15 15 15 15 12 14 14 14 15 16 16 16 15 16 16 16 16 16 17 17 16 16 16 15 15 15 15 15 15 15 16 16 16 16

GEFSSGP_500_meanwind_174.txt.gz
Wind_Speed
23 23 22 22 23 22 20 20 18 16 14 14 13 11 11 10 8 7 7 6 5 5 4 5 5 4 4 3 3 3 3 3 4 4 4 5 5 5 4 4 5 5 5 4 4 4 4 5 5
23 23 23 24 24 23 23 22 19 17 16 15 13 12 11 10 8 7 7 7 6 5 4 3 4 3 3 3 3 3 3 3 3 4 4 5 5 5 5 5 5 5 5 4 4 4 4 5 5
21 22 23 25 25 24 24 23 20 18 17 15 13 12 11 10 9 8 8 8 7 6 5 4 4 3 3 4 4 3 2 2 3 4 4 5 5 4 4 5 5 5 5 4 4 3 3 4 4
19 21 23 25 25 25 25 24 22 19 17 16 14 12 11 10 10 9 9 9 8 7 6 5 4 3 3 3 3 3 3 2 2 4 4 5 5 4 4 5 5 5 5 4 4 3 3 3 3
18 20 22 23 24 25 24 24 24 22 19 17 16 14 12 12 11 10 10 10 9 7 6 5 4 4 4 4 4 3 3 2 2 3 4 3 3 4 4 5 5 5 5 4 4 3 3 3 3
19 21 21 22 22 23 22 23 23 21 20 19 17 16 14 13 12 11 10 10 9 8 6 5 4 3 3 3 3 3 2 2 2 3 3 3 3 4 5 5 5 5 4 4 4 3 3 3 3
20 21 20 21 21 21 22 22 22 21 20 19 19 18 16 15 13 12 12 11 9 8 7 6 5 3 3 2 3 3 2 2 2 3 3 3 3 3 4 4 5 4 4 4 4 4 3 3 3
20 19 19 19 19 20 21 21 21 22 21 21 20 19 17 16 15 13 13 13 11 9 8 6 6 4 3 2 2 2 2 2 2 3 3 3 3 3 3 4 4 4 4 4 4 4 4 3 3
19 16 16 18 18 18 20 20 21 22 22 22 21 20 18 16 16 14 14 13 12 11 9 8 7 6 4 3 2 2 2 3 3 3 3 3 3 3 3 3 4 4 4 4 4 4 4 3 4
16 15 14 15 17 18 19 20 21 22 22 22 21 20 18 17 17 16 15 15 13 12 10 9 8 6 5 4 2 2 3 3 4 3 3 3 3 3 2 3 3 3 4 4 4 5 4 3 4
13 12 13 15 17 18 19 20 21 22 21 22 21 20 19 18 17 17 16 15 14 13 11 10 8 7 6 5 3 2 3 4 4 4 3 2 3 3 3 3 4 3 3 4 4 4 5 4 4
10 10 11 14 17 18 18 19 21 21 21 21 21 21 20 18 18 17 16 16 15 14 12 12 10 8 7 5 4 2 3 3 4 4 3 3 2 3 3 4 4 4 3 4 4 4 4 4 5
9 8 9 12 15 16 17 17 18 20 21 22 21 20 19 19 18 18 17 16 16 15 13 12 12 11 8 7 5 3 2 2 3 3 3 3 3 3 3 3 4 4 4 4 5 5 5 5 5
6 7 9 11 12 14 15 16 17 18 20 21 20 20 19 19 18 18 18 18 17 17 16 14 13 12 10 8 6 4 3 2 3 3 3 3 3 3 3 4 4 4 4 5 6 5 6 6 7
5 4 6 9 11 12 14 15 17 17 19 19 19 20 19 19 18 18 18 18 18 18 17 16 15 14 12 10 8 6 4 3 1 2 3 3 4 4 3 4 4 4 4 5 6 6 6 7 8
5 4 4 6 8 10 12 14 15 16 17 18 18 19 18 18 18 19 19 18 18 18 17 17 16 15 14 12 10 9 7 4 3 0 2 2 3 4 4 4 5 5 5 5 5 6 7 8 8
5 4 3 3 5 8 10 13 14 14 14 16 17 18 18 17 18 18 18 18 17 17 17 16 16 16 15 13 11 10 9 6 4 2 0 1 3 4 4 5 5 6 6 6 6 6 7 8 8
6 4 1 1 3 5 8 10 13 13 13 14 16 17 17 17 17 17 17 17 17 17 16 16 16 16 15 14 12 11 10 7 5 4 3 1 1 2 4 5 6 6 6 6 6 6 7 8 9
7 4 3 1 2 5 7 8 11 11 12 14 15 15 15 15 15 16 16 16 16 16 16 16 16 16 15 14 12 12 11 9 6 5 5 3 1 1 2 4 5 6 6 6 7 7 8 9 10
9 8 6 4 4 6 6 7 8 10 12 13 14 13 14 13 13 14 14 15 15 15 15 15 15 15 14 14 13 12 11 10 8 7 5 4 2 1 2 3 4 5 6 6 8 8 8 9 10
12 11 9 8 8 8 8 7 8 9 10 11 13 12 12 12 11 12 13 14 14 14 14 14 15 16 15 14 14 12 11 10 8 8 6 5 3 2 1 2 3 5 6 7 8 9 10 10 10
15 13 12 12 12 11 9 9 9 11 10 11 11 11 11 11 10 10 11 12 13 13 14 14 14 15 15 14 14 13 11 9 8 7 7 6 4 3 2 3 3 4 5 7 8 9 10 11 11
16 16 16 15 15 14 13 13 11 11 11 10 10 10 10 11 9 9 10 11 12 12 13 13 14 14 14 14 14 13 11 10 9 8 7 7 6 4 4 4 4 5 6 7 8 9 10 11 12
18 18 18 18 17 16 13 14 12 11 10 10 10 10 9 10 8 8 9 10 11 11 12 12 13 14 14 14 14 13 12 11 10 9 8 7 6 5 5 5 5 6 6 7 8 9 10 11 11
20 20 20 20 18 15 14 15 13 11 10 10 11 10 9 8 8 9 9 9 10 10 11 11 12 13 13 13 13 13 13 11 10 9 9 8 7 7 6 6 7 7 8 8 8 9 10 11 12
21 22 22 20 18 16 15 15 13 11 11 11 12 12 10 9 9 9 9 8 9 9 10 10 11 12 13 13 13 13 13 11 10 9 9 9 9 9 8 8 8 8 8 9 9 9 10 10 11
22 22 22 21 20 19 17 16 13 11 11 12 12 13 12 11 10 10 9 8 8 9 9 10 10 11 12 12 12 12 13 12 10 10 10 10 10 10 10 10 10 10 10 10 10 9 10 10 11
24 22 23 23 22 21 19 16 14 13 12 12 12 14 14 14 12 10 9 9 8 8 8 9 9 10 11 11 12 12 12 12 11 10 10 10 10 10 11 11 12 12 12 11 11 11 11 11 12
25 24 25 25 25 24 22 18 14 14 13 13 13 15 16 14 11 10 11 10 8 8 8 9 10 10 10 11 12 12 12 12 12 12 11 11 11 12 12 12 13 13 13 12 12 12 13 14 14
28 27 27 27 26 26 25 22 17 16 14 14 15 15 16 16 14 13 13 12 11 9 9 9 9 10 10 11 12 12 12 12 12 13 13 13 14 14 14 14 14 14 14 14 13 13 14 15 16

GEFSSGP_500_meanwind_180.txt.gz
Wind_Speed
24 23 23 23 24 22 22 22 21 19 17 16 15 14 13 11 9 8 7 6 5 3 3 3 4 4 5 5 5 5 4 5 5 5 5 5 5 4 3 2 3 3 3 2 3 3 3 4 3
23 22 22 22 23 23 23 23 22 20 18 17 15 14 14 12 10 8 7 6 5 3 2 2 4 4 5 5 5 5 5 5 4 4 5 4 4 3 3 2 3 3 2 2 2 3 3 3 3
22 22 22 22 23 24 24 24 22 21 19 18 17 15 14 12 11 9 8 7 5 4 3 3 3 4 4 4 5 4 5 4 4 4 4 4 3 3 3 3 2 3 2 2 2 2 2 2 2
22 22 22 23 24 24 24 24 23 22 21 19 18 16 15 13 11 9 9 7 5 4 4 4 4 4 4 4 4 5 5 4 4 4 4 3 3 3 3 2 2 3 2 2 1 1 1 1 1
20 21 22 23 24 24 25 24 24 22 21 20 19 17 15 13 12 10 10 8 7 5 5 5 5 4 4 4 4 5 5 5 4 4 3 3 2 2 2 2 2 2 2 2 1 1 1 1 1
20 21 22 23 24 24 25 25 24 23 21 20 19 18 16 15 13 12 10 9 8 7 7 6 5 4 4 4 4 4 5 5 4 3 3 2 3 2 2 2 2 1 1 2 2 2 2 2 1
20 21 23 23 24 24 24 25 25 23 22 20 19 18 17 16 14 12 11 10 9 8 7 6 5 4 4 3 3 3 4 4 3 3 3 2 2 2 2 2 2 1 1 2 2 2 2 2 2
19 20 22 23 24 24 24 25 24 23 22 21 20 19 18 16 15 13 12 11 10 9 8 7 5 4 3 3 3 3 2 3 3 2 2 2 2 2 2 2 2 2 1 2 2 2 2 2 2
17 19 20 22 24 23 24 25 24 23 22 22 21 20 19 17 16 15 13 12 11 10 9 8 6 5 3 3 3 3 3 3 3 3 3 2 2 2 2 2 2 2 2 2 2 2 3 2 3
15 17 19 20 22 22 23 24 24 23 23 22 22 21 20 18 17 16 15 13 12 11 10 9 7 5 4 4 3 3 3 3 2 2 3 2 2 2 2 2 2 2 2 2 2 3 3 3 3
13 15 16 18 20 21 22 23 23 23 23 22 21 21 20 19 18 17 16 15 13 12 11 10 8 7 5 5 4 3 2 2 2 2 2 2 2 2 2 2 2 2 2 2 3 4 4 3 3
11 13 14 16 18 19 21 22 22 23 23 22 22 21 20 19 19 18 17 16 15 13 12 11 10 8 7 6 4 2 2 2 2 2 2 2 1 1 3 3 3 2 3 3 3 3 3 3 3
9 10 12 14 15 17 20 20 21 21 22 22 21 20 20 20 19 18 17 17 16 14 13 12 11 9 8 7 6 3 1 2 2 2 2 2 2 2 2 3 3 4 3 3 4 4 3 3 4
6 8 9 11 12 15 18 19 20 20 20 20 20 19 19 19 19 18 18 17 16 15 14 14 12 11 10 9 8 5 3 1 1 2 2 2 2 2 3 3 4 3 4 4 4 4 4 4 5
4 6 7 8 9 12 15 17 18 18 18 18 19 18 18 18 18 18 17 17 17 16 15 15 14 12 10 9 8 7 4 3 1 1 2 2 3 3 3 4 4 4 4 5 5 5 5 5 6
3 3 3 4 7 9 11 14 15 16 16 17 17 17 17 17 17 17 17 17 16 16 15 15 14 13 11 10 9 8 6 4 2 1 1 3 3 3 4 5 5 5 4 5 6 7 6 6 6
6 3 1 2 3 5 8 10 11 13 14 14 15 16 16 16 16 16 16 16 16 15 15 15 14 13 12 10 9 8 7 5 3 2 1 2 3 4 5 6 6 6 5 5 6 7 7 8 8
9 6 4 2 1 2 4 6 8 10 11 12 13 14 15 16 16 15 15 15 15 15 14 14 14 13 12 11 10 9 7 6 5 3 2 1 2 3 4 6 6 6 6 5 6 7 8 8 8
12 9 7 5 4 3 2 3 5 6 8 10 11 12 13 14 15 15 14 14 14 14 14 14 14 13 13 12 10 10 8 7 6 5 3 2 2 2 3 5 6 6 6 6 6 7 7 8 9
15 12 9 8 7 6 4 3 3 4 6 8 10 10 11 12 13 13 13 13 14 14 13 13 13 13 13 12 11 10 9 8 7 6 4 4 3 2 2 2 4 6 7 7 7 8 8 9 9
18 15 13 12 10 9 7 5 4 4 5 6 8 9 9 10 11 11 11 12 12 13 13 13 13 12 12 12 12 11 10 9 8 7 6 5 3 2 2 3 3 4 5 7 8 9 9 10 11
21 18 17 16 14 12 11 9 7 5 5 6 7 8 8 8 9 10 10 10 11 12 13 13 13 12 12 12 12 11 10 9 8 8 7 7 5 3 3 3 3 4 4 6 8 9 10 11 12
23 21 20 19 18 16 14 13 10 8 7 8 8 7 7 7 8 8 9 10 10 11 11 12 13 12 12 12 11 11 11 10 9 8 7 6 6 5 5 4 5 5 6 6 7 8 10 12 13
25 23 22 21 20 19 17 16 12 11 9 9 8 8 7 7 7 7 7 9 9 10 10 10 11 12 12 12 11 11 11 10 9 8 8 6 7 6 6 6 6 6 7 7 8 9 10 11 12
26 25 25 24 23 21 19 19 15 13 12 10 9 8 7 7 7 7 7 8 9 9 9 9 10 10 11 11 11 11 10 10 10 9 8 7 7 8 8 8 7 7 8 9 9 10 10 11 12
27 27 27 26 25 22 22 22 18 16 14 12 11 10 9 8 7 7 8 8 8 8 8 9 10 10 10 10 11 11 10 10 9 10 9 9 8 9 9 10 9 9 10 10 10 10 10 11 12
30 29 28 28 27 26 25 24 21 18 16 14 13 11 10 10 9 8 8 8 8 8 8 9 9 9 10 10 11 11 11 10 10 10 10 10 10 10 11 11 11 11 11 12 11 11 11 12 12
32 30 30 30 30 29 27 26 24 21 19 17 15 13 12 11 11 10 9 9 8 8 9 10 10 10 10 10 11 11 11 11 10 10 11 12 11 11 11 12 12 12 12 12 13 12 12 13 14
34 33 33 32 32 30 29 26 23 21 21 18 17 15 14 13 12 12 11 9 8 9 9 10 11 11 10 10 11 11 11 11 12 12 11 12 12 11 12 12 13 13 12 13 14 14 14 15 15
36 36 35 34 32 31 31 28 24 23 21 19 18 17 16 15 14 13 13 11 11 11 11 12 13 13 12 11 11 13 13 13 14 14 13 13 13 12 13 13 13 13 13 13 15 15 16 16 16

GEFSSGP_500_meanwind_186.txt.gz
Wind_Speed
22 22 21 21 23 20 18 18 18 17 15 14 13 12 11 10 9 7 7 6 5 4 5 5 5 5 6 6 7 8 8 9 11 11 11 11 11 10 9 9 8 8 7 7 6 6 6 6 6
22 22 22 23 22 19 19 18 18 18 17 15 15 13 12 10 9 8 7 6 5 5 4 4 5 4 5 6 7 7 7 8 9 10 10 10 10 9 8 8 8 7 7 6 6 6 6 6 5
22 21 22 23 20 20 19 19 18 18 17 17 16 15 13 12 10 9 8 7 6 5 4 4 4 4 5 5 6 7 7 8 9 9 9 9 9 9 8 8 7 6 6 6 6 5 5 5 5
21 22 24 22 20 20 20 19 19 19 18 18 17 16 15 14 12 10 9 8 6 6 5 4 4 4 4 5 6 7 8 9 8 8 8 9 9 8 7 7 6 6 5 5 5 5 5 5 5
19 23 22 20 20 20 20 20 20 20 19 18 18 17 16 15 13 11 10 8 7 6 5 5 4 4 4 4 5 7 8 8 8 8 8 8 8 8 7 7 7 6 6 5 5 5 5 4 4
20 21 19 19 20 20 21 21 20 20 19 19 19 17 16 15 14 12 10 9 7 6 6 5 4 4 4 4 6 7 8 7 7 7 7 6 6 6 7 7 6 6 5 4 5 5 5 4 4
20 19 18 18 19 20 21 21 21 21 20 20 19 18 17 16 15 13 11 10 9 8 6 5 5 4 4 5 6 6 7 7 7 6 7 6 6 6 6 6 6 6 5 4 4 4 4 4 4
18 18 17 18 19 20 20 21 21 21 21 20 20 19 18 17 16 14 13 11 10 8 7 6 5 4 4 4 5 5 6 6 6 6 6 6 6 6 7 6 6 5 5 4 4 4 4 4 4
16 17 16 17 18 19 21 21 22 22 21 21 20 20 19 18 16 15 14 12 11 10 8 7 5 4 3 4 4 4 5 5 5 5 6 5 6 7 7 6 6 5 5 4 4 3 4 4 4
15 14 15 17 18 19 20 21 21 22 22 21 21 20 20 19 18 16 15 13 12 11 10 8 7 6 4 4 3 4 4 5 5 5 5 5 6 6 6 6 5 5 4 4 4 3 4 4 4
13 13 14 15 16 18 19 20 20 21 21 21 20 20 20 19 18 17 16 14 13 11 10 9 7 7 6 5 4 4 4 4 4 4 4 4 4 5 6 6 5 4 3 4 4 3 4 4 4
10 11 12 13 14 16 17 18 19 20 20 20 20 20 19 19 18 17 16 15 14 12 11 10 9 7 6 6 5 4 3 3 3 3 4 4 4 4 5 5 5 4 3 3 4 4 4 4 4
8 9 10 10 12 13 15 16 17 18 18 19 19 19 19 19 18 17 16 15 14 14 12 11 10 9 8 6 6 5 3 2 3 3 3 3 3 3 4 5 5 4 4 4 4 5 5 4 4
5 6 8 8 9 11 12 14 15 16 17 18 18 18 18 18 17 17 16 15 15 14 13 12 11 10 9 7 6 5 4 3 1 2 3 3 4 4 4 5 5 4 4 4 4 5 4 4 4
4 4 5 6 7 8 10 11 12 13 15 16 17 18 18 17 17 16 16 15 14 14 14 13 12 11 10 9 8 7 6 5 3 0 2 3 3 4 4 5 5 4 5 5 4 5 5 4 4
4 3 2 3 5 6 7 8 9 11 12 14 15 16 17 17 16 16 16 15 15 14 14 13 13 12 11 10 9 8 7 6 5 3 0 2 3 4 4 5 5 5 5 5 5 6 6 6 6
4 3 2 1 2 3 4 5 6 8 10 11 13 14 15 16 16 15 15 15 15 14 13 13 13 12 11 10 9 8 7 6 6 5 2 1 2 3 3 4 5 5 4 4 5 5 6 6 7
9 7 5 4 1 1 2 3 4 6 7 9 11 12 13 14 14 14 14 14 14 14 14 13 13 12 11 11 10 9 8 7 7 6 4 3 2 2 3 3 4 4 4 5 5 5 6 7 7
12 10 8 7 5 2 1 1 2 4 5 7 8 9 11 12 13 13 13 13 14 14 14 14 13 13 12 11 11 9 9 8 7 7 5 4 3 2 2 2 3 4 4 5 5 5 7 8 8
15 13 12 10 8 6 4 3 2 3 3 5 6 8 9 10 10 11 12 13 13 13 13 13 13 13 12 12 11 11 10 9 8 7 6 5 4 3 3 3 2 3 4 4 5 6 7 8 8
18 16 14 13 11 9 7 6 5 4 4 4 5 7 8 8 9 9 10 11 11 12 12 12 12 12 12 12 11 11 11 10 9 8 7 6 5 4 4 4 3 3 4 5 6 7 7 8 9
20 19 17 16 14 11 10 8 9 8 6 6 6 6 7 8 8 8 9 9 10 11 11 11 11 11 11 12 11 11 11 11 10 10 9 6 6 6 5 5 5 5 5 6 7 8 8 8 9
23 21 20 18 17 15 14 11 10 10 8 7 7 7 8 8 7 7 8 8 9 9 10 10 10 10 10 11 11 11 11 10 10 10 10 8 7 7 6 6 7 7 6 6 7 8 8 8 9
24 23 22 21 19 19 17 15 13 13 11 9 9 9 8 8 7 7 8 8 8 8 8 9 10 9 9 10 10 10 10 10 9 9 9 9 8 8 8 7 7 7 7 7 8 8 8 9 10
25 23 22 20 20 19 19 18 15 14 13 12 11 11 10 8 8 8 8 8 7 7 8 9 9 9 8 9 10 10 10 10 9 9 9 9 9 8 8 8 9 9 8 8 9 9 9 9 10
27 25 23 21 19 18 21 20 17 17 16 15 14 13 12 10 10 9 9 9 8 8 8 8 9 9 9 9 9 9 9 9 9 9 10 10 10 10 9 9 9 9 9 9 9 10 10 11 11
29 28 25 24 23 21 21 22 19 18 17 17 16 15 14 13 12 11 11 10 10 9 9 9 8 9 9 9 9 9 9 9 10 10 11 11 12 11 11 10 10 10 11 10 10 11 11 12 12
31 29 28 26 24 23 22 22 21 19 18 18 17 16 15 15 14 14 13 12 11 10 10 9 9 9 10 10 10 10 10 10 10 11 12 12 12 12 13 12 11 11 11 11 11 11 11 12 13
32 31 31 28 27 25 21 21 22 21 20 19 19 18 18 17 16 15 14 13 12 11 11 10 10 10 11 11 11 11 10 10 11 12 13 13 13 13 13 13 13 12 11 12 12 12 13 14 14
34 33 32 30 30 29 26 24 25 22 21 20 20 19 19 19 18 18 16 16 15 14 13 13 12 12 12 12 12 12 12 12 13 14 14 14 14 14 14 14 14 13 13 14 14 14 15 15 15

GEFSSGP_500_meanwind_192.txt.gz
Wind_Speed
22 23 23 23 23 17 13 12 11 11 10 8 7 7 7 6 5 5 5 4 4 4 3 3 2 2 3 4 5 6 7 7 9 10 11 10 10 10 10 9 8 8 7 6 6 6 6 6 6
22 21 23 26 20 13 13 13 12 12 11 10 9 9 8 6 6 6 5 5 4 4 4 3 3 3 3 5 5 6 6 7 8 10 10 9 9 9 9 8 8 7 6 6 5 5 5 6 6
21 23 27 23 13 12 13 13 14 13 12 12 11 10 9 8 7 7 6 6 5 5 5 4 4 4 4 3 4 5 6 6 8 8 9 9 9 9 8 7 7 7 6 5 5 5 5 5 6
22 25 26 17 13 14 14 13 14 14 13 12 12 11 10 9 9 8 7 6 6 6 6 5 4 4 3 3 3 4 5 6 6 7 8 8 8 8 8 7 6 6 5 5 4 4 4 5 5
24 28 20 14 14 15 14 14 14 14 14 13 12 12 12 12 10 9 8 7 7 6 6 6 5 4 3 3 3 3 4 5 5 6 7 7 7 8 7 7 6 5 5 5 4 4 4 4 4
27 24 14 12 13 14 14 14 14 14 15 14 14 13 13 13 12 11 10 8 7 7 6 6 5 4 4 3 3 3 3 3 4 5 6 6 7 7 7 6 6 5 5 5 4 4 4 4 4
23 18 12 11 12 14 14 14 14 15 15 15 15 15 14 14 13 12 11 9 8 7 6 5 4 4 3 3 2 3 3 3 3 4 5 6 6 6 6 6 5 6 5 4 4 4 4 4 3
19 15 10 10 11 13 13 14 14 15 16 16 17 16 16 15 14 13 12 11 10 9 7 6 4 4 3 3 2 2 2 3 3 3 4 4 5 5 5 6 5 5 5 4 4 3 4 3 3
16 12 9 9 10 11 13 14 15 16 17 17 17 17 17 16 15 14 14 13 12 11 10 9 7 5 3 3 2 1 2 2 2 3 4 4 4 4 4 5 5 5 4 4 3 3 3 4 3
10 8 8 9 9 10 12 14 15 16 18 18 17 17 17 17 16 15 15 14 14 13 11 10 9 8 6 4 2 1 1 2 2 2 3 3 4 4 5 5 4 4 4 3 3 3 3 4 3
6 6 7 8 9 11 12 14 15 16 18 18 18 17 17 17 17 17 16 15 15 14 13 11 10 9 7 6 4 2 1 1 1 2 2 2 2 3 4 5 4 4 4 3 4 4 4 4 4
4 5 6 7 9 10 11 13 15 16 16 16 17 17 17 17 18 17 17 16 15 14 13 12 11 10 9 7 5 4 2 1 0 1 1 1 1 2 3 4 4 4 4 4 4 4 4 4 4
2 3 5 6 8 9 10 11 14 14 15 16 16 17 17 18 18 18 17 17 16 15 14 13 12 11 10 8 7 5 4 3 2 1 1 1 1 1 2 4 4 4 4 4 4 4 4 4 4
2 2 3 5 7 7 9 10 12 13 14 15 16 16 17 18 18 17 17 17 16 16 15 14 13 12 11 10 8 7 6 4 3 2 1 1 2 1 2 2 3 3 3 4 4 4 4 4 4
1 1 3 5 6 7 7 8 10 11 12 13 15 16 17 17 17 17 17 17 16 16 15 15 14 13 12 11 10 9 7 7 5 3 2 1 1 1 1 2 2 2 3 3 3 4 4 4 4
2 2 3 5 7 7 6 6 8 10 11 12 13 14 15 16 16 17 17 16 16 16 15 15 14 13 12 12 11 10 9 8 7 6 3 2 2 2 2 1 1 2 2 2 3 4 4 4 4
4 4 4 7 7 6 5 5 8 10 9 11 12 13 14 15 16 16 16 16 15 15 15 15 14 13 12 12 11 11 10 9 9 8 5 4 3 2 2 2 2 3 2 2 2 3 4 4 4
6 6 6 7 8 7 5 5 8 10 10 10 10 11 11 13 14 14 15 15 15 15 15 15 14 13 13 12 11 11 10 10 9 8 7 5 4 3 3 2 2 2 2 2 3 3 4 5 5
10 10 9 9 9 9 6 5 7 9 9 10 10 10 10 11 12 12 13 14 14 14 14 14 14 13 13 12 12 11 11 10 10 9 9 8 6 5 4 3 2 2 3 3 3 4 5 6 6
12 12 11 11 11 10 7 6 8 10 9 10 10 10 9 10 10 11 12 12 13 13 14 14 14 14 13 12 12 12 12 11 11 10 10 9 8 6 5 4 4 2 2 3 4 5 5 6 7
15 14 13 12 12 11 11 9 10 11 10 10 10 10 9 9 10 10 10 11 11 12 12 13 13 13 13 13 12 12 12 11 11 11 10 9 8 7 6 5 5 4 3 3 3 4 5 6 7
17 16 15 15 15 13 12 12 12 14 13 11 11 10 10 9 9 9 10 9 10 10 11 11 12 13 12 12 12 12 12 12 12 12 11 9 9 8 7 7 6 6 5 5 5 6 6 7 8
19 18 17 17 17 15 14 14 14 15 15 12 12 12 10 9 9 9 9 9 9 9 10 10 11 12 12 11 11 11 11 11 11 11 11 10 9 10 8 7 6 6 6 6 6 7 7 7 7
21 19 18 17 17 19 16 15 16 16 17 15 14 13 13 11 10 9 9 9 9 9 9 9 10 10 11 11 11 11 11 11 11 11 11 10 10 10 9 9 8 7 7 7 7 8 8 8 8
22 20 19 18 19 20 17 18 19 20 19 17 16 15 14 14 12 10 10 10 10 10 10 9 10 10 10 11 10 10 11 11 11 11 11 11 10 10 11 10 9 8 8 8 9 9 8 9 9
24 23 22 21 20 18 17 19 19 19 19 20 19 18 17 15 15 13 12 11 11 11 11 11 11 10 10 10 10 10 10 11 11 11 11 10 11 11 11 10 10 10 10 10 10 10 10 10 10
25 25 23 23 22 21 20 20 20 19 19 19 19 19 18 17 16 16 14 14 13 12 12 12 11 11 11 10 10 10 10 11 11 11 11 11 12 12 11 11 10 10 11 11 11 10 10 10 11
28 25 24 25 25 23 21 21 21 22 21 20 20 19 20 19 19 18 16 15 15 14 14 13 12 12 12 11 11 11 11 12 12 13 13 13 13 13 13 12 12 11 12 12 12 12 12 12 12
27 27 27 26 25 23 22 22 21 21 21 22 22 22 22 20 20 20 18 17 17 16 15 15 14 14 13 13 13 13 13 13 13 14 14 14 15 15 14 14 13 13 14 14 14 14 14 14 14
27 27 27 28 28 27 25 25 23 22 21 22 23 24 23 21 21 21 20 20 20 19 19 18 17 16 15 15 15 15 15 15 15 15 16 16 16 16 16 16 16 16 16 16 16 16 15 15 15

GEFSSGP_500_meanwind_198.txt.gz
Wind_Speed
22 23 22 21 21 20 19 18 17 16 14 13 13 12 12 10 9 7 6 6 6 6 6 6 6 5 4 5 7 7 8 8 8 9 8 8 8 7 7 7 7 7 6 6 6 6 6 6 6
22 22 22 23 23 22 20 19 18 16 15 15 14 13 12 11 9 8 7 7 6 6 6 6 5 4 4 5 7 8 8 8 8 8 8 8 7 7 7 7 7 6 6 6 6 5 5 5 5
20 22 23 24 24 23 22 20 19 18 17 16 15 14 13 12 10 9 9 8 8 8 7 6 5 4 5 6 6 6 7 8 7 7 7 7 7 7 7 6 6 6 6 6 6 5 5 5 5
19 21 23 24 24 23 22 21 20 19 18 17 16 15 14 13 12 10 10 10 10 9 8 7 6 5 6 6 6 6 7 7 7 7 7 7 7 7 7 6 6 6 5 5 5 5 5 5 5
19 20 23 23 23 22 22 21 20 19 18 18 17 16 15 14 13 11 11 10 10 9 8 7 7 6 6 6 6 6 6 7 7 6 6 7 7 7 6 6 5 5 5 4 5 5 5 5 5
18 20 22 22 22 21 21 21 20 19 18 18 18 17 16 15 14 12 11 11 10 9 8 7 7 6 6 6 4 4 5 6 6 6 6 7 7 7 6 6 5 5 4 4 4 4 5 5 4
17 20 20 19 20 20 21 20 19 19 19 20 19 18 17 16 15 14 13 12 11 10 8 8 7 6 6 6 5 5 5 5 5 6 6 7 7 7 7 6 5 5 4 4 4 4 4 4 4
16 17 17 17 18 19 20 19 19 19 20 20 20 19 18 17 16 15 14 13 12 11 10 9 8 6 6 6 5 5 5 5 5 5 5 6 7 7 6 6 5 5 4 4 4 4 4 4 4
14 14 15 16 16 17 18 18 19 20 20 20 20 19 18 18 17 17 15 14 13 12 11 9 9 7 6 6 5 5 5 5 5 4 4 5 6 6 5 5 5 5 5 4 5 5 4 4 4
13 13 13 14 15 16 17 17 19 20 20 20 20 19 18 18 18 17 16 15 14 14 13 11 10 8 7 7 6 5 4 4 4 3 4 5 5 5 5 5 5 5 5 5 5 4 4 4 4
11 11 11 11 13 14 15 16 19 19 19 19 19 19 18 18 18 18 17 16 15 14 14 13 11 9 8 8 7 5 5 4 4 3 3 4 4 5 5 5 5 6 6 6 5 4 4 4 4
8 9 8 9 10 12 13 15 17 19 19 19 19 18 18 18 18 18 18 17 16 15 14 13 12 11 9 8 8 7 6 5 3 3 3 3 4 4 5 6 6 6 6 6 5 5 4 4 4
6 6 6 6 9 11 12 14 15 17 18 18 18 18 17 18 18 18 18 18 17 15 14 14 13 12 11 10 8 7 6 5 4 3 3 3 4 5 5 5 6 6 6 6 6 5 5 5 5
5 4 4 5 7 9 11 12 13 15 16 17 17 17 17 17 17 17 17 17 17 16 15 15 14 12 12 10 9 8 7 6 5 3 3 3 3 4 4 5 5 6 5 6 6 5 6 6 5
6 4 3 4 6 8 9 9 11 13 15 15 16 15 16 16 16 16 17 17 17 16 15 15 14 13 12 11 10 9 8 6 5 4 3 3 3 3 4 4 5 6 6 6 6 6 6 6 6
8 5 3 3 4 5 6 7 10 11 12 13 14 14 14 15 15 16 16 16 16 16 15 15 14 14 13 12 11 10 9 8 6 5 3 2 2 2 2 4 5 6 5 5 5 5 5 6 6
10 7 5 4 2 3 5 5 8 9 10 11 12 13 13 13 14 15 15 15 15 15 15 15 14 13 13 12 11 11 10 8 7 6 4 3 2 1 1 3 4 5 5 5 5 5 5 5 6
10 8 7 6 2 4 5 5 6 7 8 9 10 11 12 12 12 13 13 14 14 14 14 14 14 13 12 12 11 11 10 10 8 7 6 4 3 1 0 1 3 4 4 4 4 5 5 6 6
12 9 7 7 6 6 6 6 6 7 7 7 8 9 10 11 11 11 11 12 12 12 12 13 13 12 12 12 12 11 10 10 9 8 7 7 5 4 2 1 0 2 3 4 4 4 5 5 6
14 12 9 8 8 7 8 7 7 8 8 7 7 7 8 9 9 9 9 10 10 10 10 11 12 12 12 12 12 11 11 10 10 9 7 7 6 5 4 3 2 1 1 3 4 4 5 6 7
17 15 13 11 10 11 11 10 9 9 9 7 7 7 7 8 8 8 8 8 8 8 9 9 10 10 10 10 11 11 11 11 10 10 9 7 6 6 4 3 2 2 1 1 2 3 4 5 6
19 17 16 14 14 15 15 14 12 11 10 8 7 9 8 8 8 8 7 7 7 7 7 7 8 8 8 9 9 9 10 10 9 9 8 7 6 6 5 4 3 2 1 1 1 2 3 4 5
20 19 20 18 18 18 17 18 15 14 13 10 10 10 10 10 9 8 7 7 7 7 7 7 7 7 6 7 7 8 8 9 9 9 8 7 6 5 6 5 4 3 2 2 2 2 3 4 5
21 21 22 22 22 22 19 20 18 16 16 15 13 12 11 11 11 9 8 8 7 7 7 6 6 6 6 6 6 7 7 8 9 9 8 7 6 6 6 6 5 4 3 4 4 5 5 5 5
24 24 24 24 25 23 21 23 21 18 17 17 16 15 13 13 12 11 10 10 9 8 8 8 7 6 6 6 6 6 7 7 8 9 9 8 7 7 7 6 6 5 5 5 6 5 5 5 6
25 26 27 26 25 23 22 23 20 18 18 18 17 16 15 15 12 12 11 10 10 9 9 9 8 7 7 7 6 6 6 7 7 8 9 9 8 8 8 7 7 7 6 7 7 7 7 7 8
26 27 26 26 26 26 24 23 22 19 19 18 18 18 17 17 14 13 13 12 12 12 12 11 10 9 9 9 8 8 8 7 7 8 8 9 9 9 8 8 8 8 8 8 8 9 9 9 10
28 27 27 28 28 29 28 26 24 22 20 19 19 20 19 19 17 15 14 14 13 14 14 13 12 12 11 10 10 10 10 9 9 8 8 9 10 10 9 10 10 10 10 10 10 10 10 10 11
29 29 30 30 30 31 31 29 24 23 22 22 21 21 20 19 18 17 17 16 16 16 16 15 15 14 13 12 12 12 12 11 11 10 10 11 11 11 11 11 11 12 12 12 12 12 12 12 12
30 31 31 33 32 31 32 31 27 26 25 24 24 22 20 20 21 20 19 18 19 18 17 18 17 16 15 15 15 14 14 14 13 12 12 13 13 13 13 12 13 13 13 13 14 14 14 14 14

GEFSSGP_500_meanwind_204.txt.gz
Wind_Speed
23 23 22 21 21 20 21 21 19 18 17 16 15 14 12 11 9 7 6 6 6 5 4 5 5 5 6 7 7 6 6 6 6 7 8 8 7 7 6 6 6 6 6 5 5 5 5 5 5
22 23 22 22 21 21 21 22 21 19 17 16 16 15 13 11 10 8 7 7 6 5 5 5 5 5 6 6 6 6 7 7 7 7 7 8 7 7 6 6 6 6 5 5 5 5 5 5 5
20 21 22 23 22 22 21 21 21 20 19 17 17 16 14 11 10 9 8 8 6 5 5 5 5 5 5 6 5 6 8 7 7 7 7 7 7 7 6 6 5 5 5 5 5 5 5 5 5
19 20 21 22 22 22 22 22 21 21 20 19 18 17 14 13 11 10 9 8 7 6 6 6 5 5 5 6 6 6 7 7 6 6 6 6 7 7 6 5 5 5 5 5 5 5 5 4 4
17 20 21 21 22 22 22 22 21 21 21 20 19 18 16 14 12 11 10 9 8 7 6 6 6 6 6 6 6 6 7 7 6 6 6 6 6 6 6 5 5 5 5 5 4 4 4 4 4
17 19 20 21 22 22 22 22 21 21 20 20 19 19 17 15 13 11 10 9 8 7 7 7 6 7 6 6 5 5 6 6 6 6 6 6 6 6 6 5 4 4 5 5 4 4 4 3 3
17 17 19 20 22 22 22 22 21 21 20 20 19 19 17 16 14 13 12 10 9 8 7 7 7 7 6 6 6 6 6 6 7 7 6 6 6 6 5 5 4 4 4 4 4 4 4 3 3
14 15 17 19 20 21 21 21 21 21 20 19 19 19 18 16 15 14 13 12 10 9 8 8 7 7 7 6 5 5 5 6 6 6 6 5 5 5 5 4 4 4 3 3 4 4 4 4 3
12 14 16 17 18 19 20 20 20 20 20 20 20 19 18 17 16 15 14 12 12 11 10 9 9 8 7 6 5 4 5 5 5 5 5 5 5 5 5 5 4 4 3 3 4 4 4 4 3
9 11 14 15 16 16 17 18 19 20 19 19 19 19 18 17 16 15 14 13 13 12 11 10 9 8 7 6 5 5 5 5 4 5 4 5 5 5 5 5 5 4 4 4 3 3 4 4 3
7 9 11 12 13 14 15 17 18 19 19 19 19 18 18 17 16 16 15 14 13 13 12 11 10 8 7 7 7 6 5 4 4 4 4 4 4 5 5 5 5 5 5 4 4 3 3 4 4
5 7 9 10 11 12 14 15 17 18 18 18 18 18 17 17 16 16 16 15 14 14 13 12 11 10 8 8 8 7 6 5 5 4 3 3 4 4 4 4 5 5 5 5 4 4 4 4 4
4 5 6 7 9 10 11 13 14 15 17 17 18 17 16 16 16 16 16 16 15 14 13 12 11 11 10 9 8 7 7 6 5 4 3 3 3 4 4 4 5 5 5 5 4 4 4 4 4
4 3 3 4 6 7 9 11 13 14 15 15 16 16 16 16 16 16 16 16 15 14 14 13 12 11 11 10 8 7 7 6 5 4 4 2 2 3 4 4 5 4 4 5 5 5 5 5 5
6 4 2 2 3 4 6 8 9 11 12 13 14 14 15 15 15 15 15 15 15 14 14 13 12 12 11 10 10 8 7 6 5 4 3 2 2 1 2 3 4 4 4 5 5 6 5 6 6
10 7 5 3 1 1 3 5 6 7 9 10 11 12 13 13 14 14 14 14 13 13 13 13 12 11 11 10 10 9 8 6 5 4 3 3 2 1 1 2 3 4 4 5 6 6 6 6 6
13 11 8 7 5 3 2 1 2 4 5 7 8 9 11 12 12 12 13 13 12 12 12 12 12 11 11 10 10 10 8 7 6 5 4 3 2 2 2 2 2 4 4 5 6 6 6 6 6
16 14 11 10 10 8 6 3 1 2 3 4 5 7 8 9 11 11 11 11 11 11 11 11 11 11 11 11 11 10 9 9 8 6 5 4 3 3 2 2 2 3 4 4 5 6 6 6 7
18 17 15 13 13 12 10 8 5 3 3 3 4 5 6 7 9 9 10 9 10 10 10 9 10 10 10 10 11 10 9 9 9 8 6 5 4 4 3 2 1 2 3 4 5 5 6 6 7
21 19 17 16 16 15 14 11 9 7 6 4 4 4 4 6 7 7 8 9 8 8 8 8 8 8 9 9 9 9 9 9 9 8 7 6 5 4 4 1 1 2 2 3 4 5 5 6 7
23 22 20 19 18 18 17 15 12 10 9 7 6 6 5 5 5 6 7 8 8 7 6 6 7 7 7 7 7 8 8 8 8 7 7 6 6 4 4 3 2 2 3 3 4 5 5 6 7
25 23 22 22 22 21 21 19 15 13 11 9 9 8 8 7 6 6 7 8 8 7 6 6 6 6 6 6 6 6 6 7 7 7 7 7 6 5 4 3 3 3 4 4 4 5 5 6 7
26 26 26 25 24 24 22 22 18 16 14 12 10 10 10 8 7 7 8 9 8 8 7 7 7 7 6 6 5 4 5 6 6 6 6 6 6 6 5 5 4 5 5 5 6 6 6 7 7
27 27 28 28 28 27 24 24 20 18 16 15 12 12 12 11 9 9 9 10 9 9 8 8 7 6 7 7 7 5 5 5 6 6 6 6 6 6 6 6 5 6 6 7 7 8 8 8 8
31 30 30 31 31 29 26 27 22 19 19 18 17 15 15 14 13 12 11 11 10 10 9 9 8 7 7 8 8 6 6 6 6 7 7 6 6 6 6 6 6 6 7 8 8 9 8 9 9
33 33 33 33 32 30 30 30 24 21 20 20 19 18 18 17 16 15 15 13 12 12 11 10 10 9 9 9 8 8 7 7 7 8 8 8 6 6 7 7 7 8 8 9 10 10 10 10 11
35 34 34 34 34 34 33 31 28 24 22 21 20 20 19 19 19 17 17 15 14 14 12 12 12 12 11 11 10 8 9 9 8 9 9 9 9 8 8 8 8 9 9 9 10 10 11 12 12
35 35 35 36 36 36 36 34 31 26 24 23 22 21 20 20 20 19 19 18 17 16 14 14 14 14 14 14 13 11 11 10 10 10 10 10 10 10 10 10 10 10 10 10 11 11 11 12 12
35 35 36 36 37 37 38 36 30 28 25 24 23 22 21 21 21 21 20 21 20 18 17 16 16 16 17 17 16 15 14 13 12 12 12 12 12 12 11 11 12 12 12 12 12 12 13 13 14
34 35 36 37 38 38 38 36 31 29 27 25 24 23 22 22 22 22 22 22 20 20 19 19 19 19 19 19 19 18 18 16 15 15 15 15 15 14 14 13 14 14 15 15 15 15 15 15 16

GEFSSGP_500_meanwind_210.txt.gz
Wind_Speed
21 20 19 20 22 20 18 18 18 16 15 14 13 12 11 9 8 7 7 7 7 7 6 6 6 7 7 7 7 8 9 10 10 11 11 11 10 10 9 9 9 8 8 8 8 7 7 7 7
21 21 20 21 21 18 19 19 19 17 16 15 14 13 12 11 10 8 7 7 8 7 7 7 7 7 7 8 8 9 9 9 9 10 10 11 10 9 9 9 8 8 8 8 7 7 7 7 7
20 20 20 22 20 19 20 20 19 18 18 17 16 15 13 12 10 9 8 8 8 7 7 7 7 6 7 9 9 9 9 9 9 9 10 10 10 10 10 9 8 8 8 7 7 7 7 7 6
19 20 21 20 19 19 20 20 20 20 19 18 18 16 14 13 11 10 9 9 9 7 6 6 6 6 8 8 9 9 9 10 9 10 11 10 10 10 10 9 8 8 8 7 7 7 6 6 6
17 19 20 18 18 19 19 19 20 20 20 19 19 17 16 14 12 10 10 9 8 8 6 6 7 7 6 7 8 9 8 9 9 10 10 10 9 9 9 8 8 7 6 6 6 6 6 6 6
16 18 17 16 17 18 19 19 20 20 19 19 19 18 17 15 14 12 11 10 9 7 6 6 6 5 6 7 7 8 8 8 9 10 9 9 9 9 9 8 8 7 6 6 6 6 5 5 5
15 16 16 16 17 18 18 19 20 20 20 19 19 18 17 16 15 13 12 11 9 8 7 6 5 5 6 6 7 8 8 8 8 8 8 9 9 9 9 8 7 7 7 6 6 6 5 5 4
12 15 14 14 15 16 17 18 19 20 20 19 19 18 17 16 15 14 13 11 10 9 8 7 6 5 4 5 6 7 7 7 7 8 8 8 8 9 8 8 7 6 6 6 6 5 5 4 4
11 13 11 12 13 14 15 17 18 19 19 20 19 19 18 17 16 15 13 12 11 10 9 8 7 6 5 5 5 6 7 7 7 7 7 7 7 7 8 7 7 6 6 5 5 4 4 4 3
9 10 10 10 11 12 14 15 17 18 19 19 19 19 18 17 16 15 14 13 11 10 9 8 7 6 6 5 5 5 6 6 6 7 7 7 6 6 7 7 7 6 6 5 4 4 4 3 3
7 8 8 8 10 10 12 13 15 16 17 18 18 18 18 18 17 16 15 14 12 11 10 9 8 7 6 5 5 5 6 5 6 6 7 7 6 6 7 6 6 6 6 5 4 4 3 3 3
4 4 5 6 8 8 9 11 13 14 15 16 16 16 17 17 17 16 15 14 13 12 10 10 9 8 7 6 5 6 5 5 5 6 6 6 5 6 6 6 6 6 6 5 4 3 3 3 3
3 2 3 4 5 6 7 8 10 11 13 14 15 16 16 16 16 15 15 14 13 13 11 10 9 8 7 6 6 5 5 4 5 5 5 4 4 5 6 6 5 6 6 5 4 4 3 3 3
4 2 1 1 2 3 5 6 7 9 10 12 13 14 15 15 14 14 14 13 13 12 12 11 10 9 8 7 7 5 5 4 4 4 3 3 3 4 4 5 5 5 6 5 5 4 4 4 3
6 4 3 2 0 1 2 4 4 6 8 9 11 12 13 14 14 13 13 13 12 12 11 11 10 10 9 8 7 6 5 5 4 4 3 3 3 3 3 4 5 5 5 5 5 5 5 5 4
7 5 4 4 3 1 0 2 2 3 5 6 8 9 10 11 12 12 12 12 11 11 11 10 10 9 9 9 8 6 5 5 4 4 3 2 2 2 2 4 5 5 5 4 4 4 4 5 5
9 7 7 7 6 4 2 1 2 1 2 4 5 6 8 9 10 10 10 10 10 10 10 10 9 9 9 9 8 7 6 5 4 3 2 2 1 1 1 2 3 4 4 4 3 4 4 4 4
13 11 10 10 10 8 7 5 5 4 3 2 3 4 5 7 8 8 8 9 9 9 9 8 8 8 8 8 8 7 7 6 5 4 2 2 1 1 0 1 3 3 4 4 4 3 3 4 5
16 15 13 13 14 12 11 10 9 7 5 4 3 3 4 5 6 6 6 7 7 7 7 7 7 7 7 7 6 6 6 6 5 4 3 2 2 2 1 0 2 3 3 4 4 4 4 5 6
19 17 15 16 17 15 15 14 12 11 9 8 6 5 5 5 6 7 6 5 5 5 6 5 5 5 6 6 5 5 5 5 4 4 3 3 2 2 2 1 0 1 2 2 3 4 4 5 6
21 20 19 19 19 18 16 15 14 12 11 10 9 9 8 8 8 8 8 7 6 5 6 5 5 5 5 6 5 4 5 5 4 3 3 4 3 3 3 2 1 1 2 2 3 4 5 5 6
22 21 22 22 20 19 18 16 16 14 13 12 11 11 10 10 9 9 9 8 7 7 6 6 6 6 5 5 5 5 5 5 4 4 3 3 4 4 3 3 3 3 4 4 4 4 4 5 6
24 24 24 23 22 21 20 19 18 17 15 13 13 12 12 12 11 10 10 10 9 9 8 8 7 6 6 6 5 5 5 5 5 5 4 4 5 5 5 4 4 5 5 5 5 5 6 6 7
26 25 25 25 24 25 23 22 20 19 17 15 15 15 14 14 12 11 11 11 11 11 11 9 9 8 8 7 6 6 6 6 6 6 6 6 6 6 6 6 6 6 6 6 6 7 7 7 8
27 26 25 25 25 25 25 25 23 22 20 18 17 16 16 15 14 14 14 14 13 13 13 12 11 11 10 9 8 8 7 7 7 7 7 8 9 9 8 8 7 8 8 7 7 8 8 8 9
28 28 27 26 25 25 26 27 25 22 22 21 20 19 19 18 18 17 17 17 16 15 14 14 13 13 12 11 11 10 10 10 9 10 10 11 11 10 9 9 9 9 9 9 9 9 10 10 10
29 29 29 29 28 28 28 28 25 24 24 23 23 21 21 21 20 20 20 19 19 18 17 17 16 16 15 14 14 13 12 12 11 12 12 13 13 12 12 11 11 11 11 11 11 11 11 12 12
31 30 30 30 29 29 29 28 26 25 24 24 23 23 23 23 22 22 21 21 22 21 20 20 19 19 18 18 16 16 15 14 14 14 15 14 13 13 14 13 12 12 13 12 12 12 13 13 13
32 32 32 32 31 30 29 28 27 27 26 25 25 24 24 23 23 23 22 22 22 22 22 22 22 21 20 20 20 19 18 17 16 16 16 16 16 15 16 15 14 14 14 14 13 13 14 14 14
32 32 32 32 33 33 31 30 29 29 27 27 26 25 25 25 25 24 23 23 23 24 24 25 24 23 23 23 22 21 21 20 19 18 18 17 17 17 18 18 17 16 16 16 15 15 16 15 15

GEFSSGP_500_meanwind_216.txt.gz
Wind_Speed
21 21 21 21 21 18 13 11 10 10 9 8 7 6 5 4 3 2 1 1 2 3 3 4 4 4 4 5 5 6 7 7 8 8 8 8 9 10 10 9 9 8 8 8 7 7 7 7 7
20 19 22 22 20 14 12 12 12 12 10 10 9 8 7 5 4 3 3 2 2 3 4 4 4 4 3 4 5 6 7 8 8 8 8 8 8 9 9 9 8 8 8 7 7 7 7 7 6
20 19 22 22 16 12 11 12 13 12 11 11 10 10 8 7 5 4 4 3 3 3 3 4 4 4 4 5 5 6 7 7 7 8 8 8 8 8 8 8 8 8 7 7 7 7 6 6 5
18 22 23 19 14 12 12 13 13 13 12 12 12 10 9 8 7 5 5 5 4 3 3 4 5 4 5 5 5 6 6 7 7 7 7 7 7 7 8 8 8 8 7 7 7 6 6 5 5
19 22 21 17 14 13 13 13 13 13 13 13 12 11 10 9 8 7 6 6 5 5 4 5 4 4 5 4 5 6 6 6 7 6 6 6 6 6 7 7 7 7 7 6 6 6 6 5 4
19 21 18 14 13 12 13 12 12 13 13 13 14 13 12 11 10 9 8 7 6 5 4 4 4 3 4 3 5 5 6 6 7 6 5 5 6 7 6 7 7 7 6 6 5 5 5 5 4
17 18 15 12 11 12 12 12 12 13 14 14 15 14 13 12 10 10 9 8 7 6 5 4 4 3 3 4 5 5 6 6 6 6 5 5 6 6 7 7 7 6 6 5 5 4 4 3 2
15 15 12 10 10 11 11 11 13 14 14 15 16 15 14 13 11 11 10 10 9 8 7 5 4 3 3 4 4 4 5 6 6 6 6 5 5 5 6 6 6 5 5 5 5 4 3 3 2
13 12 11 8 8 9 10 10 12 13 15 16 16 15 14 14 13 12 11 10 9 9 8 7 6 5 4 3 4 4 4 5 5 6 6 5 5 5 6 6 5 5 4 5 4 3 3 2 1
8 8 6 6 6 7 8 10 12 14 15 15 15 15 15 14 14 13 13 12 10 9 9 8 7 6 5 4 3 4 4 4 4 4 5 4 5 5 5 5 5 4 4 4 4 3 3 2 1
4 3 4 4 5 6 7 9 11 12 13 14 15 15 15 15 15 15 14 13 12 11 10 9 8 6 5 4 3 4 3 4 3 2 3 3 4 4 5 5 5 4 4 4 4 3 3 3 2
1 2 3 3 4 5 6 7 8 9 11 13 14 14 14 15 15 15 15 14 13 12 11 11 10 8 7 5 3 3 3 3 2 2 3 3 3 3 4 4 4 5 4 4 4 3 3 3 3
1 1 2 3 4 4 4 5 7 8 9 11 12 13 14 14 15 15 15 14 14 13 12 12 11 10 9 7 5 3 2 2 2 2 2 2 2 3 3 3 4 4 4 4 4 3 3 3 3
3 2 2 2 3 4 3 4 5 7 8 9 10 12 13 14 14 14 14 14 14 13 13 12 11 11 10 9 7 6 4 3 2 1 1 1 0 1 2 3 3 4 4 4 4 4 3 3 3
3 2 4 4 3 4 4 4 5 6 7 8 9 10 12 12 13 13 14 13 13 13 12 12 11 11 11 10 8 7 6 4 3 2 1 1 1 1 1 2 3 4 4 4 4 4 4 3 3
3 3 5 5 4 5 4 6 8 6 6 7 8 9 10 11 12 12 12 13 12 12 12 11 10 10 10 9 8 7 6 5 4 3 2 1 2 1 1 2 3 3 4 4 4 5 5 4 4
4 6 7 7 5 5 6 6 9 8 7 7 7 8 9 10 10 11 11 12 12 12 11 11 10 10 9 9 9 8 7 6 5 4 3 2 2 2 3 2 2 3 3 4 5 5 6 6 6
7 8 10 9 8 6 7 8 11 9 8 9 8 8 8 9 9 10 10 10 11 11 11 10 10 9 9 9 8 7 7 7 7 5 4 3 3 3 4 3 3 3 4 4 5 6 7 6 6
13 13 12 11 9 7 8 10 12 12 10 10 10 9 9 9 9 9 9 10 10 10 10 10 9 9 9 8 8 6 6 6 7 6 4 3 3 3 4 4 4 3 4 5 6 6 6 6 7
15 15 13 12 11 9 10 11 13 14 12 12 13 11 10 9 10 9 9 9 9 9 9 9 8 8 8 8 8 7 6 6 7 6 5 4 4 3 4 5 4 4 4 5 5 5 5 6 6
15 16 16 16 15 12 11 13 14 14 14 15 14 13 12 10 10 10 9 9 9 9 9 9 9 8 8 8 8 7 7 7 7 7 6 6 5 4 4 5 5 5 5 5 6 6 6 6 6
17 17 18 18 15 14 14 17 16 16 16 17 16 14 13 11 10 10 10 10 10 9 9 9 9 9 9 9 9 8 9 8 8 7 7 6 5 6 6 6 6 6 6 6 7 7 7 7 7
18 17 19 19 17 17 16 16 17 16 17 17 18 16 15 13 12 12 11 11 10 10 10 10 10 9 10 10 10 10 10 10 9 8 7 7 6 7 7 7 7 7 8 7 7 7 7 7 8
19 19 19 17 18 19 16 17 18 17 19 19 18 17 16 17 14 13 13 13 12 11 11 11 11 10 11 11 11 12 11 11 10 9 9 8 8 8 9 9 8 9 9 9 8 8 8 8 9
20 19 19 18 19 20 18 18 20 19 20 21 20 19 19 20 18 16 16 16 15 14 13 13 13 13 12 12 13 13 13 12 12 11 11 10 10 11 11 11 10 10 10 10 10 10 10 9 10
21 21 22 21 21 20 20 21 20 21 21 21 21 20 20 22 21 19 18 18 18 17 16 15 15 15 15 15 15 15 14 14 14 14 14 13 13 13 13 13 13 12 12 12 12 12 11 11 12
22 23 23 24 24 23 22 22 21 23 21 20 20 21 22 24 23 21 21 20 20 19 19 19 18 17 17 17 17 17 16 16 17 17 16 16 16 16 16 15 14 14 14 14 14 14 13 13 13
23 23 22 23 24 24 22 21 24 23 22 23 22 23 24 25 24 24 23 23 22 22 22 22 21 20 19 19 19 19 18 18 18 18 18 18 17 17 18 19 17 17 16 16 15 14 14 14 14
21 23 24 24 24 24 24 24 24 27 26 25 25 26 26 26 25 24 24 25 24 23 24 24 23 22 21 21 21 21 21 20 20 20 20 20 20 20 20 18 19 18 18 17 17 16 16 16 16
22 22 23 25 27 26 26 26 25 28 27 27 27 28 26 27 28 27 27 27 27 26 26 26 26 25 24 23 23 23 23 22 21 22 23 23 23 23 22 21 20 19 19 19 18 18 17 17 17

GEFSSGP_500_meanwind_222.txt.gz
Wind_Speed
19 20 19 19 20 20 20 19 17 15 13 12 11 11 10 8 7 6 5 5 5 6 6 7 6 7 7 7 7 8 8 9 8 8 9 9 9 9 11 11 10 10 10 10 9 9 9 9 9
19 19 18 19 20 19 21 20 18 16 14 13 12 11 10 9 7 7 6 5 6 6 6 6 6 7 7 7 7 6 8 8 8 8 8 8 8 9 10 10 10 10 9 9 9 8 8 8 8
19 18 18 20 21 20 20 20 19 17 16 14 13 13 11 9 8 7 6 6 6 6 6 6 6 7 7 6 6 6 7 8 8 7 8 8 8 8 9 8 8 9 9 9 8 7 7 7 7
20 19 19 21 22 21 20 20 19 17 16 16 15 14 12 10 9 9 8 7 7 7 6 6 6 7 7 6 6 7 7 8 8 8 7 7 8 8 8 8 9 9 9 8 8 7 7 7 6
19 19 20 21 21 21 20 19 19 16 16 17 17 15 13 12 11 10 10 8 8 7 7 6 6 6 6 6 7 7 8 8 8 8 7 7 7 7 8 8 8 8 8 7 7 7 6 6 5
17 18 20 20 20 20 19 19 18 17 16 17 18 17 14 13 12 12 11 10 9 8 7 7 7 6 6 7 7 6 7 8 8 7 6 6 6 7 7 7 7 7 6 6 6 6 5 5 4
15 17 18 18 18 18 19 18 17 17 17 18 18 18 17 15 13 12 12 11 10 9 8 7 7 7 7 7 7 6 7 7 8 7 6 6 6 7 7 7 6 6 6 5 5 5 4 4 3
13 14 16 16 16 16 17 17 17 18 18 18 19 19 18 17 15 14 13 12 10 9 8 8 8 7 7 7 6 6 6 6 7 7 6 6 6 6 6 6 6 6 5 5 4 4 3 3 3
11 12 13 13 13 14 15 15 16 17 18 19 19 19 18 18 16 15 14 13 12 10 9 9 8 8 7 7 6 6 6 7 7 7 7 7 6 6 6 6 6 5 5 4 4 3 3 3 2
9 11 11 10 10 11 13 14 15 16 18 18 19 18 18 18 17 16 15 14 13 13 11 9 9 9 8 7 7 6 6 6 7 7 7 6 6 6 6 5 5 5 5 4 3 3 3 2 2
7 7 8 8 9 10 11 12 14 15 16 17 18 18 17 17 17 17 16 15 14 14 13 12 10 9 8 7 7 6 6 7 6 6 6 6 6 6 5 5 5 4 4 3 3 3 3 3 2
5 6 6 7 7 7 9 10 12 14 15 15 16 16 17 17 17 17 17 16 15 14 14 13 11 10 8 7 7 7 7 7 7 6 6 5 5 5 6 5 4 4 3 3 3 3 3 3 3
6 7 7 7 5 6 8 9 11 12 13 14 15 15 15 15 16 16 17 16 15 15 14 13 12 11 9 8 7 7 7 6 6 6 5 5 5 4 5 5 5 4 4 3 3 3 3 3 3
7 7 7 6 5 5 6 7 9 10 11 13 14 14 13 14 15 15 16 16 16 15 14 13 12 11 11 10 8 7 7 7 6 6 5 4 4 4 4 4 4 4 4 4 3 3 3 4 3
7 7 5 5 3 3 3 4 6 8 10 11 12 12 13 13 13 14 14 15 15 15 14 13 12 11 11 10 9 8 8 7 6 5 4 4 3 3 3 3 3 4 4 4 4 3 3 4 3
8 7 7 4 2 1 1 2 3 5 8 9 10 10 11 12 12 12 12 13 13 13 13 13 12 12 11 11 10 9 8 7 5 4 4 4 4 4 3 2 2 3 4 4 4 4 3 4 4
10 9 7 5 2 1 3 3 3 5 7 8 10 10 10 10 11 11 11 11 12 12 12 12 12 12 11 11 10 9 9 7 6 5 4 3 3 3 2 2 1 2 3 3 3 4 4 4 4
11 10 7 6 5 5 7 6 6 6 7 8 9 8 9 9 9 10 9 9 10 10 10 10 10 10 10 10 10 9 8 7 6 5 4 3 2 2 2 1 0 1 2 3 4 4 4 5 5
13 12 10 9 8 8 7 7 8 7 6 6 8 7 7 8 8 8 8 8 8 8 8 8 9 9 9 9 9 8 7 7 6 6 6 4 3 2 2 1 1 1 2 3 4 4 5 5 6
14 14 12 11 12 10 10 11 10 9 8 7 8 8 7 6 7 7 6 6 6 6 6 6 7 8 8 8 8 8 7 6 5 5 4 4 3 3 2 2 2 2 2 2 3 4 4 5 6
15 15 14 14 13 13 13 13 13 11 9 9 9 9 7 8 7 7 6 5 5 4 4 4 5 6 6 6 6 6 6 5 5 5 4 3 2 2 2 2 2 3 3 3 3 3 4 6 6
16 17 17 16 16 15 16 16 15 13 12 11 10 10 9 8 8 8 7 6 5 4 4 3 4 5 5 5 5 5 5 5 4 4 4 4 3 2 2 3 3 4 4 5 5 5 5 6 7
16 17 18 17 18 17 16 16 15 15 14 12 12 12 10 10 9 9 8 8 7 6 6 5 5 5 5 5 4 4 5 5 5 5 5 4 4 4 4 5 5 5 6 6 7 7 7 7 8
17 18 18 19 18 17 16 16 15 14 14 12 13 13 12 11 9 9 9 9 8 8 8 8 7 7 7 6 6 5 5 5 5 5 6 6 6 6 6 6 6 6 7 7 8 8 8 9 9
18 18 19 19 19 18 17 18 16 15 16 15 14 15 14 13 12 11 10 9 10 10 10 11 11 10 10 9 9 9 8 7 7 7 7 7 7 7 7 8 8 8 8 9 9 10 10 10 11
18 20 20 19 19 18 20 20 18 18 18 17 17 17 17 15 14 13 12 11 12 12 13 14 14 13 12 12 12 12 12 11 10 10 10 10 10 10 9 9 9 9 9 10 10 11 11 12 13
18 20 20 21 20 21 21 22 21 20 19 18 18 18 18 18 17 16 16 15 15 15 15 16 16 15 14 14 14 15 15 15 14 13 13 13 12 11 11 11 11 10 11 11 11 11 11 12 13
20 20 21 22 23 23 22 23 22 21 21 21 20 20 21 21 20 20 20 19 18 18 18 18 17 17 17 16 17 17 17 17 17 16 16 16 15 14 13 13 13 13 14 14 13 13 13 13 14
21 23 23 23 24 25 24 23 23 23 22 23 22 23 23 24 23 23 23 22 21 21 21 21 20 19 18 18 18 18 18 19 19 19 19 19 18 17 17 17 17 16 16 15 15 15 16 16 16
23 23 24 25 25 26 26 24 23 24 23 24 24 24 25 25 24 23 24 25 24 23 23 23 22 21 20 19 19 19 20 21 21 21 21 21 21 21 20 20 19 19 18 17 17 18 18 18 17